Time,TemperatureF,DewpointF,PressureIn,WindDirection,WindDirectionDegrees,WindSpeedMPH,WindSpeedGustMPH,Humidity,HourlyPrecipIn,Conditions,Clouds,dailyrainin,SoftwareType,DateUTC
2013-09-16 00:00:00,70.1,63.3,30.18,South,182,3.0,3.0,79,0.00,,---,0.00,VWS V14.01,2013-09-16 04:00:00,
2013-09-16 00:01:00,70.1,63.3,30.18,South,174,1.0,4.0,79,0.00,,---,0.00,VWS V14.01,2013-09-16 04:01:00,
2013-09-16 00:02:00,70.1,63.3,30.18,SE,145,0.0,2.0,79,0.00,,---,0.00,VWS V14.01,2013-09-16 04:02:00,
2013-09-16 00:03:00,70.1,63.3,30.18,SE,146,0.0,2.0,79,0.00,,---,0.00,VWS V14.01,2013-09-16 04:03:00,
2013-09-16 00:04:00,70.2,63.4,30.18,SE,145,0.0,0.0,79,0.00,,---,0.00,VWS V14.01,2013-09-16 04:04:00,
2013-09-16 00:05:00,70.1,63.3,30.18,SE,145,0.0,0.0,79,0.00,,---,0.00,VWS V14.01,2013-09-16 04:05:00,
2013-09-16 00:06:00,70.1,63.3,30.18,SE,145,0.0,0.0,79,0.00,,---,0.00,VWS V14.01,2013-09-16 04:06:00,
2013-09-16 00:07:00,70.1,63.3,30.17,SSE,168,1.0,2.0,79,0.00,,---,0.00,VWS V14.01,2013-09-16 04:07:00,
2013-09-16 00:08:00,70.1,63.3,30.17,SSE,168,0.0,2.0,79,0.00,,---,0.00,VWS V14.01,2013-09-16 04:08:00,
2013-09-16 00:09:00,70.1,63.3,30.18,South,169,0.0,0.0,79,0.00,,---,0.00,VWS V14.01,2013-09-16 04:09:00,
2013-09-16 00:10:00,70.1,63.3,30.17,SSE,157,0.0,1.0,79,0.00,,---,0.00,VWS V14.01,2013-09-16 04:10:00,
2013-09-16 00:11:00,70.1,63.7,30.18,South,175,1.0,1.0,80,0.00,,---,0.00,VWS V14.01,2013-09-16 04:11:00,
2013-09-16 00:12:00,70.1,63.7,30.17,WNW,287,0.0,0.0,80,0.00,,---,0.00,VWS V14.01,2013-09-16 04:12:00,
2013-09-16 00:13:00,70.1,63.7,30.17,WNW,287,1.0,1.0,80,0.00,,---,0.00,VWS V14.01,2013-09-16 04:13:00,
2013-09-16 00:14:00,70.1,63.7,30.18,WNW,287,0.0,1.0,80,0.00,,---,0.00,VWS V14.01,2013-09-16 04:14:00,
2013-09-16 00:15:00,70.1,63.7,30.18,West,259,0.0,2.0,80,0.00,,---,0.00,VWS V14.01,2013-09-16 04:15:00,
2013-09-16 00:16:00,70.1,63.7,30.18,WSW,252,3.0,3.0,80,0.00,,---,0.00,VWS V14.01,2013-09-16 04:16:00,
2013-09-16 00:17:00,70.1,63.7,30.17,West,267,1.0,1.0,80,0.00,,---,0.00,VWS V14.01,2013-09-16 04:17:00,
2013-09-16 00:18:00,70.1,63.7,30.17,West,267,0.0,1.0,80,0.00,,---,0.00,VWS V14.01,2013-09-16 04:18:00,
2013-09-16 00:19:00,70.1,63.7,30.17,WSW,249,1.0,1.0,80,0.00,,---,0.00,VWS V14.01,2013-09-16 04:19:00,
2013-09-16 00:20:00,70.1,64.0,30.17,West,276,2.0,2.0,81,0.00,,---,0.00,VWS V14.01,2013-09-16 04:20:00,
2013-09-16 00:21:00,70.1,64.0,30.17,WSW,250,1.0,2.0,81,0.00,,---,0.00,VWS V14.01,2013-09-16 04:21:00,
2013-09-16 00:22:00,70.1,64.0,30.18,West,269,0.0,2.0,81,0.00,,---,0.00,VWS V14.01,2013-09-16 04:22:00,
2013-09-16 00:23:00,70.1,64.0,30.18,SW,214,1.0,4.0,81,0.00,,---,0.00,VWS V14.01,2013-09-16 04:23:00,
2013-09-16 00:24:00,70.1,64.0,30.17,West,265,2.0,2.0,81,0.00,,---,0.00,VWS V14.01,2013-09-16 04:24:00,
2013-09-16 00:25:00,70.1,64.0,30.18,SW,225,1.0,2.0,81,0.00,,---,0.00,VWS V14.01,2013-09-16 04:25:00,
2013-09-16 00:26:00,70.1,64.0,30.17,South,188,0.0,1.0,81,0.00,,---,0.00,VWS V14.01,2013-09-16 04:26:00,
2013-09-16 00:27:00,70.1,64.0,30.17,South,188,0.0,0.0,81,0.00,,---,0.00,VWS V14.01,2013-09-16 04:27:00,
2013-09-16 00:28:00,70.1,64.0,30.17,South,187,0.0,0.0,81,0.00,,---,0.00,VWS V14.01,2013-09-16 04:28:00,
2013-09-16 00:29:00,70.1,64.0,30.17,South,188,0.0,1.0,81,0.00,,---,0.00,VWS V14.01,2013-09-16 04:29:00,
2013-09-16 00:30:00,70.1,64.4,30.17,SSE,159,0.0,2.0,82,0.00,,---,0.00,VWS V14.01,2013-09-16 04:30:00,
2013-09-16 00:31:00,70.1,64.4,30.17,South,173,1.0,1.0,82,0.00,,---,0.00,VWS V14.01,2013-09-16 04:31:00,
2013-09-16 00:32:00,70.1,64.4,30.17,SW,229,2.0,4.0,82,0.00,,---,0.00,VWS V14.01,2013-09-16 04:32:00,
2013-09-16 00:33:00,70.1,64.4,30.17,SSE,165,0.0,4.0,82,0.00,,---,0.00,VWS V14.01,2013-09-16 04:33:00,
2013-09-16 00:34:00,70.1,64.4,30.17,SSE,165,0.0,0.0,82,0.00,,---,0.00,VWS V14.01,2013-09-16 04:34:00,
2013-09-16 00:35:00,70.1,64.4,30.17,SSE,165,0.0,0.0,82,0.00,,---,0.00,VWS V14.01,2013-09-16 04:35:00,
2013-09-16 00:36:00,70.1,64.4,30.17,SSE,165,0.0,0.0,82,0.00,,---,0.00,VWS V14.01,2013-09-16 04:36:00,
2013-09-16 00:37:00,70.1,64.4,30.17,SSW,206,0.0,0.0,82,0.00,,---,0.00,VWS V14.01,2013-09-16 04:37:00,
2013-09-16 00:38:00,70.1,64.4,30.17,SSW,195,0.0,0.0,82,0.00,,---,0.00,VWS V14.01,2013-09-16 04:38:00,
2013-09-16 00:39:00,70.0,64.3,30.17,SSW,195,0.0,0.0,82,0.00,,---,0.00,VWS V14.01,2013-09-16 04:39:00,
2013-09-16 00:40:00,70.0,64.3,30.17,SSE,157,0.0,3.0,82,0.00,,---,0.00,VWS V14.01,2013-09-16 04:40:00,
2013-09-16 00:41:00,70.0,64.3,30.17,South,184,2.0,3.0,82,0.00,,---,0.00,VWS V14.01,2013-09-16 04:41:00,
2013-09-16 00:42:00,70.0,64.6,30.17,South,176,0.0,0.0,83,0.00,,---,0.00,VWS V14.01,2013-09-16 04:42:00,
2013-09-16 00:43:00,69.9,64.5,30.17,South,175,4.0,5.0,83,0.00,,---,0.00,VWS V14.01,2013-09-16 04:43:00,
2013-09-16 00:44:00,69.9,64.5,30.17,South,176,0.0,4.0,83,0.00,,---,0.00,VWS V14.01,2013-09-16 04:44:00,
2013-09-16 00:45:00,69.9,64.5,30.17,West,277,0.0,1.0,83,0.00,,---,0.00,VWS V14.01,2013-09-16 04:45:00,
2013-09-16 00:46:00,69.9,64.5,30.17,West,276,0.0,0.0,83,0.00,,---,0.00,VWS V14.01,2013-09-16 04:46:00,
2013-09-16 00:47:00,69.9,64.5,30.17,SSW,192,1.0,1.0,83,0.00,,---,0.00,VWS V14.01,2013-09-16 04:47:00,
2013-09-16 00:48:00,69.9,64.5,30.17,West,267,1.0,2.0,83,0.00,,---,0.00,VWS V14.01,2013-09-16 04:48:00,
2013-09-16 00:49:00,69.8,64.4,30.17,SSE,165,1.0,2.0,83,0.00,,---,0.00,VWS V14.01,2013-09-16 04:49:00,
2013-09-16 00:50:00,69.8,64.8,30.17,ESE,118,0.0,2.0,84,0.00,,---,0.00,VWS V14.01,2013-09-16 04:50:00,
2013-09-16 00:51:00,69.8,64.8,30.17,ESE,122,0.0,1.0,84,0.00,,---,0.00,VWS V14.01,2013-09-16 04:51:00,
2013-09-16 00:52:00,69.8,64.8,30.17,ESE,102,0.0,1.0,84,0.00,,---,0.00,VWS V14.01,2013-09-16 04:52:00,
2013-09-16 00:53:00,69.7,64.7,30.17,ESE,103,0.0,1.0,84,0.00,,---,0.00,VWS V14.01,2013-09-16 04:53:00,
2013-09-16 00:54:00,69.7,64.7,30.17,ESE,103,1.0,1.0,84,0.00,,---,0.00,VWS V14.01,2013-09-16 04:54:00,
2013-09-16 00:55:00,69.7,64.7,30.17,NNW,331,1.0,1.0,84,0.00,,---,0.00,VWS V14.01,2013-09-16 04:55:00,
2013-09-16 00:56:00,69.7,64.7,30.17,NNW,331,1.0,1.0,84,0.00,,---,0.00,VWS V14.01,2013-09-16 04:56:00,
2013-09-16 00:57:00,69.6,64.6,30.17,SE,144,1.0,2.0,84,0.00,,---,0.00,VWS V14.01,2013-09-16 04:57:00,
2013-09-16 00:58:00,69.6,64.6,30.17,SW,229,2.0,2.0,84,0.00,,---,0.00,VWS V14.01,2013-09-16 04:58:00,
2013-09-16 00:59:00,69.6,64.9,30.17,SW,227,1.0,2.0,85,0.00,,---,0.00,VWS V14.01,2013-09-16 04:59:00,
2013-09-16 01:00:00,69.6,64.9,30.17,SW,233,0.0,1.0,85,0.00,,---,0.00,VWS V14.01,2013-09-16 05:00:00,
2013-09-16 01:01:00,69.6,64.9,30.17,SW,233,0.0,1.0,85,0.00,,---,0.00,VWS V14.01,2013-09-16 05:01:00,
2013-09-16 01:02:00,69.6,64.9,30.17,WSW,253,1.0,2.0,85,0.00,,---,0.00,VWS V14.01,2013-09-16 05:02:00,
2013-09-16 01:03:00,69.5,64.8,30.17,West,275,0.0,2.0,85,0.00,,---,0.00,VWS V14.01,2013-09-16 05:03:00,
2013-09-16 01:04:00,69.5,64.8,30.17,SW,222,1.0,2.0,85,0.00,,---,0.00,VWS V14.01,2013-09-16 05:04:00,
2013-09-16 01:05:00,69.5,64.8,30.17,WSW,248,0.0,2.0,85,0.00,,---,0.00,VWS V14.01,2013-09-16 05:05:00,
2013-09-16 01:06:00,69.5,64.8,30.17,WSW,254,2.0,2.0,85,0.00,,---,0.00,VWS V14.01,2013-09-16 05:06:00,
2013-09-16 01:07:00,69.4,64.7,30.17,WSW,242,0.0,1.0,85,0.00,,---,0.00,VWS V14.01,2013-09-16 05:07:00,
2013-09-16 01:08:00,69.4,64.7,30.17,WSW,256,2.0,2.0,85,0.00,,---,0.00,VWS V14.01,2013-09-16 05:08:00,
2013-09-16 01:09:00,69.4,64.7,30.17,West,276,2.0,4.0,85,0.00,,---,0.00,VWS V14.01,2013-09-16 05:09:00,
2013-09-16 01:10:00,69.3,64.9,30.17,WSW,248,1.0,2.0,86,0.00,,---,0.00,VWS V14.01,2013-09-16 05:10:00,
2013-09-16 01:12:00,69.3,64.9,30.17,West,269,0.0,0.0,86,0.00,,---,0.00,VWS V14.01,2013-09-16 05:12:00,
2013-09-16 01:13:00,69.3,64.9,30.17,West,260,0.0,1.0,86,0.00,,---,0.00,VWS V14.01,2013-09-16 05:13:00,
2013-09-16 01:14:00,69.2,64.8,30.17,WSW,242,3.0,3.0,86,0.00,,---,0.00,VWS V14.01,2013-09-16 05:14:00,
2013-09-16 01:15:00,69.2,64.8,30.17,WSW,250,0.0,3.0,86,0.00,,---,0.00,VWS V14.01,2013-09-16 05:15:00,
2013-09-16 01:16:00,69.2,64.8,30.17,SW,222,0.0,3.0,86,0.00,,---,0.00,VWS V14.01,2013-09-16 05:16:00,
2013-09-16 01:17:00,69.2,64.8,30.17,SW,215,2.0,2.0,86,0.00,,---,0.00,VWS V14.01,2013-09-16 05:17:00,
2013-09-16 01:18:00,69.2,64.8,30.17,WSW,252,1.0,2.0,86,0.00,,---,0.00,VWS V14.01,2013-09-16 05:18:00,
2013-09-16 01:19:00,69.2,64.8,30.17,WSW,250,0.0,1.0,86,0.00,,---,0.00,VWS V14.01,2013-09-16 05:19:00,
2013-09-16 01:20:00,69.1,64.7,30.17,WNW,288,2.0,4.0,86,0.00,,---,0.00,VWS V14.01,2013-09-16 05:20:00,
2013-09-16 01:21:00,69.1,65.1,30.17,WSW,250,0.0,2.0,87,0.00,,---,0.00,VWS V14.01,2013-09-16 05:21:00,
2013-09-16 01:22:00,69.1,65.1,30.17,WSW,245,0.0,1.0,87,0.00,,---,0.00,VWS V14.01,2013-09-16 05:22:00,
2013-09-16 01:23:00,69.1,65.1,30.17,WSW,245,0.0,1.0,87,0.00,,---,0.00,VWS V14.01,2013-09-16 05:23:00,
2013-09-16 01:24:00,69.1,65.1,30.17,SE,140,1.0,1.0,87,0.00,,---,0.00,VWS V14.01,2013-09-16 05:24:00,
2013-09-16 01:25:00,69.0,65.0,30.17,SSE,160,0.0,1.0,87,0.00,,---,0.00,VWS V14.01,2013-09-16 05:25:00,
2013-09-16 01:26:00,69.0,65.0,30.17,NE,42,1.0,2.0,87,0.00,,---,0.00,VWS V14.01,2013-09-16 05:26:00,
2013-09-16 01:27:00,69.0,65.0,30.17,NE,40,0.0,0.0,87,0.00,,---,0.00,VWS V14.01,2013-09-16 05:27:00,
2013-09-16 01:28:00,69.0,65.0,30.17,NE,42,0.0,0.0,87,0.00,,---,0.00,VWS V14.01,2013-09-16 05:28:00,
2013-09-16 01:29:00,69.0,65.0,30.17,NE,40,0.0,1.0,87,0.00,,---,0.00,VWS V14.01,2013-09-16 05:29:00,
2013-09-16 01:30:00,69.0,65.0,30.17,NNW,340,0.0,1.0,87,0.00,,---,0.00,VWS V14.01,2013-09-16 05:30:00,
2013-09-16 01:31:00,69.0,65.0,30.17,SSW,209,0.0,1.0,87,0.00,,---,0.00,VWS V14.01,2013-09-16 05:31:00,
2013-09-16 01:32:00,68.9,64.9,30.17,SSW,209,0.0,0.0,87,0.00,,---,0.00,VWS V14.01,2013-09-16 05:32:00,
2013-09-16 01:33:00,68.9,64.9,30.17,SSW,209,0.0,0.0,87,0.00,,---,0.00,VWS V14.01,2013-09-16 05:33:00,
2013-09-16 01:34:00,68.9,65.2,30.17,SW,217,0.0,0.0,88,0.00,,---,0.00,VWS V14.01,2013-09-16 05:34:00,
2013-09-16 01:35:00,68.8,65.1,30.17,SW,230,0.0,0.0,88,0.00,,---,0.00,VWS V14.01,2013-09-16 05:35:00,
2013-09-16 01:36:00,68.8,65.1,30.17,WSW,240,0.0,0.0,88,0.00,,---,0.00,VWS V14.01,2013-09-16 05:36:00,
2013-09-16 01:37:00,68.8,65.1,30.17,WSW,240,0.0,0.0,88,0.00,,---,0.00,VWS V14.01,2013-09-16 05:37:00,
2013-09-16 01:38:00,68.8,65.1,30.17,WSW,240,0.0,0.0,88,0.00,,---,0.00,VWS V14.01,2013-09-16 05:38:00,
2013-09-16 01:39:00,68.8,65.1,30.17,WSW,254,0.0,0.0,88,0.00,,---,0.00,VWS V14.01,2013-09-16 05:39:00,
2013-09-16 01:40:00,68.7,65.0,30.17,WSW,254,0.0,0.0,88,0.00,,---,0.00,VWS V14.01,2013-09-16 05:40:00,
2013-09-16 01:41:00,68.7,65.0,30.17,WSW,254,0.0,1.0,88,0.00,,---,0.00,VWS V14.01,2013-09-16 05:41:00,
2013-09-16 01:42:00,68.7,65.0,30.17,WSW,250,0.0,0.0,88,0.00,,---,0.00,VWS V14.01,2013-09-16 05:42:00,
2013-09-16 01:43:00,68.6,64.9,30.17,WSW,250,0.0,0.0,88,0.00,,---,0.00,VWS V14.01,2013-09-16 05:43:00,
2013-09-16 01:44:00,68.6,64.9,30.17,WSW,250,1.0,1.0,88,0.00,,---,0.00,VWS V14.01,2013-09-16 05:44:00,
2013-09-16 01:45:00,68.6,65.2,30.17,West,267,1.0,4.0,89,0.00,,---,0.00,VWS V14.01,2013-09-16 05:45:00,
2013-09-16 01:46:00,68.6,65.2,30.17,West,265,1.0,2.0,89,0.00,,---,0.00,VWS V14.01,2013-09-16 05:46:00,
2013-09-16 01:47:00,68.6,65.2,30.17,West,261,0.0,1.0,89,0.00,,---,0.00,VWS V14.01,2013-09-16 05:47:00,
2013-09-16 01:48:00,68.5,65.1,30.17,WSW,256,1.0,2.0,89,0.00,,---,0.00,VWS V14.01,2013-09-16 05:48:00,
2013-09-16 01:49:00,68.5,65.1,30.17,WSW,256,0.0,1.0,89,0.00,,---,0.00,VWS V14.01,2013-09-16 05:49:00,
2013-09-16 01:50:00,68.5,65.1,30.17,WSW,244,1.0,1.0,89,0.00,,---,0.00,VWS V14.01,2013-09-16 05:50:00,
2013-09-16 01:51:00,68.4,65.0,30.17,SW,236,1.0,2.0,89,0.00,,---,0.00,VWS V14.01,2013-09-16 05:51:00,
2013-09-16 01:52:00,68.5,65.1,30.17,SW,217,1.0,2.0,89,0.00,,---,0.00,VWS V14.01,2013-09-16 05:52:00,
2013-09-16 01:53:00,68.5,65.1,30.17,SW,236,1.0,2.0,89,0.00,,---,0.00,VWS V14.01,2013-09-16 05:53:00,
2013-09-16 01:54:00,68.5,65.1,30.17,SW,236,0.0,1.0,89,0.00,,---,0.00,VWS V14.01,2013-09-16 05:54:00,
2013-09-16 01:55:00,68.4,65.0,30.17,SW,232,1.0,1.0,89,0.00,,---,0.00,VWS V14.01,2013-09-16 05:55:00,
2013-09-16 01:56:00,68.4,65.0,30.17,SW,233,0.0,1.0,89,0.00,,---,0.00,VWS V14.01,2013-09-16 05:56:00,
2013-09-16 01:57:00,68.4,65.4,30.17,SW,233,0.0,0.0,90,0.00,,---,0.00,VWS V14.01,2013-09-16 05:57:00,
2013-09-16 01:58:00,68.4,65.4,30.17,SW,232,0.0,0.0,90,0.00,,---,0.00,VWS V14.01,2013-09-16 05:58:00,
2013-09-16 01:59:00,68.4,65.4,30.17,WSW,249,0.0,1.0,90,0.00,,---,0.00,VWS V14.01,2013-09-16 05:59:00,
2013-09-16 02:00:00,68.4,65.4,30.17,WSW,248,0.0,1.0,90,0.00,,---,0.00,VWS V14.01,2013-09-16 06:00:00,
2013-09-16 02:01:00,68.4,65.4,30.17,WSW,248,1.0,1.0,90,0.00,,---,0.00,VWS V14.01,2013-09-16 06:01:00,
2013-09-16 02:02:00,68.4,65.4,30.17,SE,134,1.0,1.0,90,0.00,,---,0.00,VWS V14.01,2013-09-16 06:02:00,
2013-09-16 02:03:00,68.3,65.3,30.17,SW,221,0.0,1.0,90,0.00,,---,0.00,VWS V14.01,2013-09-16 06:03:00,
2013-09-16 02:04:00,68.3,65.3,30.17,WSW,242,1.0,3.0,90,0.00,,---,0.00,VWS V14.01,2013-09-16 06:04:00,
2013-09-16 02:05:00,68.4,65.4,30.17,SSW,198,1.0,2.0,90,0.00,,---,0.00,VWS V14.01,2013-09-16 06:05:00,
2013-09-16 02:06:00,68.3,65.3,30.17,SW,230,0.0,2.0,90,0.00,,---,0.00,VWS V14.01,2013-09-16 06:06:00,
2013-09-16 02:07:00,68.3,65.3,30.17,SSW,211,0.0,0.0,90,0.00,,---,0.00,VWS V14.01,2013-09-16 06:07:00,
2013-09-16 02:08:00,68.3,65.3,30.17,SSW,212,0.0,0.0,90,0.00,,---,0.00,VWS V14.01,2013-09-16 06:08:00,
2013-09-16 02:09:00,68.3,65.3,30.16,SSW,211,0.0,0.0,90,0.00,,---,0.00,VWS V14.01,2013-09-16 06:09:00,
2013-09-16 02:10:00,68.3,65.3,30.17,SSW,211,0.0,0.0,90,0.00,,---,0.00,VWS V14.01,2013-09-16 06:10:00,
2013-09-16 02:11:00,68.2,65.2,30.16,SSW,211,0.0,0.0,90,0.00,,---,0.00,VWS V14.01,2013-09-16 06:11:00,
2013-09-16 02:12:00,68.2,65.2,30.17,SSW,211,0.0,0.0,90,0.00,,---,0.00,VWS V14.01,2013-09-16 06:12:00,
2013-09-16 02:13:00,68.2,65.2,30.17,SW,232,0.0,2.0,90,0.00,,---,0.00,VWS V14.01,2013-09-16 06:13:00,
2013-09-16 02:14:00,68.2,65.2,30.17,SW,233,0.0,1.0,90,0.00,,---,0.00,VWS V14.01,2013-09-16 06:14:00,
2013-09-16 02:15:00,68.2,65.2,30.17,SW,233,0.0,0.0,90,0.00,,---,0.00,VWS V14.01,2013-09-16 06:15:00,
2013-09-16 02:16:00,68.1,65.1,30.16,SW,233,0.0,0.0,90,0.00,,---,0.00,VWS V14.01,2013-09-16 06:16:00,
2013-09-16 02:17:00,68.1,65.1,30.16,SW,233,0.0,0.0,90,0.00,,---,0.00,VWS V14.01,2013-09-16 06:17:00,
2013-09-16 02:18:00,68.1,65.1,30.16,SW,232,0.0,0.0,90,0.00,,---,0.00,VWS V14.01,2013-09-16 06:18:00,
2013-09-16 02:19:00,68.1,65.1,30.16,SW,233,0.0,0.0,90,0.00,,---,0.00,VWS V14.01,2013-09-16 06:19:00,
2013-09-16 02:20:00,68.1,65.4,30.16,SW,232,0.0,0.0,91,0.00,,---,0.00,VWS V14.01,2013-09-16 06:20:00,
2013-09-16 02:21:00,68.0,65.3,30.17,SW,233,0.0,0.0,91,0.00,,---,0.00,VWS V14.01,2013-09-16 06:21:00,
2013-09-16 02:22:00,68.0,65.3,30.16,SW,233,1.0,1.0,91,0.00,,---,0.00,VWS V14.01,2013-09-16 06:22:00,
2013-09-16 02:23:00,68.0,65.3,30.16,WSW,240,1.0,1.0,91,0.00,,---,0.00,VWS V14.01,2013-09-16 06:23:00,
2013-09-16 02:24:00,68.0,65.3,30.17,WSW,240,0.0,1.0,91,0.00,,---,0.00,VWS V14.01,2013-09-16 06:24:00,
2013-09-16 02:25:00,68.0,65.3,30.16,WSW,240,0.0,0.0,91,0.00,,---,0.00,VWS V14.01,2013-09-16 06:25:00,
2013-09-16 02:26:00,68.0,65.3,30.17,WSW,240,0.0,1.0,91,0.00,,---,0.00,VWS V14.01,2013-09-16 06:26:00,
2013-09-16 02:27:00,68.0,65.3,30.17,WSW,240,1.0,1.0,91,0.00,,---,0.00,VWS V14.01,2013-09-16 06:27:00,
2013-09-16 02:28:00,68.0,65.3,30.17,WSW,240,1.0,1.0,91,0.00,,---,0.00,VWS V14.01,2013-09-16 06:28:00,
2013-09-16 02:29:00,68.0,65.3,30.17,WSW,240,0.0,1.0,91,0.00,,---,0.00,VWS V14.01,2013-09-16 06:29:00,
2013-09-16 02:30:00,68.0,65.3,30.16,SW,225,1.0,1.0,91,0.00,,---,0.00,VWS V14.01,2013-09-16 06:30:00,
2013-09-16 02:31:00,68.0,65.3,30.16,SW,224,0.0,1.0,91,0.00,,---,0.00,VWS V14.01,2013-09-16 06:31:00,
2013-09-16 02:32:00,68.0,65.3,30.16,SW,225,0.0,0.0,91,0.00,,---,0.00,VWS V14.01,2013-09-16 06:32:00,
2013-09-16 02:33:00,68.0,65.3,30.16,SW,224,0.0,0.0,91,0.00,,---,0.00,VWS V14.01,2013-09-16 06:33:00,
2013-09-16 02:34:00,68.0,65.3,30.16,SW,225,0.0,0.0,91,0.00,,---,0.00,VWS V14.01,2013-09-16 06:34:00,
2013-09-16 02:35:00,68.0,65.3,30.16,SW,229,1.0,1.0,91,0.00,,---,0.00,VWS V14.01,2013-09-16 06:35:00,
2013-09-16 02:37:00,68.0,65.6,30.16,South,184,1.0,1.0,92,0.00,,---,0.00,VWS V14.01,2013-09-16 06:37:00,
2013-09-16 02:38:00,68.0,65.6,30.16,SSW,192,1.0,1.0,92,0.00,,---,0.00,VWS V14.01,2013-09-16 06:38:00,
2013-09-16 02:39:00,68.0,65.6,30.16,SSW,193,0.0,1.0,92,0.00,,---,0.00,VWS V14.01,2013-09-16 06:39:00,
2013-09-16 02:40:00,68.0,65.6,30.16,SSW,193,0.0,1.0,92,0.00,,---,0.00,VWS V14.01,2013-09-16 06:40:00,
2013-09-16 02:41:00,68.0,65.6,30.16,SSW,192,1.0,1.0,92,0.00,,---,0.00,VWS V14.01,2013-09-16 06:41:00,
2013-09-16 02:42:00,68.0,65.6,30.16,SSW,193,0.0,1.0,92,0.00,,---,0.00,VWS V14.01,2013-09-16 06:42:00,
2013-09-16 02:43:00,68.0,65.6,30.16,SSW,192,0.0,0.0,92,0.00,,---,0.00,VWS V14.01,2013-09-16 06:43:00,
2013-09-16 02:44:00,68.0,65.6,30.16,SSW,192,0.0,0.0,92,0.00,,---,0.00,VWS V14.01,2013-09-16 06:44:00,
2013-09-16 02:45:00,68.0,65.6,30.16,SSW,192,0.0,0.0,92,0.00,,---,0.00,VWS V14.01,2013-09-16 06:45:00,
2013-09-16 02:46:00,67.9,65.5,30.16,SSW,192,0.0,0.0,92,0.00,,---,0.00,VWS V14.01,2013-09-16 06:46:00,
2013-09-16 02:47:00,67.9,65.5,30.16,SSW,192,0.0,0.0,92,0.00,,---,0.00,VWS V14.01,2013-09-16 06:47:00,
2013-09-16 02:48:00,67.9,65.5,30.16,SSW,192,0.0,0.0,92,0.00,,---,0.00,VWS V14.01,2013-09-16 06:48:00,
2013-09-16 02:49:00,67.9,65.5,30.16,SSW,192,0.0,0.0,92,0.00,,---,0.00,VWS V14.01,2013-09-16 06:49:00,
2013-09-16 02:50:00,67.9,65.5,30.16,SSW,193,0.0,0.0,92,0.00,,---,0.00,VWS V14.01,2013-09-16 06:50:00,
2013-09-16 02:51:00,67.8,65.4,30.15,SSW,192,0.0,0.0,92,0.00,,---,0.00,VWS V14.01,2013-09-16 06:51:00,
2013-09-16 02:52:00,67.8,65.4,30.16,SSW,192,0.0,0.0,92,0.00,,---,0.00,VWS V14.01,2013-09-16 06:52:00,
2013-09-16 02:53:00,67.8,65.4,30.16,SSW,192,0.0,0.0,92,0.00,,---,0.00,VWS V14.01,2013-09-16 06:53:00,
2013-09-16 02:54:00,67.7,65.3,30.16,SSW,193,0.0,0.0,92,0.00,,---,0.00,VWS V14.01,2013-09-16 06:54:00,
2013-09-16 02:55:00,67.7,65.3,30.16,SSW,192,0.0,0.0,92,0.00,,---,0.00,VWS V14.01,2013-09-16 06:55:00,
2013-09-16 02:56:00,67.7,65.3,30.15,SSW,193,0.0,0.0,92,0.00,,---,0.00,VWS V14.01,2013-09-16 06:56:00,
2013-09-16 02:57:00,67.7,65.3,30.15,SSW,193,0.0,0.0,92,0.00,,---,0.00,VWS V14.01,2013-09-16 06:57:00,
2013-09-16 02:58:00,67.7,65.3,30.15,SSW,192,0.0,0.0,92,0.00,,---,0.00,VWS V14.01,2013-09-16 06:58:00,
2013-09-16 02:59:00,67.7,65.3,30.15,SSW,193,0.0,0.0,92,0.00,,---,0.00,VWS V14.01,2013-09-16 06:59:00,
2013-09-16 03:00:00,67.7,65.3,30.15,SSW,192,0.0,0.0,92,0.00,,---,0.00,VWS V14.01,2013-09-16 07:00:00,
2013-09-16 03:01:00,67.7,65.3,30.15,SSW,192,0.0,0.0,92,0.00,,---,0.00,VWS V14.01,2013-09-16 07:01:00,
2013-09-16 03:02:00,67.6,65.2,30.15,SSW,192,0.0,0.0,92,0.00,,---,0.00,VWS V14.01,2013-09-16 07:02:00,
2013-09-16 03:03:00,67.7,65.3,30.15,SSW,192,0.0,0.0,92,0.00,,---,0.00,VWS V14.01,2013-09-16 07:03:00,
2013-09-16 03:04:00,67.6,65.2,30.15,SSW,192,0.0,0.0,92,0.00,,---,0.00,VWS V14.01,2013-09-16 07:04:00,
2013-09-16 03:05:00,67.6,65.2,30.15,SSW,193,0.0,0.0,92,0.00,,---,0.00,VWS V14.01,2013-09-16 07:05:00,
2013-09-16 03:06:00,67.6,65.2,30.15,SSW,192,0.0,0.0,92,0.00,,---,0.00,VWS V14.01,2013-09-16 07:06:00,
2013-09-16 03:07:00,67.6,65.2,30.15,SSW,192,0.0,0.0,92,0.00,,---,0.00,VWS V14.01,2013-09-16 07:07:00,
2013-09-16 03:08:00,67.5,65.1,30.15,SSW,192,0.0,0.0,92,0.00,,---,0.00,VWS V14.01,2013-09-16 07:08:00,
2013-09-16 03:09:00,67.6,65.2,30.15,SSW,207,0.0,0.0,92,0.00,,---,0.00,VWS V14.01,2013-09-16 07:09:00,
2013-09-16 03:10:00,67.6,65.5,30.15,WSW,247,0.0,0.0,93,0.00,,---,0.00,VWS V14.01,2013-09-16 07:10:00,
2013-09-16 03:11:00,67.6,65.5,30.16,WSW,248,0.0,0.0,93,0.00,,---,0.00,VWS V14.01,2013-09-16 07:11:00,
2013-09-16 03:12:00,67.6,65.5,30.16,WSW,247,0.0,0.0,93,0.00,,---,0.00,VWS V14.01,2013-09-16 07:12:00,
2013-09-16 03:13:00,67.6,65.5,30.15,WSW,247,0.0,0.0,93,0.00,,---,0.00,VWS V14.01,2013-09-16 07:13:00,
2013-09-16 03:14:00,67.6,65.5,30.16,WSW,247,0.0,0.0,93,0.00,,---,0.00,VWS V14.01,2013-09-16 07:14:00,
2013-09-16 03:15:00,67.6,65.5,30.15,WSW,247,0.0,0.0,93,0.00,,---,0.00,VWS V14.01,2013-09-16 07:15:00,
2013-09-16 03:16:00,67.6,65.5,30.15,WSW,248,0.0,0.0,93,0.00,,---,0.00,VWS V14.01,2013-09-16 07:16:00,
2013-09-16 03:17:00,67.5,65.4,30.15,WSW,247,0.0,0.0,93,0.00,,---,0.00,VWS V14.01,2013-09-16 07:17:00,
2013-09-16 03:18:00,67.5,65.4,30.16,WSW,248,0.0,0.0,93,0.00,,---,0.00,VWS V14.01,2013-09-16 07:18:00,
2013-09-16 03:19:00,67.5,65.4,30.15,WSW,248,0.0,0.0,93,0.00,,---,0.00,VWS V14.01,2013-09-16 07:19:00,
2013-09-16 03:20:00,67.5,65.4,30.16,WSW,247,0.0,0.0,93,0.00,,---,0.00,VWS V14.01,2013-09-16 07:20:00,
2013-09-16 03:21:00,67.5,65.4,30.15,WSW,248,0.0,0.0,93,0.00,,---,0.00,VWS V14.01,2013-09-16 07:21:00,
2013-09-16 03:22:00,67.5,65.4,30.15,WSW,248,0.0,0.0,93,0.00,,---,0.00,VWS V14.01,2013-09-16 07:22:00,
2013-09-16 03:23:00,67.5,65.4,30.15,WSW,248,0.0,0.0,93,0.00,,---,0.00,VWS V14.01,2013-09-16 07:23:00,
2013-09-16 03:24:00,67.5,65.4,30.16,SSW,206,0.0,0.0,93,0.00,,---,0.00,VWS V14.01,2013-09-16 07:24:00,
2013-09-16 03:25:00,67.5,65.4,30.15,WSW,238,0.0,0.0,93,0.00,,---,0.00,VWS V14.01,2013-09-16 07:25:00,
2013-09-16 03:26:00,67.5,65.4,30.15,WSW,238,0.0,0.0,93,0.00,,---,0.00,VWS V14.01,2013-09-16 07:26:00,
2013-09-16 03:27:00,67.5,65.4,30.15,WSW,238,0.0,0.0,93,0.00,,---,0.00,VWS V14.01,2013-09-16 07:27:00,
2013-09-16 03:28:00,67.5,65.4,30.15,WSW,238,0.0,0.0,93,0.00,,---,0.00,VWS V14.01,2013-09-16 07:28:00,
2013-09-16 03:29:00,67.5,65.4,30.15,WSW,238,0.0,0.0,93,0.00,,---,0.00,VWS V14.01,2013-09-16 07:29:00,
2013-09-16 03:30:00,67.5,65.4,30.15,WSW,238,0.0,0.0,93,0.00,,---,0.00,VWS V14.01,2013-09-16 07:30:00,
2013-09-16 03:31:00,67.5,65.4,30.15,WSW,238,0.0,0.0,93,0.00,,---,0.00,VWS V14.01,2013-09-16 07:31:00,
2013-09-16 03:32:00,67.5,65.4,30.15,WSW,238,0.0,0.0,93,0.00,,---,0.00,VWS V14.01,2013-09-16 07:32:00,
2013-09-16 03:33:00,67.5,65.4,30.15,WSW,238,0.0,0.0,93,0.00,,---,0.00,VWS V14.01,2013-09-16 07:33:00,
2013-09-16 03:34:00,67.5,65.4,30.15,WSW,238,0.0,0.0,93,0.00,,---,0.00,VWS V14.01,2013-09-16 07:34:00,
2013-09-16 03:35:00,67.5,65.4,30.15,WSW,238,0.0,0.0,93,0.00,,---,0.00,VWS V14.01,2013-09-16 07:35:00,
2013-09-16 03:36:00,67.5,65.4,30.15,WSW,238,0.0,0.0,93,0.00,,---,0.00,VWS V14.01,2013-09-16 07:36:00,
2013-09-16 03:37:00,67.5,65.4,30.15,WSW,238,0.0,0.0,93,0.00,,---,0.00,VWS V14.01,2013-09-16 07:37:00,
2013-09-16 03:38:00,67.5,65.4,30.15,WSW,238,0.0,0.0,93,0.00,,---,0.00,VWS V14.01,2013-09-16 07:38:00,
2013-09-16 03:39:00,67.5,65.4,30.15,WSW,238,0.0,0.0,93,0.00,,---,0.00,VWS V14.01,2013-09-16 07:39:00,
2013-09-16 03:40:00,67.5,65.4,30.15,WSW,238,0.0,0.0,93,0.00,,---,0.00,VWS V14.01,2013-09-16 07:40:00,
2013-09-16 03:41:00,67.5,65.4,30.15,West,267,1.0,1.0,93,0.00,,---,0.00,VWS V14.01,2013-09-16 07:41:00,
2013-09-16 03:42:00,67.6,65.5,30.15,West,268,1.0,1.0,93,0.00,,---,0.00,VWS V14.01,2013-09-16 07:42:00,
2013-09-16 03:43:00,67.6,65.5,30.15,West,268,0.0,1.0,93,0.00,,---,0.00,VWS V14.01,2013-09-16 07:43:00,
2013-09-16 03:44:00,67.6,65.5,30.15,West,260,1.0,1.0,93,0.00,,---,0.00,VWS V14.01,2013-09-16 07:44:00,
2013-09-16 03:45:00,67.6,65.8,30.15,SSW,211,1.0,2.0,94,0.00,,---,0.00,VWS V14.01,2013-09-16 07:45:00,
2013-09-16 03:46:00,67.7,65.9,30.15,WSW,249,0.0,1.0,94,0.00,,---,0.00,VWS V14.01,2013-09-16 07:46:00,
2013-09-16 03:47:00,67.7,65.9,30.15,WSW,249,0.0,1.0,94,0.00,,---,0.00,VWS V14.01,2013-09-16 07:47:00,
2013-09-16 03:48:00,67.7,65.9,30.15,South,169,1.0,3.0,94,0.00,,---,0.00,VWS V14.01,2013-09-16 07:48:00,
2013-09-16 03:49:00,67.7,65.6,30.15,SW,233,2.0,2.0,93,0.00,,---,0.00,VWS V14.01,2013-09-16 07:49:00,
2013-09-16 03:50:00,67.7,65.6,30.15,SW,226,0.0,2.0,93,0.00,,---,0.00,VWS V14.01,2013-09-16 07:50:00,
2013-09-16 03:51:00,67.8,66.0,30.15,SSE,167,0.0,1.0,94,0.00,,---,0.00,VWS V14.01,2013-09-16 07:51:00,
2013-09-16 03:52:00,67.8,66.0,30.15,SSE,167,0.0,1.0,94,0.00,,---,0.00,VWS V14.01,2013-09-16 07:52:00,
2013-09-16 03:53:00,67.8,65.7,30.15,SW,214,0.0,1.0,93,0.00,,---,0.00,VWS V14.01,2013-09-16 07:53:00,
2013-09-16 03:54:00,67.8,65.7,30.15,SW,214,0.0,0.0,93,0.00,,---,0.00,VWS V14.01,2013-09-16 07:54:00,
2013-09-16 03:55:00,67.8,65.7,30.15,SSW,205,0.0,2.0,93,0.00,,---,0.00,VWS V14.01,2013-09-16 07:55:00,
2013-09-16 03:56:00,67.9,66.1,30.15,SSW,209,1.0,1.0,94,0.00,,---,0.00,VWS V14.01,2013-09-16 07:56:00,
2013-09-16 03:57:00,67.9,66.1,30.15,WSW,240,2.0,2.0,94,0.00,,---,0.00,VWS V14.01,2013-09-16 07:57:00,
2013-09-16 03:58:00,67.9,66.1,30.15,WSW,248,2.0,2.0,94,0.00,,---,0.00,VWS V14.01,2013-09-16 07:58:00,
2013-09-16 03:59:00,67.9,66.1,30.15,SW,229,1.0,2.0,94,0.00,,---,0.00,VWS V14.01,2013-09-16 07:59:00,
2013-09-16 04:00:00,67.9,65.8,30.15,WSW,237,0.0,1.0,93,0.00,,---,0.00,VWS V14.01,2013-09-16 08:00:00,
2013-09-16 04:01:00,67.9,65.8,30.15,SW,226,0.0,1.0,93,0.00,,---,0.00,VWS V14.01,2013-09-16 08:01:00,
2013-09-16 04:02:00,67.9,65.8,30.15,SW,226,0.0,1.0,93,0.00,,---,0.00,VWS V14.01,2013-09-16 08:02:00,
2013-09-16 04:03:00,67.9,65.8,30.14,SW,226,0.0,0.0,93,0.00,,---,0.00,VWS V14.01,2013-09-16 08:03:00,
2013-09-16 04:04:00,67.9,65.8,30.14,South,173,3.0,3.0,93,0.00,,---,0.00,VWS V14.01,2013-09-16 08:04:00,
2013-09-16 04:05:00,67.9,65.8,30.14,SSE,164,0.0,3.0,93,0.00,,---,0.00,VWS V14.01,2013-09-16 08:05:00,
2013-09-16 04:06:00,67.9,65.8,30.14,WSW,246,0.0,0.0,93,0.00,,---,0.00,VWS V14.01,2013-09-16 08:06:00,
2013-09-16 04:07:00,67.9,65.8,30.14,WSW,248,0.0,0.0,93,0.00,,---,0.00,VWS V14.01,2013-09-16 08:07:00,
2013-09-16 04:08:00,67.9,65.8,30.15,WSW,248,0.0,0.0,93,0.00,,---,0.00,VWS V14.01,2013-09-16 08:08:00,
2013-09-16 04:09:00,67.9,65.8,30.15,WSW,245,0.0,0.0,93,0.00,,---,0.00,VWS V14.01,2013-09-16 08:09:00,
2013-09-16 04:10:00,67.9,65.8,30.15,WSW,245,0.0,0.0,93,0.00,,---,0.00,VWS V14.01,2013-09-16 08:10:00,
2013-09-16 04:11:00,67.9,66.1,30.15,SW,218,0.0,0.0,94,0.00,,---,0.00,VWS V14.01,2013-09-16 08:11:00,
2013-09-16 04:12:00,67.9,66.1,30.15,SW,233,0.0,0.0,94,0.00,,---,0.00,VWS V14.01,2013-09-16 08:12:00,
2013-09-16 04:13:00,67.9,66.1,30.15,SW,230,1.0,1.0,94,0.00,,---,0.00,VWS V14.01,2013-09-16 08:13:00,
2013-09-16 04:14:00,67.9,66.1,30.15,SW,229,1.0,1.0,94,0.00,,---,0.00,VWS V14.01,2013-09-16 08:14:00,
2013-09-16 04:15:00,67.9,66.1,30.15,SW,228,1.0,2.0,94,0.00,,---,0.00,VWS V14.01,2013-09-16 08:15:00,
2013-09-16 04:16:00,67.9,66.1,30.15,WSW,246,0.0,0.0,94,0.00,,---,0.00,VWS V14.01,2013-09-16 08:16:00,
2013-09-16 04:17:00,67.9,66.1,30.15,WSW,246,0.0,0.0,94,0.00,,---,0.00,VWS V14.01,2013-09-16 08:17:00,
2013-09-16 04:18:00,67.9,66.1,30.15,WSW,247,0.0,0.0,94,0.00,,---,0.00,VWS V14.01,2013-09-16 08:18:00,
2013-09-16 04:19:00,67.9,66.1,30.15,WSW,245,1.0,1.0,94,0.00,,---,0.00,VWS V14.01,2013-09-16 08:19:00,
2013-09-16 04:20:00,67.9,66.1,30.15,SW,217,1.0,1.0,94,0.00,,---,0.00,VWS V14.01,2013-09-16 08:20:00,
2013-09-16 04:21:00,68.0,66.2,30.14,SSE,158,1.0,2.0,94,0.00,,---,0.00,VWS V14.01,2013-09-16 08:21:00,
2013-09-16 04:22:00,67.9,66.1,30.14,SSE,163,1.0,2.0,94,0.00,,---,0.00,VWS V14.01,2013-09-16 08:22:00,
2013-09-16 04:23:00,67.9,66.1,30.15,SSW,209,1.0,2.0,94,0.00,,---,0.00,VWS V14.01,2013-09-16 08:23:00,
2013-09-16 04:24:00,68.0,66.2,30.15,WSW,256,0.0,1.0,94,0.00,,---,0.00,VWS V14.01,2013-09-16 08:24:00,
2013-09-16 04:25:00,68.0,66.2,30.15,WSW,256,0.0,1.0,94,0.00,,---,0.00,VWS V14.01,2013-09-16 08:25:00,
2013-09-16 04:26:00,68.0,66.2,30.15,SW,214,0.0,0.0,94,0.00,,---,0.00,VWS V14.01,2013-09-16 08:26:00,
2013-09-16 04:27:00,68.0,66.2,30.15,SW,222,0.0,0.0,94,0.00,,---,0.00,VWS V14.01,2013-09-16 08:27:00,
2013-09-16 04:28:00,68.0,66.2,30.14,SW,225,0.0,0.0,94,0.00,,---,0.00,VWS V14.01,2013-09-16 08:28:00,
2013-09-16 04:29:00,68.0,66.2,30.14,South,191,0.0,0.0,94,0.00,,---,0.00,VWS V14.01,2013-09-16 08:29:00,
2013-09-16 04:30:00,68.0,66.2,30.14,SSW,206,0.0,0.0,94,0.00,,---,0.00,VWS V14.01,2013-09-16 08:30:00,
2013-09-16 04:31:00,67.9,66.1,30.14,SSW,202,2.0,2.0,94,0.00,,---,0.00,VWS V14.01,2013-09-16 08:31:00,
2013-09-16 04:32:00,68.0,66.2,30.14,SSW,199,1.0,2.0,94,0.00,,---,0.00,VWS V14.01,2013-09-16 08:32:00,
2013-09-16 04:34:00,67.9,66.1,30.14,SSW,211,1.0,2.0,94,0.00,,---,0.00,VWS V14.01,2013-09-16 08:34:00,
2013-09-16 04:35:00,67.9,66.1,30.14,West,277,1.0,1.0,94,0.00,,---,0.00,VWS V14.01,2013-09-16 08:35:00,
2013-09-16 04:36:00,67.9,66.1,30.15,SSW,205,2.0,3.0,94,0.00,,---,0.00,VWS V14.01,2013-09-16 08:36:00,
2013-09-16 04:37:00,67.9,66.1,30.15,SW,227,1.0,3.0,94,0.00,,---,0.00,VWS V14.01,2013-09-16 08:37:00,
2013-09-16 04:38:00,67.9,66.1,30.15,WSW,237,2.0,2.0,94,0.00,,---,0.00,VWS V14.01,2013-09-16 08:38:00,
2013-09-16 04:39:00,67.9,66.1,30.15,SSW,195,2.0,3.0,94,0.00,,---,0.00,VWS V14.01,2013-09-16 08:39:00,
2013-09-16 04:40:00,67.9,66.1,30.15,SSW,192,1.0,2.0,94,0.00,,---,0.00,VWS V14.01,2013-09-16 08:40:00,
2013-09-16 04:41:00,67.9,66.1,30.14,SW,230,1.0,2.0,94,0.00,,---,0.00,VWS V14.01,2013-09-16 08:41:00,
2013-09-16 04:42:00,67.9,66.1,30.14,SW,230,1.0,2.0,94,0.00,,---,0.00,VWS V14.01,2013-09-16 08:42:00,
2013-09-16 04:43:00,67.9,66.1,30.14,SW,230,0.0,1.0,94,0.00,,---,0.00,VWS V14.01,2013-09-16 08:43:00,
2013-09-16 04:44:00,67.9,66.1,30.14,SSW,209,1.0,1.0,94,0.00,,---,0.00,VWS V14.01,2013-09-16 08:44:00,
2013-09-16 04:45:00,67.9,66.1,30.14,SW,226,1.0,2.0,94,0.00,,---,0.00,VWS V14.01,2013-09-16 08:45:00,
2013-09-16 04:46:00,67.9,66.1,30.14,SW,226,0.0,0.0,94,0.00,,---,0.00,VWS V14.01,2013-09-16 08:46:00,
2013-09-16 04:47:00,67.9,66.1,30.14,SW,226,0.0,0.0,94,0.00,,---,0.00,VWS V14.01,2013-09-16 08:47:00,
2013-09-16 04:48:00,67.9,66.1,30.14,SW,227,0.0,0.0,94,0.00,,---,0.00,VWS V14.01,2013-09-16 08:48:00,
2013-09-16 04:49:00,67.9,66.1,30.14,SW,225,0.0,0.0,94,0.00,,---,0.00,VWS V14.01,2013-09-16 08:49:00,
2013-09-16 04:50:00,67.9,66.1,30.14,WSW,237,2.0,4.0,94,0.00,,---,0.00,VWS V14.01,2013-09-16 08:50:00,
2013-09-16 04:51:00,67.9,66.1,30.14,SW,219,0.0,1.0,94,0.00,,---,0.00,VWS V14.01,2013-09-16 08:51:00,
2013-09-16 04:52:00,67.9,66.1,30.14,SW,219,0.0,1.0,94,0.00,,---,0.00,VWS V14.01,2013-09-16 08:52:00,
2013-09-16 04:53:00,67.9,66.1,30.15,SW,217,3.0,3.0,94,0.00,,---,0.00,VWS V14.01,2013-09-16 08:53:00,
2013-09-16 04:54:00,67.9,66.1,30.15,SSW,206,1.0,3.0,94,0.00,,---,0.00,VWS V14.01,2013-09-16 08:54:00,
2013-09-16 04:55:00,67.9,66.1,30.15,SW,236,2.0,3.0,94,0.00,,---,0.00,VWS V14.01,2013-09-16 08:55:00,
2013-09-16 04:56:00,67.9,66.1,30.14,South,169,2.0,2.0,94,0.00,,---,0.00,VWS V14.01,2013-09-16 08:56:00,
2013-09-16 04:57:00,67.9,66.1,30.14,South,186,2.0,2.0,94,0.00,,---,0.00,VWS V14.01,2013-09-16 08:57:00,
2013-09-16 04:58:00,67.9,66.1,30.14,WSW,242,0.0,2.0,94,0.00,,---,0.00,VWS V14.01,2013-09-16 08:58:00,
2013-09-16 04:59:00,67.9,66.1,30.14,West,265,0.0,2.0,94,0.00,,---,0.00,VWS V14.01,2013-09-16 08:59:00,
2013-09-16 05:00:00,67.9,66.1,30.15,West,265,1.0,1.0,94,0.00,,---,0.00,VWS V14.01,2013-09-16 09:00:00,
2013-09-16 05:01:00,67.9,66.1,30.14,WSW,238,0.0,2.0,94,0.00,,---,0.00,VWS V14.01,2013-09-16 09:01:00,
2013-09-16 05:02:00,67.9,66.1,30.14,WSW,238,1.0,2.0,94,0.00,,---,0.00,VWS V14.01,2013-09-16 09:02:00,
2013-09-16 05:03:00,67.9,66.1,30.14,SSW,210,2.0,2.0,94,0.00,,---,0.00,VWS V14.01,2013-09-16 09:03:00,
2013-09-16 05:04:00,67.9,66.4,30.15,WSW,245,2.0,4.0,95,0.00,,---,0.00,VWS V14.01,2013-09-16 09:04:00,
2013-09-16 05:05:00,67.9,66.4,30.14,SSW,194,3.0,3.0,95,0.00,,---,0.00,VWS V14.01,2013-09-16 09:05:00,
2013-09-16 05:06:00,67.9,66.4,30.14,SSW,199,0.0,1.0,95,0.00,,---,0.00,VWS V14.01,2013-09-16 09:06:00,
2013-09-16 05:07:00,67.9,66.4,30.14,NW,306,0.0,1.0,95,0.00,,---,0.00,VWS V14.01,2013-09-16 09:07:00,
2013-09-16 05:08:00,67.9,66.4,30.14,SW,234,1.0,1.0,95,0.00,,---,0.00,VWS V14.01,2013-09-16 09:08:00,
2013-09-16 05:09:00,67.9,66.4,30.14,SSW,202,2.0,2.0,95,0.00,,---,0.00,VWS V14.01,2013-09-16 09:09:00,
2013-09-16 05:10:00,67.9,66.4,30.14,SSW,202,1.0,2.0,95,0.00,,---,0.00,VWS V14.01,2013-09-16 09:10:00,
2013-09-16 05:11:00,67.9,66.4,30.15,South,188,2.0,2.0,95,0.00,,---,0.00,VWS V14.01,2013-09-16 09:11:00,
2013-09-16 05:12:00,67.9,66.4,30.15,South,188,0.0,2.0,95,0.00,,---,0.00,VWS V14.01,2013-09-16 09:12:00,
2013-09-16 05:13:00,67.9,66.4,30.14,South,187,0.0,0.0,95,0.00,,---,0.00,VWS V14.01,2013-09-16 09:13:00,
2013-09-16 05:14:00,67.9,66.4,30.14,South,187,0.0,0.0,95,0.00,,---,0.00,VWS V14.01,2013-09-16 09:14:00,
2013-09-16 05:15:00,67.9,66.4,30.14,South,187,0.0,0.0,95,0.00,,---,0.00,VWS V14.01,2013-09-16 09:15:00,
2013-09-16 05:16:00,67.9,66.4,30.14,WSW,240,0.0,2.0,95,0.00,,---,0.00,VWS V14.01,2013-09-16 09:16:00,
2013-09-16 05:17:00,67.9,66.4,30.14,WSW,240,0.0,2.0,95,0.00,,---,0.00,VWS V14.01,2013-09-16 09:17:00,
2013-09-16 05:18:00,67.9,66.4,30.14,SW,218,2.0,2.0,95,0.00,,---,0.00,VWS V14.01,2013-09-16 09:18:00,
2013-09-16 05:19:00,68.0,66.5,30.14,South,176,1.0,2.0,95,0.00,,---,0.00,VWS V14.01,2013-09-16 09:19:00,
2013-09-16 05:20:00,68.0,66.5,30.14,SSW,211,2.0,2.0,95,0.00,,---,0.00,VWS V14.01,2013-09-16 09:20:00,
2013-09-16 05:21:00,68.0,66.5,30.14,WSW,238,1.0,4.0,95,0.00,,---,0.00,VWS V14.01,2013-09-16 09:21:00,
2013-09-16 05:22:00,68.1,66.6,30.14,WSW,238,1.0,4.0,95,0.00,,---,0.00,VWS V14.01,2013-09-16 09:22:00,
2013-09-16 05:23:00,68.1,66.6,30.14,SW,224,1.0,2.0,95,0.00,,---,0.00,VWS V14.01,2013-09-16 09:23:00,
2013-09-16 05:24:00,68.1,66.6,30.14,WSW,250,3.0,3.0,95,0.00,,---,0.00,VWS V14.01,2013-09-16 09:24:00,
2013-09-16 05:25:00,68.1,66.6,30.14,SW,215,1.0,3.0,95,0.00,,---,0.00,VWS V14.01,2013-09-16 09:25:00,
2013-09-16 05:26:00,68.2,66.7,30.14,SW,233,1.0,2.0,95,0.00,,---,0.00,VWS V14.01,2013-09-16 09:26:00,
2013-09-16 05:27:00,68.2,66.7,30.14,SW,219,2.0,4.0,95,0.00,,---,0.00,VWS V14.01,2013-09-16 09:27:00,
2013-09-16 05:28:00,68.3,66.8,30.14,WSW,237,4.0,4.0,95,0.00,,---,0.00,VWS V14.01,2013-09-16 09:28:00,
2013-09-16 05:29:00,68.3,66.8,30.14,WSW,248,1.0,4.0,95,0.00,,---,0.00,VWS V14.01,2013-09-16 09:29:00,
2013-09-16 05:30:00,68.3,66.8,30.14,West,261,1.0,2.0,95,0.00,,---,0.00,VWS V14.01,2013-09-16 09:30:00,
2013-09-16 05:31:00,68.4,66.9,30.14,WSW,250,0.0,1.0,95,0.00,,---,0.00,VWS V14.01,2013-09-16 09:31:00,
2013-09-16 05:32:00,68.4,66.9,30.14,WSW,250,1.0,1.0,95,0.00,,---,0.00,VWS V14.01,2013-09-16 09:32:00,
2013-09-16 05:34:00,68.4,66.9,30.14,SSW,203,1.0,3.0,95,0.00,,---,0.00,VWS V14.01,2013-09-16 09:34:00,
2013-09-16 05:35:00,68.4,66.9,30.14,SW,229,1.0,2.0,95,0.00,,---,0.00,VWS V14.01,2013-09-16 09:35:00,
2013-09-16 05:36:00,68.5,67.0,30.14,SSE,167,2.0,4.0,95,0.00,,---,0.00,VWS V14.01,2013-09-16 09:36:00,
2013-09-16 05:37:00,68.5,67.0,30.14,SSE,157,1.0,4.0,95,0.00,,---,0.00,VWS V14.01,2013-09-16 09:37:00,
2013-09-16 05:38:00,68.5,67.0,30.14,WSW,248,1.0,2.0,95,0.00,,---,0.00,VWS V14.01,2013-09-16 09:38:00,
2013-09-16 05:39:00,68.5,67.0,30.14,West,261,1.0,2.0,95,0.00,,---,0.00,VWS V14.01,2013-09-16 09:39:00,
2013-09-16 05:40:00,68.6,67.1,30.14,West,261,0.0,1.0,95,0.00,,---,0.00,VWS V14.01,2013-09-16 09:40:00,
2013-09-16 05:41:00,68.6,67.1,30.14,WSW,247,4.0,4.0,95,0.00,,---,0.00,VWS V14.01,2013-09-16 09:41:00,
2013-09-16 05:42:00,68.6,67.1,30.14,WSW,245,1.0,4.0,95,0.00,,---,0.00,VWS V14.01,2013-09-16 09:42:00,
2013-09-16 05:43:00,68.6,67.1,30.14,WSW,250,2.0,2.0,95,0.00,,---,0.00,VWS V14.01,2013-09-16 09:43:00,
2013-09-16 05:44:00,68.6,67.1,30.14,SW,236,0.0,3.0,95,0.00,,---,0.00,VWS V14.01,2013-09-16 09:44:00,
2013-09-16 05:45:00,68.6,67.1,30.14,SW,236,0.0,0.0,95,0.00,,---,0.00,VWS V14.01,2013-09-16 09:45:00,
2013-09-16 05:46:00,68.6,67.1,30.14,WNW,298,2.0,2.0,95,0.00,,---,0.00,VWS V14.01,2013-09-16 09:46:00,
2013-09-16 05:47:00,68.7,67.2,30.14,West,271,1.0,2.0,95,0.00,,---,0.00,VWS V14.01,2013-09-16 09:47:00,
2013-09-16 05:48:00,68.7,67.2,30.14,West,271,1.0,1.0,95,0.00,,---,0.00,VWS V14.01,2013-09-16 09:48:00,
2013-09-16 05:49:00,68.7,67.2,30.15,WSW,257,1.0,2.0,95,0.00,,---,0.00,VWS V14.01,2013-09-16 09:49:00,
2013-09-16 05:50:00,68.7,67.2,30.15,West,271,2.0,3.0,95,0.00,,---,0.00,VWS V14.01,2013-09-16 09:50:00,
2013-09-16 05:51:00,68.7,67.2,30.14,West,268,2.0,2.0,95,0.00,,---,0.00,VWS V14.01,2013-09-16 09:51:00,
2013-09-16 05:52:00,68.7,67.2,30.14,West,271,1.0,2.0,95,0.00,,---,0.00,VWS V14.01,2013-09-16 09:52:00,
2013-09-16 05:53:00,68.8,67.3,30.14,West,271,1.0,1.0,95,0.00,,---,0.00,VWS V14.01,2013-09-16 09:53:00,
2013-09-16 05:54:00,68.7,67.2,30.14,West,272,1.0,1.0,95,0.00,,---,0.00,VWS V14.01,2013-09-16 09:54:00,
2013-09-16 05:56:00,68.8,67.3,30.14,West,261,0.0,1.0,95,0.00,,---,0.00,VWS V14.01,2013-09-16 09:56:00,
2013-09-16 05:57:00,68.8,67.3,30.14,West,272,1.0,1.0,95,0.00,,---,0.00,VWS V14.01,2013-09-16 09:57:00,
2013-09-16 05:58:00,68.8,67.3,30.14,West,275,2.0,2.0,95,0.00,,---,0.00,VWS V14.01,2013-09-16 09:58:00,
2013-09-16 05:59:00,68.8,67.3,30.14,West,264,2.0,2.0,95,0.00,,---,0.00,VWS V14.01,2013-09-16 09:59:00,
2013-09-16 06:00:00,68.9,67.4,30.14,West,278,2.0,2.0,95,0.00,,---,0.00,VWS V14.01,2013-09-16 10:00:00,
2013-09-16 06:01:00,68.9,67.4,30.14,West,279,0.0,0.0,95,0.00,,---,0.00,VWS V14.01,2013-09-16 10:01:00,
2013-09-16 06:02:00,68.9,67.4,30.14,West,278,0.0,0.0,95,0.00,,---,0.00,VWS V14.01,2013-09-16 10:02:00,
2013-09-16 06:03:00,68.9,67.4,30.14,SSW,213,0.0,1.0,95,0.00,,---,0.00,VWS V14.01,2013-09-16 10:03:00,
2013-09-16 06:04:00,68.9,67.4,30.14,WSW,242,2.0,2.0,95,0.00,,---,0.00,VWS V14.01,2013-09-16 10:04:00,
2013-09-16 06:05:00,68.9,67.4,30.14,WSW,242,0.0,2.0,95,0.00,,---,0.00,VWS V14.01,2013-09-16 10:05:00,
2013-09-16 06:06:00,68.9,67.4,30.14,WSW,242,0.0,0.0,95,0.00,,---,0.00,VWS V14.01,2013-09-16 10:06:00,
2013-09-16 06:07:00,68.9,67.4,30.14,WSW,242,0.0,0.0,95,0.00,,---,0.00,VWS V14.01,2013-09-16 10:07:00,
2013-09-16 06:08:00,68.9,67.4,30.14,WSW,242,0.0,0.0,95,0.00,,---,0.00,VWS V14.01,2013-09-16 10:08:00,
2013-09-16 06:09:00,68.9,67.4,30.14,WSW,240,0.0,0.0,95,0.00,,---,0.00,VWS V14.01,2013-09-16 10:09:00,
2013-09-16 06:10:00,68.9,67.4,30.14,South,190,2.0,2.0,95,0.00,,---,0.00,VWS V14.01,2013-09-16 10:10:00,
2013-09-16 06:11:00,68.9,67.4,30.13,SW,236,0.0,0.0,95,0.00,,---,0.00,VWS V14.01,2013-09-16 10:11:00,
2013-09-16 06:12:00,69.0,67.5,30.13,WSW,242,1.0,1.0,95,0.00,,---,0.00,VWS V14.01,2013-09-16 10:12:00,
2013-09-16 06:13:00,68.9,67.4,30.14,West,261,0.0,1.0,95,0.00,,---,0.00,VWS V14.01,2013-09-16 10:13:00,
2013-09-16 06:14:00,69.0,67.5,30.14,West,261,0.0,0.0,95,0.00,,---,0.00,VWS V14.01,2013-09-16 10:14:00,
2013-09-16 06:15:00,69.0,67.5,30.14,West,261,1.0,1.0,95,0.00,,---,0.00,VWS V14.01,2013-09-16 10:15:00,
2013-09-16 06:16:00,69.0,67.5,30.14,West,261,0.0,0.0,95,0.00,,---,0.00,VWS V14.01,2013-09-16 10:16:00,
2013-09-16 06:17:00,69.0,67.5,30.14,West,261,0.0,1.0,95,0.00,,---,0.00,VWS V14.01,2013-09-16 10:17:00,
2013-09-16 06:18:00,69.0,67.5,30.14,West,261,0.0,0.0,95,0.00,,---,0.00,VWS V14.01,2013-09-16 10:18:00,
2013-09-16 06:19:00,69.0,67.5,30.14,SSW,209,2.0,3.0,95,0.00,,---,0.00,VWS V14.01,2013-09-16 10:19:00,
2013-09-16 06:20:00,69.0,67.5,30.14,West,261,3.0,3.0,95,0.00,,---,0.00,VWS V14.01,2013-09-16 10:20:00,
2013-09-16 06:21:00,69.0,67.5,30.14,West,269,1.0,2.0,95,0.00,,---,0.00,VWS V14.01,2013-09-16 10:21:00,
2013-09-16 06:22:00,69.0,67.5,30.14,SW,230,1.0,2.0,95,0.00,,---,0.00,VWS V14.01,2013-09-16 10:22:00,
2013-09-16 06:23:00,69.0,67.5,30.14,SSW,194,1.0,2.0,95,0.00,,---,0.00,VWS V14.01,2013-09-16 10:23:00,
2013-09-16 06:24:00,69.0,67.5,30.14,SSE,147,0.0,1.0,95,0.00,,---,0.00,VWS V14.01,2013-09-16 10:24:00,
2013-09-16 06:25:00,69.0,67.5,30.14,SSE,148,0.0,0.0,95,0.00,,---,0.00,VWS V14.01,2013-09-16 10:25:00,
2013-09-16 06:26:00,69.0,67.5,30.14,SSE,148,0.0,0.0,95,0.00,,---,0.00,VWS V14.01,2013-09-16 10:26:00,
2013-09-16 06:27:00,69.0,67.5,30.14,SSE,148,0.0,0.0,95,0.00,,---,0.00,VWS V14.01,2013-09-16 10:27:00,
2013-09-16 06:28:00,69.0,67.5,30.13,SSE,148,0.0,0.0,95,0.00,,---,0.00,VWS V14.01,2013-09-16 10:28:00,
2013-09-16 06:29:00,69.0,67.5,30.13,SSE,148,0.0,0.0,95,0.00,,---,0.00,VWS V14.01,2013-09-16 10:29:00,
2013-09-16 06:30:00,69.0,67.5,30.13,SSE,148,0.0,0.0,95,0.00,,---,0.00,VWS V14.01,2013-09-16 10:30:00,
2013-09-16 06:31:00,69.0,67.5,30.14,SSE,148,0.0,0.0,95,0.00,,---,0.00,VWS V14.01,2013-09-16 10:31:00,
2013-09-16 06:32:00,69.0,67.5,30.14,SSE,148,0.0,0.0,95,0.00,,---,0.00,VWS V14.01,2013-09-16 10:32:00,
2013-09-16 06:33:00,69.0,67.5,30.13,SSE,148,0.0,0.0,95,0.00,,---,0.00,VWS V14.01,2013-09-16 10:33:00,
2013-09-16 06:34:00,69.0,67.5,30.14,SSE,148,0.0,0.0,95,0.00,,---,0.00,VWS V14.01,2013-09-16 10:34:00,
2013-09-16 06:35:00,68.9,67.4,30.13,SSE,148,0.0,0.0,95,0.00,,---,0.00,VWS V14.01,2013-09-16 10:35:00,
2013-09-16 06:36:00,68.9,67.7,30.13,SSE,159,1.0,1.0,96,0.00,,---,0.00,VWS V14.01,2013-09-16 10:36:00,
2013-09-16 06:37:00,68.9,67.7,30.13,West,269,0.0,1.0,96,0.00,,---,0.00,VWS V14.01,2013-09-16 10:37:00,
2013-09-16 06:38:00,68.9,67.7,30.13,West,269,0.0,0.0,96,0.00,,---,0.00,VWS V14.01,2013-09-16 10:38:00,
2013-09-16 06:39:00,68.9,67.7,30.13,West,269,0.0,0.0,96,0.00,,---,0.00,VWS V14.01,2013-09-16 10:39:00,
2013-09-16 06:40:00,68.9,67.7,30.13,SW,217,0.0,0.0,96,0.00,,---,0.00,VWS V14.01,2013-09-16 10:40:00,
2013-09-16 06:41:00,68.9,67.7,30.13,SSW,192,0.0,0.0,96,0.00,,---,0.00,VWS V14.01,2013-09-16 10:41:00,
2013-09-16 06:42:00,69.0,67.8,30.13,SSW,199,0.0,0.0,96,0.00,,---,0.00,VWS V14.01,2013-09-16 10:42:00,
2013-09-16 06:43:00,69.0,67.8,30.13,SSW,199,0.0,0.0,96,0.00,,---,0.00,VWS V14.01,2013-09-16 10:43:00,
2013-09-16 06:44:00,69.0,67.8,30.13,SSW,199,0.0,0.0,96,0.00,,---,0.00,VWS V14.01,2013-09-16 10:44:00,
2013-09-16 06:45:00,69.0,67.8,30.13,West,280,0.0,0.0,96,0.00,,---,0.00,VWS V14.01,2013-09-16 10:45:00,
2013-09-16 06:46:00,69.0,67.8,30.13,West,261,2.0,2.0,96,0.00,,---,0.00,VWS V14.01,2013-09-16 10:46:00,
2013-09-16 06:47:00,69.0,67.8,30.13,WSW,254,2.0,3.0,96,0.00,,---,0.00,VWS V14.01,2013-09-16 10:47:00,
2013-09-16 06:48:00,69.0,67.8,30.14,WSW,252,1.0,3.0,96,0.01,,---,0.01,VWS V14.01,2013-09-16 10:48:00,
2013-09-16 06:49:00,69.0,67.8,30.14,WSW,237,1.0,2.0,96,0.02,,---,0.02,VWS V14.01,2013-09-16 10:49:00,
2013-09-16 06:50:00,69.0,67.8,30.14,SW,233,1.0,1.0,96,0.04,,---,0.04,VWS V14.01,2013-09-16 10:50:00,
2013-09-16 06:51:00,69.0,67.8,30.14,West,280,2.0,2.0,96,0.07,,---,0.07,VWS V14.01,2013-09-16 10:51:00,
2013-09-16 06:52:00,69.0,67.8,30.14,WNW,290,2.0,3.0,96,0.08,,---,0.08,VWS V14.01,2013-09-16 10:52:00,
2013-09-16 06:53:00,69.0,67.8,30.15,West,279,3.0,4.0,96,0.10,,---,0.10,VWS V14.01,2013-09-16 10:53:00,
2013-09-16 06:54:00,69.0,67.8,30.15,WSW,256,4.0,5.0,96,0.11,,---,0.11,VWS V14.01,2013-09-16 10:54:00,
2013-09-16 06:55:00,69.0,67.8,30.15,NW,325,3.0,5.0,96,0.13,,---,0.13,VWS V14.01,2013-09-16 10:55:00,
2013-09-16 06:56:00,69.0,67.8,30.15,WNW,300,2.0,3.0,96,0.16,,---,0.16,VWS V14.01,2013-09-16 10:56:00,
2013-09-16 06:57:00,69.0,67.8,30.15,NW,306,4.0,4.0,96,0.19,,---,0.19,VWS V14.01,2013-09-16 10:57:00,
2013-09-16 06:58:00,69.0,67.8,30.15,NW,305,1.0,4.0,96,0.23,,---,0.23,VWS V14.01,2013-09-16 10:58:00,
2013-09-16 06:59:00,69.0,67.8,30.15,West,269,8.0,8.0,96,0.25,,---,0.25,VWS V14.01,2013-09-16 10:59:00,
2013-09-16 07:00:00,69.0,67.8,30.16,West,273,4.0,8.0,96,0.31,,---,0.31,VWS V14.01,2013-09-16 11:00:00,
2013-09-16 07:01:00,68.9,67.7,30.16,West,261,8.0,8.0,96,0.35,,---,0.35,VWS V14.01,2013-09-16 11:01:00,
2013-09-16 07:02:00,68.8,67.3,30.16,WNW,283,2.0,8.0,95,0.39,,---,0.39,VWS V14.01,2013-09-16 11:02:00,
2013-09-16 07:03:00,68.6,67.1,30.16,West,269,2.0,5.0,95,0.43,,---,0.43,VWS V14.01,2013-09-16 11:03:00,
2013-09-16 07:04:00,68.5,67.0,30.15,NW,304,0.0,2.0,95,0.46,,---,0.46,VWS V14.01,2013-09-16 11:04:00,
2013-09-16 07:05:00,68.4,66.9,30.15,NW,304,0.0,0.0,95,0.47,,---,0.47,VWS V14.01,2013-09-16 11:05:00,
2013-09-16 07:06:00,68.4,66.9,30.15,SW,219,2.0,2.0,95,0.48,,---,0.48,VWS V14.01,2013-09-16 11:06:00,
2013-09-16 07:07:00,68.3,66.8,30.15,SW,227,2.0,3.0,95,0.48,,---,0.48,VWS V14.01,2013-09-16 11:07:00,
2013-09-16 07:08:00,68.2,66.7,30.16,SSW,213,0.0,4.0,95,0.48,,---,0.48,VWS V14.01,2013-09-16 11:08:00,
2013-09-16 07:09:00,68.1,66.6,30.16,West,268,1.0,2.0,95,0.48,,---,0.48,VWS V14.01,2013-09-16 11:09:00,
2013-09-16 07:10:00,68.0,66.5,30.16,West,281,2.0,4.0,95,0.49,,---,0.49,VWS V14.01,2013-09-16 11:10:00,
2013-09-16 07:11:00,67.9,66.4,30.15,WSW,258,1.0,1.0,95,0.51,,---,0.51,VWS V14.01,2013-09-16 11:11:00,
2013-09-16 07:12:00,67.9,66.4,30.15,SW,219,3.0,3.0,95,0.51,,---,0.51,VWS V14.01,2013-09-16 11:12:00,
2013-09-16 07:13:00,67.8,66.3,30.15,SW,222,0.0,3.0,95,0.52,,---,0.52,VWS V14.01,2013-09-16 11:13:00,
2013-09-16 07:14:00,67.7,66.2,30.15,WSW,248,1.0,1.0,95,0.52,,---,0.52,VWS V14.01,2013-09-16 11:14:00,
2013-09-16 07:15:00,67.7,66.2,30.16,SW,215,0.0,2.0,95,0.53,,---,0.53,VWS V14.01,2013-09-16 11:15:00,
2013-09-16 07:16:00,67.6,66.1,30.15,SSW,206,0.0,0.0,95,0.53,,---,0.53,VWS V14.01,2013-09-16 11:16:00,
2013-09-16 07:17:00,67.5,66.0,30.15,SSE,157,1.0,1.0,95,0.54,,---,0.54,VWS V14.01,2013-09-16 11:17:00,
2013-09-16 07:18:00,67.5,66.0,30.15,SW,223,2.0,2.0,95,0.54,,---,0.54,VWS V14.01,2013-09-16 11:18:00,
2013-09-16 07:19:00,67.4,65.9,30.15,SW,223,1.0,2.0,95,0.54,,---,0.54,VWS V14.01,2013-09-16 11:19:00,
2013-09-16 07:20:00,67.3,65.8,30.15,SW,217,1.0,1.0,95,0.54,,---,0.54,VWS V14.01,2013-09-16 11:20:00,
2013-09-16 07:21:00,67.2,65.7,30.15,SSW,207,0.0,1.0,95,0.54,,---,0.54,VWS V14.01,2013-09-16 11:21:00,
2013-09-16 07:24:00,67.2,65.7,30.15,WSW,250,1.0,2.0,95,0.54,,---,0.54,VWS V14.01,2013-09-16 11:24:00,
2013-09-16 07:25:00,67.2,65.7,30.15,WSW,250,0.0,1.0,95,0.54,,---,0.54,VWS V14.01,2013-09-16 11:25:00,
2013-09-16 07:26:00,67.2,65.7,30.15,WSW,250,0.0,0.0,95,0.54,,---,0.54,VWS V14.01,2013-09-16 11:26:00,
2013-09-16 07:27:00,67.1,65.6,30.15,WSW,254,1.0,1.0,95,0.54,,---,0.54,VWS V14.01,2013-09-16 11:27:00,
2013-09-16 07:28:00,67.1,65.6,30.15,WSW,257,0.0,1.0,95,0.54,,---,0.54,VWS V14.01,2013-09-16 11:28:00,
2013-09-16 07:29:00,67.1,65.6,30.16,WSW,257,1.0,1.0,95,0.54,,---,0.54,VWS V14.01,2013-09-16 11:29:00,
2013-09-16 07:30:00,67.1,65.6,30.15,WSW,254,1.0,1.0,95,0.54,,---,0.54,VWS V14.01,2013-09-16 11:30:00,
2013-09-16 07:31:00,67.1,65.6,30.15,WSW,254,0.0,0.0,95,0.54,,---,0.54,VWS V14.01,2013-09-16 11:31:00,
2013-09-16 07:32:00,67.1,65.6,30.15,WSW,254,0.0,0.0,95,0.54,,---,0.54,VWS V14.01,2013-09-16 11:32:00,
2013-09-16 07:33:00,67.1,65.6,30.15,WSW,254,0.0,0.0,95,0.54,,---,0.54,VWS V14.01,2013-09-16 11:33:00,
2013-09-16 07:34:00,67.1,65.6,30.15,WSW,254,0.0,0.0,95,0.54,,---,0.54,VWS V14.01,2013-09-16 11:34:00,
2013-09-16 07:35:00,67.1,65.6,30.15,WSW,254,0.0,0.0,95,0.54,,---,0.54,VWS V14.01,2013-09-16 11:35:00,
2013-09-16 07:36:00,67.1,65.6,30.15,WSW,254,0.0,0.0,95,0.54,,---,0.54,VWS V14.01,2013-09-16 11:36:00,
2013-09-16 07:37:00,67.1,65.6,30.15,WSW,254,0.0,0.0,95,0.54,,---,0.54,VWS V14.01,2013-09-16 11:37:00,
2013-09-16 07:38:00,67.1,65.9,30.16,West,259,1.0,1.0,96,0.54,,---,0.54,VWS V14.01,2013-09-16 11:38:00,
2013-09-16 07:39:00,67.1,65.9,30.16,WSW,258,1.0,1.0,96,0.54,,---,0.54,VWS V14.01,2013-09-16 11:39:00,
2013-09-16 07:40:00,67.2,66.0,30.16,WSW,258,1.0,1.0,96,0.54,,---,0.54,VWS V14.01,2013-09-16 11:40:00,
2013-09-16 07:41:00,67.2,66.0,30.16,West,259,1.0,1.0,96,0.54,,---,0.54,VWS V14.01,2013-09-16 11:41:00,
2013-09-16 07:42:00,67.2,66.0,30.16,West,259,0.0,1.0,96,0.54,,---,0.54,VWS V14.01,2013-09-16 11:42:00,
2013-09-16 07:43:00,67.3,66.1,30.16,West,259,0.0,0.0,96,0.54,,---,0.54,VWS V14.01,2013-09-16 11:43:00,
2013-09-16 07:44:00,67.3,66.1,30.16,West,259,0.0,0.0,96,0.54,,---,0.54,VWS V14.01,2013-09-16 11:44:00,
2013-09-16 07:45:00,67.3,66.1,30.16,WSW,258,0.0,0.0,96,0.54,,---,0.54,VWS V14.01,2013-09-16 11:45:00,
2013-09-16 07:46:00,67.3,66.1,30.16,West,259,0.0,0.0,96,0.54,,---,0.54,VWS V14.01,2013-09-16 11:46:00,
2013-09-16 07:47:00,67.3,66.1,30.16,West,259,0.0,0.0,96,0.54,,---,0.54,VWS V14.01,2013-09-16 11:47:00,
2013-09-16 07:48:00,67.3,66.1,30.16,WSW,258,1.0,1.0,96,0.54,,---,0.54,VWS V14.01,2013-09-16 11:48:00,
2013-09-16 07:49:00,67.3,66.1,30.16,WSW,258,0.0,1.0,96,0.53,,---,0.54,VWS V14.01,2013-09-16 11:49:00,
2013-09-16 07:50:00,67.3,65.8,30.16,West,259,1.0,1.0,95,0.52,,---,0.54,VWS V14.01,2013-09-16 11:50:00,
2013-09-16 07:51:00,67.3,65.8,30.16,West,259,1.0,1.0,95,0.47,,---,0.54,VWS V14.01,2013-09-16 11:51:00,
2013-09-16 07:52:00,67.3,65.8,30.16,West,259,1.0,1.0,95,0.47,,---,0.54,VWS V14.01,2013-09-16 11:52:00,
2013-09-16 07:53:00,67.3,66.1,30.16,West,259,0.0,1.0,96,0.46,,---,0.54,VWS V14.01,2013-09-16 11:53:00,
2013-09-16 07:54:00,67.3,66.1,30.16,West,259,0.0,0.0,96,0.44,,---,0.54,VWS V14.01,2013-09-16 11:54:00,
2013-09-16 07:55:00,67.4,66.2,30.16,West,259,1.0,2.0,96,0.43,,---,0.54,VWS V14.01,2013-09-16 11:55:00,
2013-09-16 07:56:00,67.4,66.2,30.16,West,259,0.0,1.0,96,0.39,,---,0.54,VWS V14.01,2013-09-16 11:56:00,
2013-09-16 07:57:00,67.4,66.2,30.16,West,259,0.0,1.0,96,0.39,,---,0.54,VWS V14.01,2013-09-16 11:57:00,
2013-09-16 07:58:00,67.4,66.2,30.16,West,259,0.0,1.0,96,0.35,,---,0.54,VWS V14.01,2013-09-16 11:58:00,
2013-09-16 07:59:00,67.4,66.2,30.16,West,259,0.0,0.0,96,0.31,,---,0.54,VWS V14.01,2013-09-16 11:59:00,
2013-09-16 08:00:00,67.5,66.3,30.16,West,259,0.0,0.0,96,0.29,,---,0.54,VWS V14.01,2013-09-16 12:00:00,
2013-09-16 08:01:00,67.4,66.2,30.16,West,259,0.0,0.0,96,0.21,,---,0.54,VWS V14.01,2013-09-16 12:01:00,
2013-09-16 08:02:00,67.5,66.3,30.16,West,259,0.0,1.0,96,0.21,,---,0.54,VWS V14.01,2013-09-16 12:02:00,
2013-09-16 08:03:00,67.5,66.3,30.15,WSW,258,0.0,0.0,96,0.15,,---,0.54,VWS V14.01,2013-09-16 12:03:00,
2013-09-16 08:04:00,67.4,66.2,30.15,West,259,0.0,0.0,96,0.11,,---,0.54,VWS V14.01,2013-09-16 12:04:00,
2013-09-16 08:05:00,67.5,66.3,30.15,West,259,0.0,0.0,96,0.08,,---,0.54,VWS V14.01,2013-09-16 12:05:00,
2013-09-16 08:06:00,67.5,66.3,30.15,West,259,0.0,0.0,96,0.06,,---,0.54,VWS V14.01,2013-09-16 12:06:00,
2013-09-16 08:07:00,67.5,66.3,30.15,West,259,0.0,0.0,96,0.06,,---,0.54,VWS V14.01,2013-09-16 12:07:00,
2013-09-16 08:08:00,67.5,66.3,30.15,West,259,0.0,0.0,96,0.06,,---,0.54,VWS V14.01,2013-09-16 12:08:00,
2013-09-16 08:10:00,67.6,66.4,30.15,West,259,0.0,0.0,96,0.06,,---,0.54,VWS V14.01,2013-09-16 12:10:00,
2013-09-16 08:11:00,67.7,66.5,30.15,West,259,0.0,0.0,96,0.04,,---,0.54,VWS V14.01,2013-09-16 12:11:00,
2013-09-16 08:12:00,67.8,66.6,30.15,West,279,0.0,0.0,96,0.04,,---,0.54,VWS V14.01,2013-09-16 12:12:00,
2013-09-16 08:13:00,67.8,66.6,30.15,West,279,0.0,0.0,96,0.03,,---,0.54,VWS V14.01,2013-09-16 12:13:00,
2013-09-16 08:14:00,67.8,66.6,30.15,West,279,0.0,0.0,96,0.02,,---,0.54,VWS V14.01,2013-09-16 12:14:00,
2013-09-16 08:15:00,67.9,66.7,30.15,West,279,2.0,2.0,96,0.02,,---,0.54,VWS V14.01,2013-09-16 12:15:00,
2013-09-16 08:16:00,68.0,66.8,30.15,WNW,288,2.0,3.0,96,0.01,,---,0.54,VWS V14.01,2013-09-16 12:16:00,
2013-09-16 08:17:00,68.0,66.8,30.15,WNW,283,1.0,3.0,96,0.01,,---,0.54,VWS V14.01,2013-09-16 12:17:00,
2013-09-16 08:18:00,68.0,66.8,30.15,WSW,249,4.0,4.0,96,0.00,,---,0.54,VWS V14.01,2013-09-16 12:18:00,
2013-09-16 08:19:00,68.1,66.9,30.15,WNW,286,2.0,4.0,96,0.00,,---,0.54,VWS V14.01,2013-09-16 12:19:00,
2013-09-16 08:20:00,68.1,66.9,30.15,WSW,246,3.0,3.0,96,0.00,,---,0.54,VWS V14.01,2013-09-16 12:20:00,
2013-09-16 08:21:00,68.2,67.0,30.15,WSW,257,2.0,4.0,96,0.00,,---,0.54,VWS V14.01,2013-09-16 12:21:00,
2013-09-16 08:22:00,68.2,67.0,30.15,West,263,3.0,5.0,96,0.00,,---,0.54,VWS V14.01,2013-09-16 12:22:00,
2013-09-16 08:23:00,68.3,67.1,30.15,West,267,3.0,4.0,96,0.00,,---,0.54,VWS V14.01,2013-09-16 12:23:00,
2013-09-16 08:24:00,68.4,67.2,30.16,SW,236,4.0,5.0,96,0.00,,---,0.54,VWS V14.01,2013-09-16 12:24:00,
2013-09-16 08:25:00,68.4,67.2,30.15,West,262,2.0,4.0,96,0.00,,---,0.54,VWS V14.01,2013-09-16 12:25:00,
2013-09-16 08:26:00,68.5,67.0,30.16,West,276,4.0,6.0,95,0.00,,---,0.54,VWS V14.01,2013-09-16 12:26:00,
2013-09-16 08:27:00,68.5,67.0,30.16,WNW,293,4.0,5.0,95,0.00,,---,0.54,VWS V14.01,2013-09-16 12:27:00,
2013-09-16 08:28:00,68.5,67.0,30.15,West,271,3.0,5.0,95,0.00,,---,0.54,VWS V14.01,2013-09-16 12:28:00,
2013-09-16 08:29:00,68.6,67.1,30.16,WSW,257,3.0,4.0,95,0.00,,---,0.54,VWS V14.01,2013-09-16 12:29:00,
2013-09-16 08:30:00,68.6,67.1,30.16,West,275,1.0,3.0,95,0.00,,---,0.54,VWS V14.01,2013-09-16 12:30:00,
2013-09-16 08:31:00,68.6,67.1,30.16,West,277,2.0,2.0,95,0.00,,---,0.54,VWS V14.01,2013-09-16 12:31:00,
2013-09-16 08:32:00,68.6,67.1,30.15,West,277,1.0,2.0,95,0.00,,---,0.54,VWS V14.01,2013-09-16 12:32:00,
2013-09-16 08:33:00,68.7,67.2,30.15,West,271,2.0,4.0,95,0.00,,---,0.54,VWS V14.01,2013-09-16 12:33:00,
2013-09-16 08:34:00,68.7,67.2,30.15,West,276,3.0,3.0,95,0.00,,---,0.54,VWS V14.01,2013-09-16 12:34:00,
2013-09-16 08:35:00,68.8,67.3,30.15,West,276,3.0,5.0,95,0.00,,---,0.54,VWS V14.01,2013-09-16 12:35:00,
2013-09-16 08:36:00,68.8,67.3,30.15,WSW,241,3.0,3.0,95,0.00,,---,0.54,VWS V14.01,2013-09-16 12:36:00,
2013-09-16 08:37:00,68.8,67.3,30.15,West,276,3.0,3.0,95,0.00,,---,0.54,VWS V14.01,2013-09-16 12:37:00,
2013-09-16 08:38:00,68.8,67.3,30.15,West,267,2.0,4.0,95,0.00,,---,0.54,VWS V14.01,2013-09-16 12:38:00,
2013-09-16 08:39:00,68.9,67.4,30.15,West,273,1.0,2.0,95,0.00,,---,0.54,VWS V14.01,2013-09-16 12:39:00,
2013-09-16 08:40:00,69.0,67.5,30.15,West,267,1.0,1.0,95,0.00,,---,0.54,VWS V14.01,2013-09-16 12:40:00,
2013-09-16 08:41:00,69.0,67.5,30.15,WNW,293,6.0,6.0,95,0.00,,---,0.54,VWS V14.01,2013-09-16 12:41:00,
2013-09-16 08:42:00,69.0,67.5,30.15,WNW,288,2.0,6.0,95,0.00,,---,0.54,VWS V14.01,2013-09-16 12:42:00,
2013-09-16 08:43:00,69.1,67.6,30.15,NW,322,0.0,2.0,95,0.00,,---,0.54,VWS V14.01,2013-09-16 12:43:00,
2013-09-16 08:44:00,69.2,67.7,30.15,WNW,288,2.0,2.0,95,0.00,,---,0.54,VWS V14.01,2013-09-16 12:44:00,
2013-09-16 08:45:00,69.2,67.7,30.15,West,275,1.0,2.0,95,0.00,,---,0.54,VWS V14.01,2013-09-16 12:45:00,
2013-09-16 08:46:00,69.3,68.1,30.15,West,262,2.0,2.0,96,0.00,,---,0.54,VWS V14.01,2013-09-16 12:46:00,
2013-09-16 08:47:00,69.4,68.2,30.15,WNW,284,4.0,4.0,96,0.00,,---,0.54,VWS V14.01,2013-09-16 12:47:00,
2013-09-16 08:48:00,69.4,68.2,30.15,WNW,282,2.0,4.0,96,0.00,,---,0.54,VWS V14.01,2013-09-16 12:48:00,
2013-09-16 08:49:00,69.4,68.2,30.15,WNW,286,2.0,2.0,96,0.00,,---,0.54,VWS V14.01,2013-09-16 12:49:00,
2013-09-16 08:50:00,69.5,68.3,30.15,West,277,2.0,2.0,96,0.00,,---,0.54,VWS V14.01,2013-09-16 12:50:00,
2013-09-16 08:51:00,69.6,68.4,30.15,West,280,0.0,2.0,96,0.00,,---,0.54,VWS V14.01,2013-09-16 12:51:00,
2013-09-16 08:52:00,69.6,68.4,30.15,WNW,288,2.0,2.0,96,0.00,,---,0.54,VWS V14.01,2013-09-16 12:52:00,
2013-09-16 08:53:00,69.7,68.5,30.15,West,280,3.0,4.0,96,0.00,,---,0.54,VWS V14.01,2013-09-16 12:53:00,
2013-09-16 08:54:00,69.8,68.6,30.15,West,271,2.0,4.0,96,0.00,,---,0.54,VWS V14.01,2013-09-16 12:54:00,
2013-09-16 08:55:00,69.8,68.6,30.16,West,279,2.0,2.0,96,0.00,,---,0.54,VWS V14.01,2013-09-16 12:55:00,
2013-09-16 08:56:00,69.9,68.7,30.15,West,273,5.0,5.0,96,0.00,,---,0.54,VWS V14.01,2013-09-16 12:56:00,
2013-09-16 08:57:00,69.9,68.7,30.15,West,276,2.0,5.0,96,0.00,,---,0.54,VWS V14.01,2013-09-16 12:57:00,
2013-09-16 08:58:00,69.9,68.7,30.16,West,279,1.0,2.0,96,0.00,,---,0.54,VWS V14.01,2013-09-16 12:58:00,
2013-09-16 08:59:00,70.0,68.8,30.15,West,279,1.0,1.0,96,0.00,,---,0.54,VWS V14.01,2013-09-16 12:59:00,
2013-09-16 09:00:00,70.1,68.9,30.15,West,281,0.0,1.0,96,0.00,,---,0.54,VWS V14.01,2013-09-16 13:00:00,
2013-09-16 09:01:00,70.2,69.0,30.16,WNW,298,1.0,1.0,96,0.00,,---,0.54,VWS V14.01,2013-09-16 13:01:00,
2013-09-16 09:03:00,70.4,69.2,30.15,WSW,240,0.0,3.0,96,0.00,,---,0.54,VWS V14.01,2013-09-16 13:03:00,
2013-09-16 09:04:00,70.5,69.3,30.15,West,263,1.0,1.0,96,0.00,,---,0.54,VWS V14.01,2013-09-16 13:04:00,
2013-09-16 09:05:00,70.5,69.3,30.16,West,264,0.0,1.0,96,0.00,,---,0.54,VWS V14.01,2013-09-16 13:05:00,
2013-09-16 09:06:00,70.6,69.4,30.16,West,271,1.0,5.0,96,0.00,,---,0.54,VWS V14.01,2013-09-16 13:06:00,
2013-09-16 09:07:00,70.6,69.4,30.16,WNW,292,4.0,4.0,96,0.00,,---,0.54,VWS V14.01,2013-09-16 13:07:00,
2013-09-16 09:08:00,70.6,69.4,30.16,West,280,2.0,5.0,96,0.00,,---,0.54,VWS V14.01,2013-09-16 13:08:00,
2013-09-16 09:09:00,70.7,69.5,30.16,West,263,1.0,2.0,96,0.00,,---,0.54,VWS V14.01,2013-09-16 13:09:00,
2013-09-16 09:10:00,70.6,69.4,30.16,West,281,3.0,3.0,96,0.00,,---,0.54,VWS V14.01,2013-09-16 13:10:00,
2013-09-16 09:11:00,70.6,69.4,30.15,West,277,1.0,3.0,96,0.00,,---,0.54,VWS V14.01,2013-09-16 13:11:00,
2013-09-16 09:12:00,70.7,69.5,30.15,NW,309,1.0,3.0,96,0.00,,---,0.54,VWS V14.01,2013-09-16 13:12:00,
2013-09-16 09:13:00,70.7,69.5,30.15,WNW,293,5.0,5.0,96,0.00,,---,0.54,VWS V14.01,2013-09-16 13:13:00,
2013-09-16 09:14:00,70.7,69.5,30.15,West,272,1.0,5.0,96,0.00,,---,0.54,VWS V14.01,2013-09-16 13:14:00,
2013-09-16 09:15:00,70.7,69.5,30.15,West,273,0.0,2.0,96,0.00,,---,0.54,VWS V14.01,2013-09-16 13:15:00,
2013-09-16 09:16:00,70.8,69.6,30.16,West,280,2.0,2.0,96,0.00,,---,0.54,VWS V14.01,2013-09-16 13:16:00,
2013-09-16 09:17:00,70.8,69.6,30.16,NNW,334,3.0,4.0,96,0.00,,---,0.54,VWS V14.01,2013-09-16 13:17:00,
2013-09-16 09:18:00,70.9,69.7,30.16,West,264,1.0,3.0,96,0.00,,---,0.54,VWS V14.01,2013-09-16 13:18:00,
2013-09-16 09:19:00,70.9,69.7,30.16,WNW,288,1.0,4.0,96,0.00,,---,0.54,VWS V14.01,2013-09-16 13:19:00,
2013-09-16 09:20:00,70.9,69.7,30.16,West,279,1.0,3.0,96,0.00,,---,0.54,VWS V14.01,2013-09-16 13:20:00,
2013-09-16 09:21:00,70.9,69.7,30.16,West,281,1.0,1.0,96,0.00,,---,0.54,VWS V14.01,2013-09-16 13:21:00,
2013-09-16 09:22:00,71.0,69.8,30.16,WSW,257,3.0,3.0,96,0.00,,---,0.54,VWS V14.01,2013-09-16 13:22:00,
2013-09-16 09:23:00,71.0,69.8,30.16,WNW,283,6.0,8.0,96,0.00,,---,0.54,VWS V14.01,2013-09-16 13:23:00,
2013-09-16 09:24:00,70.9,69.7,30.16,West,269,1.0,7.0,96,0.00,,---,0.54,VWS V14.01,2013-09-16 13:24:00,
2013-09-16 09:25:00,70.9,69.7,30.16,West,279,3.0,5.0,96,0.00,,---,0.54,VWS V14.01,2013-09-16 13:25:00,
2013-09-16 09:26:00,70.9,69.7,30.16,West,279,3.0,5.0,96,0.00,,---,0.54,VWS V14.01,2013-09-16 13:26:00,
2013-09-16 09:27:00,70.9,69.7,30.16,WSW,242,3.0,3.0,96,0.00,,---,0.54,VWS V14.01,2013-09-16 13:27:00,
2013-09-16 09:28:00,70.9,69.7,30.16,West,277,7.0,7.0,96,0.00,,---,0.54,VWS V14.01,2013-09-16 13:28:00,
2013-09-16 09:29:00,70.9,69.7,30.16,West,275,3.0,7.0,96,0.00,,---,0.54,VWS V14.01,2013-09-16 13:29:00,
2013-09-16 09:30:00,70.9,69.7,30.16,West,269,3.0,4.0,96,0.00,,---,0.54,VWS V14.01,2013-09-16 13:30:00,
2013-09-16 09:31:00,70.9,69.7,30.16,WNW,290,2.0,4.0,96,0.00,,---,0.54,VWS V14.01,2013-09-16 13:31:00,
2013-09-16 09:32:00,70.9,69.7,30.16,WNW,291,3.0,3.0,96,0.00,,---,0.54,VWS V14.01,2013-09-16 13:32:00,
2013-09-16 09:33:00,70.9,69.7,30.16,West,281,1.0,5.0,96,0.00,,---,0.54,VWS V14.01,2013-09-16 13:33:00,
2013-09-16 09:34:00,70.9,69.7,30.16,WSW,252,2.0,2.0,96,0.00,,---,0.54,VWS V14.01,2013-09-16 13:34:00,
2013-09-16 09:35:00,70.9,69.7,30.16,WSW,240,2.0,4.0,96,0.00,,---,0.54,VWS V14.01,2013-09-16 13:35:00,
2013-09-16 09:36:00,71.0,69.8,30.16,West,276,2.0,4.0,96,0.00,,---,0.54,VWS V14.01,2013-09-16 13:36:00,
2013-09-16 09:37:00,71.0,69.8,30.16,West,279,2.0,3.0,96,0.00,,---,0.54,VWS V14.01,2013-09-16 13:37:00,
2013-09-16 09:38:00,71.0,69.8,30.16,WSW,253,4.0,4.0,96,0.00,,---,0.54,VWS V14.01,2013-09-16 13:38:00,
2013-09-16 09:39:00,71.0,69.8,30.16,West,259,2.0,4.0,96,0.00,,---,0.54,VWS V14.01,2013-09-16 13:39:00,
2013-09-16 09:40:00,71.1,69.9,30.16,West,265,2.0,3.0,96,0.00,,---,0.54,VWS V14.01,2013-09-16 13:40:00,
2013-09-16 09:41:00,71.1,69.9,30.16,WSW,256,3.0,3.0,96,0.00,,---,0.54,VWS V14.01,2013-09-16 13:41:00,
2013-09-16 09:42:00,71.1,69.9,30.16,West,275,1.0,3.0,96,0.00,,---,0.54,VWS V14.01,2013-09-16 13:42:00,
2013-09-16 09:43:00,71.1,69.9,30.16,WSW,244,4.0,4.0,96,0.00,,---,0.54,VWS V14.01,2013-09-16 13:43:00,
2013-09-16 09:44:00,71.2,70.0,30.16,WSW,241,3.0,5.0,96,0.00,,---,0.54,VWS V14.01,2013-09-16 13:44:00,
2013-09-16 09:45:00,71.2,70.0,30.16,West,277,3.0,5.0,96,0.00,,---,0.54,VWS V14.01,2013-09-16 13:45:00,
2013-09-16 09:46:00,71.2,70.0,30.16,WSW,248,4.0,5.0,96,0.00,,---,0.54,VWS V14.01,2013-09-16 13:46:00,
2013-09-16 09:47:00,71.2,70.0,30.16,West,281,1.0,4.0,96,0.00,,---,0.54,VWS V14.01,2013-09-16 13:47:00,
2013-09-16 09:48:00,71.2,70.0,30.16,WSW,257,3.0,5.0,96,0.00,,---,0.54,VWS V14.01,2013-09-16 13:48:00,
2013-09-16 09:49:00,71.3,70.1,30.16,WSW,238,3.0,5.0,96,0.00,,---,0.54,VWS V14.01,2013-09-16 13:49:00,
2013-09-16 09:50:00,71.4,70.2,30.16,West,278,5.0,5.0,96,0.00,,---,0.54,VWS V14.01,2013-09-16 13:50:00,
2013-09-16 09:51:00,71.4,70.2,30.16,West,271,4.0,5.0,96,0.00,,---,0.54,VWS V14.01,2013-09-16 13:51:00,
2013-09-16 09:53:00,71.4,70.2,30.16,West,281,4.0,4.0,96,0.00,,---,0.54,VWS V14.01,2013-09-16 13:53:00,
2013-09-16 09:54:00,71.4,70.2,30.16,West,271,5.0,5.0,96,0.00,,---,0.54,VWS V14.01,2013-09-16 13:54:00,
2013-09-16 09:55:00,71.5,70.3,30.16,WNW,287,6.0,6.0,96,0.00,,---,0.54,VWS V14.01,2013-09-16 13:55:00,
2013-09-16 09:56:00,71.5,70.3,30.16,WSW,254,5.0,6.0,96,0.00,,---,0.54,VWS V14.01,2013-09-16 13:56:00,
2013-09-16 09:57:00,71.5,70.3,30.16,WNW,288,5.0,6.0,96,0.00,,---,0.54,VWS V14.01,2013-09-16 13:57:00,
2013-09-16 09:58:00,71.6,70.4,30.16,West,260,5.0,5.0,96,0.00,,---,0.54,VWS V14.01,2013-09-16 13:58:00,
2013-09-16 09:59:00,71.6,70.4,30.16,West,280,4.0,7.0,96,0.00,,---,0.54,VWS V14.01,2013-09-16 13:59:00,
2013-09-16 10:00:00,71.6,70.4,30.16,West,281,4.0,7.0,96,0.00,,---,0.54,VWS V14.01,2013-09-16 14:00:00,
2013-09-16 10:01:00,71.6,70.4,30.16,WSW,256,4.0,7.0,96,0.00,,---,0.54,VWS V14.01,2013-09-16 14:01:00,
2013-09-16 10:02:00,71.6,70.1,30.16,WSW,253,7.0,8.0,95,0.00,,---,0.54,VWS V14.01,2013-09-16 14:02:00,
2013-09-16 10:03:00,71.6,70.1,30.16,West,263,3.0,7.0,95,0.00,,---,0.54,VWS V14.01,2013-09-16 14:03:00,
2013-09-16 10:04:00,71.7,70.2,30.16,SW,225,2.0,6.0,95,0.00,,---,0.54,VWS V14.01,2013-09-16 14:04:00,
2013-09-16 10:05:00,71.8,70.3,30.16,West,280,3.0,4.0,95,0.00,,---,0.54,VWS V14.01,2013-09-16 14:05:00,
2013-09-16 10:06:00,71.8,70.3,30.16,West,281,3.0,4.0,95,0.00,,---,0.54,VWS V14.01,2013-09-16 14:06:00,
2013-09-16 10:07:00,71.8,70.6,30.16,West,280,2.0,4.0,96,0.00,,---,0.54,VWS V14.01,2013-09-16 14:07:00,
2013-09-16 10:08:00,71.8,70.3,30.16,WNW,288,6.0,6.0,95,0.00,,---,0.54,VWS V14.01,2013-09-16 14:08:00,
2013-09-16 10:10:00,71.8,70.3,30.16,NW,314,4.0,5.0,95,0.00,,---,0.54,VWS V14.01,2013-09-16 14:10:00,
2013-09-16 10:11:00,71.8,70.3,30.16,WNW,292,4.0,5.0,95,0.00,,---,0.54,VWS V14.01,2013-09-16 14:11:00,
2013-09-16 10:12:00,71.8,70.3,30.16,West,279,5.0,7.0,95,0.00,,---,0.54,VWS V14.01,2013-09-16 14:12:00,
2013-09-16 10:13:00,71.8,70.3,30.16,NNW,331,2.0,5.0,95,0.00,,---,0.54,VWS V14.01,2013-09-16 14:13:00,
2013-09-16 10:14:00,71.9,70.4,30.16,WNW,284,2.0,3.0,95,0.00,,---,0.54,VWS V14.01,2013-09-16 14:14:00,
2013-09-16 10:15:00,71.9,70.4,30.16,West,281,1.0,2.0,95,0.00,,---,0.54,VWS V14.01,2013-09-16 14:15:00,
2013-09-16 10:16:00,72.0,70.5,30.16,West,264,2.0,2.0,95,0.00,,---,0.54,VWS V14.01,2013-09-16 14:16:00,
2013-09-16 10:17:00,72.0,70.5,30.16,WSW,248,1.0,3.0,95,0.00,,---,0.54,VWS V14.01,2013-09-16 14:17:00,
2013-09-16 10:18:00,72.0,70.5,30.16,West,271,3.0,3.0,95,0.00,,---,0.54,VWS V14.01,2013-09-16 14:18:00,
2013-09-16 10:19:00,72.0,70.5,30.16,WNW,288,5.0,6.0,95,0.00,,---,0.54,VWS V14.01,2013-09-16 14:19:00,
2013-09-16 10:20:00,72.1,70.6,30.16,WSW,256,6.0,6.0,95,0.00,,---,0.54,VWS V14.01,2013-09-16 14:20:00,
2013-09-16 10:21:00,72.1,70.6,30.16,West,267,5.0,6.0,95,0.00,,---,0.54,VWS V14.01,2013-09-16 14:21:00,
2013-09-16 10:22:00,72.1,70.6,30.16,WSW,256,5.0,5.0,95,0.00,,---,0.54,VWS V14.01,2013-09-16 14:22:00,
2013-09-16 10:23:00,72.1,70.6,30.16,WNW,288,7.0,7.0,95,0.00,,---,0.54,VWS V14.01,2013-09-16 14:23:00,
2013-09-16 10:24:00,72.1,70.6,30.16,WNW,286,3.0,7.0,95,0.00,,---,0.54,VWS V14.01,2013-09-16 14:24:00,
2013-09-16 10:25:00,72.2,70.7,30.16,West,269,8.0,8.0,95,0.00,,---,0.54,VWS V14.01,2013-09-16 14:25:00,
2013-09-16 10:26:00,72.2,70.7,30.16,WNW,293,5.0,8.0,95,0.00,,---,0.54,VWS V14.01,2013-09-16 14:26:00,
2013-09-16 10:27:00,72.2,70.7,30.16,West,275,3.0,6.0,95,0.00,,---,0.54,VWS V14.01,2013-09-16 14:27:00,
2013-09-16 10:28:00,72.2,70.7,30.16,WSW,252,5.0,5.0,95,0.00,,---,0.54,VWS V14.01,2013-09-16 14:28:00,
2013-09-16 10:29:00,72.3,70.8,30.16,West,281,1.0,5.0,95,0.00,,---,0.54,VWS V14.01,2013-09-16 14:29:00,
2013-09-16 10:30:00,72.4,70.9,30.16,West,268,2.0,3.0,95,0.00,,---,0.54,VWS V14.01,2013-09-16 14:30:00,
2013-09-16 10:31:00,72.4,70.9,30.16,West,273,6.0,6.0,95,0.00,,---,0.54,VWS V14.01,2013-09-16 14:31:00,
2013-09-16 10:32:00,72.5,70.7,30.16,NW,321,4.0,6.0,94,0.00,,---,0.54,VWS V14.01,2013-09-16 14:32:00,
2013-09-16 10:33:00,72.5,70.7,30.16,NW,311,4.0,4.0,94,0.00,,---,0.54,VWS V14.01,2013-09-16 14:33:00,
2013-09-16 10:34:00,72.6,70.8,30.16,WNW,298,3.0,4.0,94,0.00,,---,0.54,VWS V14.01,2013-09-16 14:34:00,
2013-09-16 10:35:00,72.6,70.8,30.16,West,273,5.0,6.0,94,0.00,,---,0.54,VWS V14.01,2013-09-16 14:35:00,
2013-09-16 10:36:00,72.6,70.8,30.16,West,267,4.0,6.0,94,0.00,,---,0.54,VWS V14.01,2013-09-16 14:36:00,
2013-09-16 10:37:00,72.7,70.9,30.16,WSW,245,2.0,5.0,94,0.00,,---,0.54,VWS V14.01,2013-09-16 14:37:00,
2013-09-16 10:38:00,72.7,70.6,30.16,WSW,252,5.0,8.0,93,0.00,,---,0.54,VWS V14.01,2013-09-16 14:38:00,
2013-09-16 10:39:00,72.8,71.0,30.16,WNW,283,2.0,5.0,94,0.00,,---,0.54,VWS V14.01,2013-09-16 14:39:00,
2013-09-16 10:40:00,72.9,70.8,30.16,WNW,288,3.0,4.0,93,0.00,,---,0.54,VWS V14.01,2013-09-16 14:40:00,
2013-09-16 10:41:00,72.9,70.8,30.16,WNW,291,2.0,4.0,93,0.00,,---,0.54,VWS V14.01,2013-09-16 14:41:00,
2013-09-16 10:42:00,73.0,70.9,30.15,WNW,284,4.0,6.0,93,0.00,,---,0.54,VWS V14.01,2013-09-16 14:42:00,
2013-09-16 10:43:00,73.1,71.0,30.15,WSW,251,6.0,6.0,93,0.00,,---,0.54,VWS V14.01,2013-09-16 14:43:00,
2013-09-16 10:44:00,73.1,71.0,30.15,WNW,284,4.0,6.0,93,0.00,,---,0.54,VWS V14.01,2013-09-16 14:44:00,
2013-09-16 10:45:00,73.2,71.1,30.15,West,272,4.0,4.0,93,0.00,,---,0.54,VWS V14.01,2013-09-16 14:45:00,
2013-09-16 10:46:00,73.3,71.2,30.15,WNW,284,4.0,5.0,93,0.00,,---,0.54,VWS V14.01,2013-09-16 14:46:00,
2013-09-16 10:47:00,73.3,71.2,30.15,NNW,329,2.0,4.0,93,0.00,,---,0.54,VWS V14.01,2013-09-16 14:47:00,
2013-09-16 10:48:00,73.4,71.3,30.15,NW,311,2.0,3.0,93,0.00,,---,0.54,VWS V14.01,2013-09-16 14:48:00,
2013-09-16 10:49:00,73.5,71.4,30.15,West,263,1.0,2.0,93,0.00,,---,0.54,VWS V14.01,2013-09-16 14:49:00,
2013-09-16 10:50:00,73.6,71.5,30.16,West,280,3.0,3.0,93,0.00,,---,0.54,VWS V14.01,2013-09-16 14:50:00,
2013-09-16 10:51:00,73.7,71.2,30.16,SW,229,2.0,3.0,92,0.00,,---,0.54,VWS V14.01,2013-09-16 14:51:00,
2013-09-16 10:52:00,73.7,71.2,30.16,NE,36,5.0,6.0,92,0.00,,---,0.54,VWS V14.01,2013-09-16 14:52:00,
2013-09-16 10:53:00,73.8,71.3,30.15,NW,326,4.0,5.0,92,0.00,,---,0.54,VWS V14.01,2013-09-16 14:53:00,
2013-09-16 10:54:00,73.9,71.4,30.16,NW,311,3.0,4.0,92,0.00,,---,0.54,VWS V14.01,2013-09-16 14:54:00,
2013-09-16 10:55:00,74.0,71.5,30.16,NW,306,5.0,5.0,92,0.00,,---,0.54,VWS V14.01,2013-09-16 14:55:00,
2013-09-16 10:56:00,74.0,71.2,30.16,WNW,298,3.0,5.0,91,0.00,,---,0.54,VWS V14.01,2013-09-16 14:56:00,
2013-09-16 10:57:00,74.0,71.2,30.16,West,273,6.0,6.0,91,0.00,,---,0.54,VWS V14.01,2013-09-16 14:57:00,
2013-09-16 10:58:00,74.0,71.2,30.16,West,262,4.0,6.0,91,0.00,,---,0.54,VWS V14.01,2013-09-16 14:58:00,
2013-09-16 10:59:00,74.1,71.3,30.16,NNW,347,1.0,4.0,91,0.00,,---,0.54,VWS V14.01,2013-09-16 14:59:00,
2013-09-16 11:00:00,74.2,71.4,30.16,WNW,288,2.0,4.0,91,0.00,,---,0.54,VWS V14.01,2013-09-16 15:00:00,
2013-09-16 11:01:00,74.2,71.4,30.16,West,275,2.0,4.0,91,0.00,,---,0.54,VWS V14.01,2013-09-16 15:01:00,
2013-09-16 11:02:00,74.2,71.4,30.15,WNW,282,4.0,4.0,91,0.00,,---,0.54,VWS V14.01,2013-09-16 15:02:00,
2013-09-16 11:03:00,74.3,71.5,30.15,NW,319,2.0,4.0,91,0.00,,---,0.54,VWS V14.01,2013-09-16 15:03:00,
2013-09-16 11:04:00,74.3,71.5,30.15,WSW,249,3.0,4.0,91,0.00,,---,0.54,VWS V14.01,2013-09-16 15:04:00,
2013-09-16 11:05:00,74.4,71.3,30.15,WNW,284,4.0,4.0,90,0.00,,---,0.54,VWS V14.01,2013-09-16 15:05:00,
2013-09-16 11:06:00,74.4,71.3,30.15,West,265,6.0,6.0,90,0.00,,---,0.54,VWS V14.01,2013-09-16 15:06:00,
2013-09-16 11:07:00,74.3,71.2,30.15,WNW,282,3.0,6.0,90,0.00,,---,0.54,VWS V14.01,2013-09-16 15:07:00,
2013-09-16 11:08:00,74.4,71.3,30.15,WNW,283,5.0,6.0,90,0.00,,---,0.54,VWS V14.01,2013-09-16 15:08:00,
2013-09-16 11:09:00,74.4,71.3,30.15,WSW,257,3.0,6.0,90,0.00,,---,0.54,VWS V14.01,2013-09-16 15:09:00,
2013-09-16 11:10:00,74.5,71.4,30.15,NNW,340,2.0,2.0,90,0.00,,---,0.54,VWS V14.01,2013-09-16 15:10:00,
2013-09-16 11:11:00,74.5,71.4,30.15,NNW,340,1.0,2.0,90,0.00,,---,0.54,VWS V14.01,2013-09-16 15:11:00,
2013-09-16 11:12:00,74.7,71.9,30.15,West,276,2.0,2.0,91,0.00,,---,0.54,VWS V14.01,2013-09-16 15:12:00,
2013-09-16 11:13:00,74.8,71.7,30.15,WNW,300,3.0,5.0,90,0.00,,---,0.54,VWS V14.01,2013-09-16 15:13:00,
2013-09-16 11:14:00,74.8,71.3,30.15,NW,325,3.0,4.0,89,0.00,,---,0.54,VWS V14.01,2013-09-16 15:14:00,
2013-09-16 11:15:00,74.9,71.4,30.15,West,275,3.0,4.0,89,0.00,,---,0.54,VWS V14.01,2013-09-16 15:15:00,
2013-09-16 11:16:00,74.9,71.4,30.15,West,265,4.0,4.0,89,0.00,,---,0.54,VWS V14.01,2013-09-16 15:16:00,
2013-09-16 11:17:00,75.0,71.5,30.15,West,261,2.0,5.0,89,0.00,,---,0.54,VWS V14.01,2013-09-16 15:17:00,
2013-09-16 11:18:00,75.1,71.6,30.15,West,271,4.0,5.0,89,0.00,,---,0.54,VWS V14.01,2013-09-16 15:18:00,
2013-09-16 11:19:00,75.1,71.6,30.15,WSW,245,5.0,5.0,89,0.00,,---,0.54,VWS V14.01,2013-09-16 15:19:00,
2013-09-16 11:20:00,75.3,71.8,30.15,WSW,254,4.0,4.0,89,0.00,,---,0.54,VWS V14.01,2013-09-16 15:20:00,
2013-09-16 11:21:00,75.3,71.8,30.15,West,276,2.0,4.0,89,0.00,,---,0.54,VWS V14.01,2013-09-16 15:21:00,
2013-09-16 11:22:00,75.4,71.9,30.15,WNW,290,4.0,7.0,89,0.00,,---,0.54,VWS V14.01,2013-09-16 15:22:00,
2013-09-16 11:23:00,75.5,71.7,30.15,West,271,3.0,5.0,88,0.00,,---,0.54,VWS V14.01,2013-09-16 15:23:00,
2013-09-16 11:24:00,75.6,72.1,30.15,WSW,252,3.0,3.0,89,0.00,,---,0.54,VWS V14.01,2013-09-16 15:24:00,
2013-09-16 11:25:00,75.8,72.0,30.15,WNW,300,2.0,3.0,88,0.00,,---,0.54,VWS V14.01,2013-09-16 15:25:00,
2013-09-16 11:26:00,75.8,71.7,30.15,WSW,254,2.0,3.0,87,0.00,,---,0.54,VWS V14.01,2013-09-16 15:26:00,
2013-09-16 11:27:00,75.9,72.1,30.15,West,269,5.0,5.0,88,0.00,,---,0.54,VWS V14.01,2013-09-16 15:27:00,
2013-09-16 11:28:00,75.9,71.4,30.15,WSW,250,5.0,8.0,86,0.00,,---,0.54,VWS V14.01,2013-09-16 15:28:00,
2013-09-16 11:29:00,76.0,71.5,30.15,West,273,3.0,5.0,86,0.00,,---,0.54,VWS V14.01,2013-09-16 15:29:00,
2013-09-16 11:30:00,76.0,71.2,30.15,WSW,249,3.0,5.0,85,0.00,,---,0.54,VWS V14.01,2013-09-16 15:30:00,
2013-09-16 11:31:00,76.1,71.6,30.15,West,259,3.0,5.0,86,0.00,,---,0.54,VWS V14.01,2013-09-16 15:31:00,
2013-09-16 11:32:00,76.1,71.6,30.15,West,264,4.0,6.0,86,0.00,,---,0.54,VWS V14.01,2013-09-16 15:32:00,
2013-09-16 11:33:00,76.1,71.6,30.15,West,276,1.0,4.0,86,0.00,,---,0.54,VWS V14.01,2013-09-16 15:33:00,
2013-09-16 11:34:00,76.2,71.7,30.15,WNW,290,2.0,3.0,86,0.00,,---,0.54,VWS V14.01,2013-09-16 15:34:00,
2013-09-16 11:35:00,76.2,71.7,30.15,NNW,327,1.0,4.0,86,0.00,,---,0.54,VWS V14.01,2013-09-16 15:35:00,
2013-09-16 11:36:00,76.3,72.2,30.15,NNW,327,1.0,4.0,87,0.00,,---,0.54,VWS V14.01,2013-09-16 15:36:00,
2013-09-16 11:37:00,76.4,72.2,30.14,West,281,0.0,2.0,87,0.00,,---,0.54,VWS V14.01,2013-09-16 15:37:00,
2013-09-16 11:38:00,76.6,72.1,30.15,West,280,4.0,4.0,86,0.00,,---,0.54,VWS V14.01,2013-09-16 15:38:00,
2013-09-16 11:39:00,76.6,71.8,30.15,West,281,4.0,4.0,85,0.00,,---,0.54,VWS V14.01,2013-09-16 15:39:00,
2013-09-16 11:40:00,76.6,71.8,30.15,West,272,3.0,4.0,85,0.00,,---,0.54,VWS V14.01,2013-09-16 15:40:00,
2013-09-16 11:42:00,76.7,72.2,30.15,WNW,284,5.0,5.0,86,0.00,,---,0.54,VWS V14.01,2013-09-16 15:42:00,
2013-09-16 11:43:00,76.8,72.3,30.15,West,272,5.0,5.0,86,0.00,,---,0.54,VWS V14.01,2013-09-16 15:43:00,
2013-09-16 11:44:00,76.8,71.6,30.15,WNW,282,5.0,6.0,84,0.00,,---,0.54,VWS V14.01,2013-09-16 15:44:00,
2013-09-16 11:45:00,76.9,71.0,30.15,SW,233,5.0,5.0,82,0.00,,---,0.54,VWS V14.01,2013-09-16 15:45:00,
2013-09-16 11:46:00,76.9,71.0,30.15,WSW,238,2.0,5.0,82,0.00,,---,0.54,VWS V14.01,2013-09-16 15:46:00,
2013-09-16 11:47:00,76.9,71.3,30.14,North,360,4.0,5.0,83,0.00,,---,0.54,VWS V14.01,2013-09-16 15:47:00,
2013-09-16 11:48:00,77.1,71.5,30.14,NW,318,0.0,4.0,83,0.00,,---,0.54,VWS V14.01,2013-09-16 15:48:00,
2013-09-16 11:49:00,77.2,71.6,30.14,NW,304,6.0,7.0,83,0.00,,---,0.54,VWS V14.01,2013-09-16 15:49:00,
2013-09-16 11:50:00,77.3,70.7,30.14,West,259,5.0,7.0,80,0.00,,---,0.54,VWS V14.01,2013-09-16 15:50:00,
2013-09-16 11:51:00,77.3,70.7,30.14,WNW,286,5.0,7.0,80,0.00,,---,0.54,VWS V14.01,2013-09-16 15:51:00,
2013-09-16 11:52:00,77.3,71.0,30.14,WNW,286,6.0,7.0,81,0.00,,---,0.54,VWS V14.01,2013-09-16 15:52:00,
2013-09-16 11:53:00,77.3,70.7,30.14,WNW,283,6.0,6.0,80,0.00,,---,0.54,VWS V14.01,2013-09-16 15:53:00,
2013-09-16 11:54:00,77.3,71.0,30.14,West,268,4.0,7.0,81,0.00,,---,0.54,VWS V14.01,2013-09-16 15:54:00,
2013-09-16 11:55:00,77.3,71.0,30.14,NW,311,3.0,4.0,81,0.00,,---,0.54,VWS V14.01,2013-09-16 15:55:00,
2013-09-16 11:56:00,77.4,71.1,30.14,NW,318,2.0,4.0,81,0.00,,---,0.54,VWS V14.01,2013-09-16 15:56:00,
2013-09-16 11:57:00,77.5,71.2,30.14,West,275,3.0,5.0,81,0.00,,---,0.54,VWS V14.01,2013-09-16 15:57:00,
2013-09-16 11:58:00,77.6,71.3,30.14,West,272,5.0,5.0,81,0.00,,---,0.54,VWS V14.01,2013-09-16 15:58:00,
2013-09-16 11:59:00,77.7,71.4,30.14,WSW,249,0.0,5.0,81,0.00,,---,0.54,VWS V14.01,2013-09-16 15:59:00,
2013-09-16 12:00:00,78.0,71.3,30.14,West,280,2.0,5.0,80,0.00,,---,0.54,VWS V14.01,2013-09-16 16:00:00,
2013-09-16 12:01:00,78.0,71.3,30.14,WNW,291,3.0,5.0,80,0.00,,---,0.54,VWS V14.01,2013-09-16 16:01:00,
2013-09-16 12:02:00,78.1,71.1,30.14,West,279,3.0,6.0,79,0.00,,---,0.54,VWS V14.01,2013-09-16 16:02:00,
2013-09-16 12:03:00,78.2,70.8,30.14,West,260,6.0,6.0,78,0.00,,---,0.54,VWS V14.01,2013-09-16 16:03:00,
2013-09-16 12:04:00,78.4,71.0,30.14,West,275,4.0,6.0,78,0.00,,---,0.54,VWS V14.01,2013-09-16 16:04:00,
2013-09-16 12:05:00,78.5,70.7,30.14,WSW,256,6.0,6.0,77,0.00,,---,0.54,VWS V14.01,2013-09-16 16:05:00,
2013-09-16 12:06:00,78.5,70.7,30.14,West,263,8.0,8.0,77,0.00,,---,0.54,VWS V14.01,2013-09-16 16:06:00,
2013-09-16 12:07:00,78.5,70.7,30.14,West,278,5.0,9.0,77,0.00,,---,0.54,VWS V14.01,2013-09-16 16:07:00,
2013-09-16 12:08:00,78.6,71.2,30.14,West,267,4.0,5.0,78,0.00,,---,0.54,VWS V14.01,2013-09-16 16:08:00,
2013-09-16 12:09:00,78.7,70.9,30.14,NNW,331,3.0,4.0,77,0.00,,---,0.54,VWS V14.01,2013-09-16 16:09:00,
2013-09-16 12:10:00,78.8,70.2,30.14,WSW,249,5.0,6.0,75,0.00,,---,0.54,VWS V14.01,2013-09-16 16:10:00,
2013-09-16 12:11:00,78.7,69.7,30.14,West,268,3.0,6.0,74,0.00,,---,0.54,VWS V14.01,2013-09-16 16:11:00,
2013-09-16 12:12:00,78.8,70.2,30.14,WSW,257,5.0,6.0,75,0.00,,---,0.54,VWS V14.01,2013-09-16 16:12:00,
2013-09-16 12:13:00,78.8,70.2,30.14,NNW,327,2.0,5.0,75,0.00,,---,0.54,VWS V14.01,2013-09-16 16:13:00,
2013-09-16 12:14:00,79.0,70.8,30.14,NNW,336,4.0,4.0,76,0.00,,---,0.54,VWS V14.01,2013-09-16 16:14:00,
2013-09-16 12:15:00,79.1,70.5,30.14,WNW,300,4.0,7.0,75,0.00,,---,0.54,VWS V14.01,2013-09-16 16:15:00,
2013-09-16 12:16:00,79.1,70.5,30.14,WNW,291,2.0,7.0,75,0.00,,---,0.54,VWS V14.01,2013-09-16 16:16:00,
2013-09-16 12:17:00,79.2,71.0,30.13,West,277,5.0,5.0,76,0.00,,---,0.54,VWS V14.01,2013-09-16 16:17:00,
2013-09-16 12:18:00,79.2,71.0,30.13,WNW,289,3.0,5.0,76,0.00,,---,0.54,VWS V14.01,2013-09-16 16:18:00,
2013-09-16 12:19:00,79.4,71.2,30.13,West,277,4.0,5.0,76,0.00,,---,0.54,VWS V14.01,2013-09-16 16:19:00,
2013-09-16 12:20:00,79.4,70.4,30.13,WSW,257,3.0,4.0,74,0.00,,---,0.54,VWS V14.01,2013-09-16 16:20:00,
2013-09-16 12:21:00,79.5,70.5,30.13,West,271,8.0,8.0,74,0.00,,---,0.54,VWS V14.01,2013-09-16 16:21:00,
2013-09-16 12:22:00,79.6,70.6,30.13,WNW,286,4.0,8.0,74,0.00,,---,0.54,VWS V14.01,2013-09-16 16:22:00,
2013-09-16 12:23:00,79.6,69.8,30.13,WSW,244,3.0,7.0,72,0.00,,---,0.54,VWS V14.01,2013-09-16 16:23:00,
2013-09-16 12:24:00,79.6,69.4,30.13,WSW,248,6.0,6.0,71,0.00,,---,0.54,VWS V14.01,2013-09-16 16:24:00,
2013-09-16 12:25:00,79.5,69.7,30.13,WSW,248,7.0,7.0,72,0.00,,---,0.54,VWS V14.01,2013-09-16 16:25:00,
2013-09-16 12:26:00,79.5,69.7,30.13,WNW,284,8.0,8.0,72,0.00,,---,0.54,VWS V14.01,2013-09-16 16:26:00,
2013-09-16 12:27:00,79.4,69.6,30.13,WNW,287,5.0,8.0,72,0.00,,---,0.54,VWS V14.01,2013-09-16 16:27:00,
2013-09-16 12:28:00,79.4,69.6,30.13,West,281,2.0,5.0,72,0.00,,---,0.54,VWS V14.01,2013-09-16 16:28:00,
2013-09-16 12:29:00,79.4,70.0,30.13,NW,311,2.0,3.0,73,0.00,,---,0.54,VWS V14.01,2013-09-16 16:29:00,
2013-09-16 12:30:00,79.5,70.5,30.13,NNE,27,0.0,1.0,74,0.00,,---,0.54,VWS V14.01,2013-09-16 16:30:00,
2013-09-16 12:31:00,79.6,70.6,30.13,NNE,28,0.0,1.0,74,0.00,,---,0.54,VWS V14.01,2013-09-16 16:31:00,
2013-09-16 12:32:00,79.8,70.8,30.13,NW,304,0.0,1.0,74,0.00,,---,0.54,VWS V14.01,2013-09-16 16:32:00,
2013-09-16 12:33:00,80.0,70.6,30.13,NE,49,1.0,2.0,73,0.00,,---,0.54,VWS V14.01,2013-09-16 16:33:00,
2013-09-16 12:34:00,80.3,70.5,30.13,NNW,342,1.0,2.0,72,0.00,,---,0.54,VWS V14.01,2013-09-16 16:34:00,
2013-09-16 12:35:00,80.7,70.0,30.13,West,277,0.0,1.0,70,0.00,,---,0.54,VWS V14.01,2013-09-16 16:35:00,
2013-09-16 12:36:00,80.8,70.1,30.13,WNW,284,2.0,2.0,70,0.00,,---,0.54,VWS V14.01,2013-09-16 16:36:00,
2013-09-16 12:37:00,81.2,69.6,30.13,WNW,282,5.0,5.0,68,0.00,,---,0.54,VWS V14.01,2013-09-16 16:37:00,
2013-09-16 12:38:00,81.2,68.8,30.13,NNE,22,2.0,5.0,66,0.00,,---,0.54,VWS V14.01,2013-09-16 16:38:00,
2013-09-16 12:39:00,81.2,69.2,30.13,WSW,258,2.0,3.0,67,0.00,,---,0.54,VWS V14.01,2013-09-16 16:39:00,
2013-09-16 12:40:00,81.2,68.8,30.13,NW,304,2.0,3.0,66,0.00,,---,0.54,VWS V14.01,2013-09-16 16:40:00,
2013-09-16 12:41:00,81.2,68.8,30.13,West,280,2.0,3.0,66,0.00,,---,0.54,VWS V14.01,2013-09-16 16:41:00,
2013-09-16 12:42:00,81.2,69.2,30.13,WSW,256,3.0,6.0,67,0.00,,---,0.54,VWS V14.01,2013-09-16 16:42:00,
2013-09-16 12:43:00,81.2,69.2,30.13,NW,316,2.0,3.0,67,0.00,,---,0.54,VWS V14.01,2013-09-16 16:43:00,
2013-09-16 12:44:00,81.3,70.2,30.13,NE,36,2.0,5.0,69,0.00,,---,0.54,VWS V14.01,2013-09-16 16:44:00,
2013-09-16 12:45:00,81.3,68.9,30.13,NW,315,2.0,3.0,66,0.00,,---,0.54,VWS V14.01,2013-09-16 16:45:00,
2013-09-16 12:46:00,81.4,69.4,30.13,WNW,302,4.0,4.0,67,0.00,,---,0.54,VWS V14.01,2013-09-16 16:46:00,
2013-09-16 12:47:00,81.4,68.5,30.13,SW,234,0.0,4.0,65,0.00,,---,0.54,VWS V14.01,2013-09-16 16:47:00,
2013-09-16 12:48:00,81.5,69.1,30.13,NE,36,2.0,3.0,66,0.00,,---,0.54,VWS V14.01,2013-09-16 16:48:00,
2013-09-16 12:49:00,81.6,68.7,30.13,NW,308,2.0,4.0,65,0.00,,---,0.54,VWS V14.01,2013-09-16 16:49:00,
2013-09-16 12:50:00,81.8,68.9,30.13,West,269,6.0,6.0,65,0.00,,---,0.54,VWS V14.01,2013-09-16 16:50:00,
2013-09-16 12:51:00,81.8,68.9,30.13,West,261,6.0,7.0,65,0.00,,---,0.54,VWS V14.01,2013-09-16 16:51:00,
2013-09-16 12:52:00,81.8,68.4,30.12,WNW,300,2.0,9.0,64,0.00,,---,0.54,VWS V14.01,2013-09-16 16:52:00,
2013-09-16 12:53:00,81.8,68.0,30.13,West,263,6.0,7.0,63,0.00,,---,0.54,VWS V14.01,2013-09-16 16:53:00,
2013-09-16 12:54:00,81.7,67.4,30.12,West,277,4.0,6.0,62,0.00,,---,0.54,VWS V14.01,2013-09-16 16:54:00,
2013-09-16 12:55:00,81.7,68.8,30.12,West,276,1.0,1.0,65,0.00,,---,0.54,VWS V14.01,2013-09-16 16:55:00,
2013-09-16 12:56:00,81.8,68.9,30.12,WSW,239,6.0,6.0,65,0.00,,---,0.54,VWS V14.01,2013-09-16 16:56:00,
2013-09-16 12:57:00,81.8,67.5,30.12,SW,215,2.0,7.0,62,0.00,,---,0.54,VWS V14.01,2013-09-16 16:57:00,
2013-09-16 12:58:00,81.7,68.3,30.12,West,275,3.0,6.0,64,0.00,,---,0.54,VWS V14.01,2013-09-16 16:58:00,
2013-09-16 12:59:00,81.7,67.9,30.12,West,272,2.0,4.0,63,0.00,,---,0.54,VWS V14.01,2013-09-16 16:59:00,
2013-09-16 13:00:00,81.9,68.1,30.12,WNW,297,0.0,1.0,63,0.00,,---,0.54,VWS V14.01,2013-09-16 17:00:00,
2013-09-16 13:01:00,82.1,68.7,30.12,West,276,2.0,3.0,64,0.00,,---,0.54,VWS V14.01,2013-09-16 17:01:00,
2013-09-16 13:02:00,82.2,68.8,30.12,NW,306,2.0,2.0,64,0.00,,---,0.54,VWS V14.01,2013-09-16 17:02:00,
2013-09-16 13:03:00,82.4,69.0,30.12,WNW,297,0.0,2.0,64,0.00,,---,0.54,VWS V14.01,2013-09-16 17:03:00,
2013-09-16 13:04:00,82.5,68.6,30.12,WNW,297,0.0,0.0,63,0.00,,---,0.54,VWS V14.01,2013-09-16 17:04:00,
2013-09-16 13:05:00,82.7,68.8,30.12,North,360,3.0,4.0,63,0.00,,---,0.54,VWS V14.01,2013-09-16 17:05:00,
2013-09-16 13:06:00,82.8,68.9,30.12,North,11,1.0,4.0,63,0.00,,---,0.54,VWS V14.01,2013-09-16 17:06:00,
2013-09-16 13:07:00,82.9,69.5,30.12,West,260,1.0,4.0,64,0.00,,---,0.54,VWS V14.01,2013-09-16 17:07:00,
2013-09-16 13:08:00,82.9,68.1,30.12,West,281,1.0,1.0,61,0.00,,---,0.54,VWS V14.01,2013-09-16 17:08:00,
2013-09-16 13:09:00,83.1,67.8,30.12,NW,314,2.0,4.0,60,0.00,,---,0.54,VWS V14.01,2013-09-16 17:09:00,
2013-09-16 13:10:00,83.2,67.4,30.12,WNW,283,4.0,4.0,59,0.00,,---,0.54,VWS V14.01,2013-09-16 17:10:00,
2013-09-16 13:11:00,83.2,67.4,30.12,WSW,245,3.0,5.0,59,0.00,,---,0.54,VWS V14.01,2013-09-16 17:11:00,
2013-09-16 13:12:00,83.2,66.9,30.12,NNE,18,2.0,5.0,58,0.00,,---,0.54,VWS V14.01,2013-09-16 17:12:00,
2013-09-16 13:13:00,83.2,68.4,30.12,West,275,8.0,8.0,61,0.00,,---,0.54,VWS V14.01,2013-09-16 17:13:00,
2013-09-16 13:14:00,83.3,67.0,30.12,West,276,2.0,8.0,58,0.00,,---,0.54,VWS V14.01,2013-09-16 17:14:00,
2013-09-16 13:15:00,83.4,67.6,30.12,North,349,2.0,2.0,59,0.00,,---,0.54,VWS V14.01,2013-09-16 17:15:00,
2013-09-16 13:16:00,83.5,66.7,30.12,NE,52,3.0,5.0,57,0.00,,---,0.54,VWS V14.01,2013-09-16 17:16:00,
2013-09-16 13:17:00,83.5,66.2,30.12,NW,322,3.0,3.0,56,0.00,,---,0.54,VWS V14.01,2013-09-16 17:17:00,
2013-09-16 13:18:00,83.4,65.6,30.12,NNE,32,2.0,4.0,55,0.00,,---,0.54,VWS V14.01,2013-09-16 17:18:00,
2013-09-16 13:20:00,83.4,66.1,30.12,NNW,342,3.0,3.0,56,0.00,,---,0.54,VWS V14.01,2013-09-16 17:20:00,
2013-09-16 13:21:00,83.4,66.1,30.12,NNE,17,3.0,5.0,56,0.00,,---,0.54,VWS V14.01,2013-09-16 17:21:00,
2013-09-16 13:22:00,83.4,66.1,30.11,North,355,3.0,3.0,56,0.00,,---,0.54,VWS V14.01,2013-09-16 17:22:00,
2013-09-16 13:23:00,83.2,64.8,30.11,West,277,4.0,6.0,54,0.00,,---,0.54,VWS V14.01,2013-09-16 17:23:00,
2013-09-16 13:24:00,83.2,65.4,30.12,West,268,3.0,6.0,55,0.00,,---,0.54,VWS V14.01,2013-09-16 17:24:00,
2013-09-16 13:25:00,83.0,65.7,30.11,West,275,5.0,6.0,56,0.00,,---,0.54,VWS V14.01,2013-09-16 17:25:00,
2013-09-16 13:26:00,82.9,65.6,30.11,WNW,286,5.0,6.0,56,0.00,,---,0.54,VWS V14.01,2013-09-16 17:26:00,
2013-09-16 13:27:00,82.8,66.0,30.11,NNW,342,4.0,6.0,57,0.00,,---,0.54,VWS V14.01,2013-09-16 17:27:00,
2013-09-16 13:28:00,82.8,66.0,30.11,ENE,59,2.0,5.0,57,0.00,,---,0.54,VWS V14.01,2013-09-16 17:28:00,
2013-09-16 13:29:00,82.8,65.5,30.11,NW,315,3.0,3.0,56,0.00,,---,0.54,VWS V14.01,2013-09-16 17:29:00,
2013-09-16 13:30:00,82.8,65.0,30.11,NW,321,2.0,2.0,55,0.00,,---,0.54,VWS V14.01,2013-09-16 17:30:00,
2013-09-16 13:31:00,82.8,65.0,30.11,NNW,344,2.0,3.0,55,0.00,,---,0.54,VWS V14.01,2013-09-16 17:31:00,
2013-09-16 13:32:00,82.8,65.0,30.11,NNE,32,3.0,4.0,55,0.00,,---,0.54,VWS V14.01,2013-09-16 17:32:00,
2013-09-16 13:33:00,82.9,65.1,30.11,NNE,26,7.0,7.0,55,0.00,,---,0.54,VWS V14.01,2013-09-16 17:33:00,
2013-09-16 13:34:00,82.9,64.6,30.11,NNE,32,3.0,7.0,54,0.00,,---,0.54,VWS V14.01,2013-09-16 17:34:00,
2013-09-16 13:35:00,82.9,65.1,30.11,NNW,333,1.0,3.0,55,0.00,,---,0.54,VWS V14.01,2013-09-16 17:35:00,
2013-09-16 13:37:00,83.0,65.7,30.11,NNE,19,3.0,4.0,56,0.00,,---,0.54,VWS V14.01,2013-09-16 17:37:00,
2013-09-16 13:38:00,83.0,64.7,30.11,NE,42,3.0,3.0,54,0.00,,---,0.54,VWS V14.01,2013-09-16 17:38:00,
2013-09-16 13:39:00,83.0,64.7,30.11,NE,44,4.0,5.0,54,0.00,,---,0.54,VWS V14.01,2013-09-16 17:39:00,
2013-09-16 13:40:00,82.9,64.0,30.11,NE,54,2.0,2.0,53,0.00,,---,0.54,VWS V14.01,2013-09-16 17:40:00,
2013-09-16 13:41:00,83.0,64.7,30.11,East,82,1.0,2.0,54,0.00,,---,0.54,VWS V14.01,2013-09-16 17:41:00,
2013-09-16 13:42:00,83.2,64.8,30.11,ENE,61,2.0,2.0,54,0.00,,---,0.54,VWS V14.01,2013-09-16 17:42:00,
2013-09-16 13:43:00,83.3,64.9,30.11,NNE,13,2.0,3.0,54,0.00,,---,0.54,VWS V14.01,2013-09-16 17:43:00,
2013-09-16 13:44:00,83.5,65.1,30.11,West,275,2.0,4.0,54,0.00,,---,0.54,VWS V14.01,2013-09-16 17:44:00,
2013-09-16 13:45:00,83.6,65.2,30.11,WSW,256,6.0,6.0,54,0.00,,---,0.54,VWS V14.01,2013-09-16 17:45:00,
2013-09-16 13:46:00,83.7,64.2,30.11,West,279,9.0,9.0,52,0.00,,---,0.54,VWS V14.01,2013-09-16 17:46:00,
2013-09-16 13:47:00,83.6,64.7,30.11,WNW,292,4.0,9.0,53,0.00,,---,0.54,VWS V14.01,2013-09-16 17:47:00,
2013-09-16 13:48:00,83.5,64.0,30.11,West,277,6.0,6.0,52,0.00,,---,0.54,VWS V14.01,2013-09-16 17:48:00,
2013-09-16 13:49:00,83.4,64.5,30.11,NNW,342,3.0,6.0,53,0.00,,---,0.54,VWS V14.01,2013-09-16 17:49:00,
2013-09-16 13:50:00,83.4,64.5,30.11,NNW,348,1.0,2.0,53,0.00,,---,0.54,VWS V14.01,2013-09-16 17:50:00,
2013-09-16 13:51:00,83.5,65.7,30.11,NW,315,3.0,3.0,55,0.00,,---,0.54,VWS V14.01,2013-09-16 17:51:00,
2013-09-16 13:52:00,83.6,64.7,30.11,WSW,252,4.0,4.0,53,0.00,,---,0.54,VWS V14.01,2013-09-16 17:52:00,
2013-09-16 13:53:00,83.6,64.7,30.11,WNW,303,2.0,4.0,53,0.00,,---,0.54,VWS V14.01,2013-09-16 17:53:00,
2013-09-16 13:54:00,83.7,65.3,30.11,NW,321,4.0,5.0,54,0.00,,---,0.54,VWS V14.01,2013-09-16 17:54:00,
2013-09-16 13:55:00,83.7,65.3,30.11,NNE,19,1.0,1.0,54,0.00,,---,0.54,VWS V14.01,2013-09-16 17:55:00,
2013-09-16 13:56:00,83.7,64.8,30.11,NE,42,1.0,2.0,53,0.00,,---,0.54,VWS V14.01,2013-09-16 17:56:00,
2013-09-16 13:57:00,83.7,64.8,30.11,NE,42,1.0,2.0,53,0.00,,---,0.54,VWS V14.01,2013-09-16 17:57:00,
2013-09-16 13:58:00,83.7,64.8,30.11,West,274,4.0,4.0,53,0.00,,---,0.54,VWS V14.01,2013-09-16 17:58:00,
2013-09-16 13:59:00,83.8,64.9,30.11,WNW,297,4.0,5.0,53,0.00,,---,0.54,VWS V14.01,2013-09-16 17:59:00,
2013-09-16 14:00:00,83.6,63.6,30.11,WSW,239,6.0,6.0,51,0.00,,---,0.54,VWS V14.01,2013-09-16 18:00:00,
2013-09-16 14:01:00,83.5,64.6,30.11,NE,36,1.0,6.0,53,0.00,,---,0.54,VWS V14.01,2013-09-16 18:01:00,
2013-09-16 14:02:00,83.5,65.1,30.11,SW,236,0.0,1.0,54,0.00,,---,0.54,VWS V14.01,2013-09-16 18:02:00,
2013-09-16 14:03:00,83.7,63.7,30.11,WNW,286,4.0,4.0,51,0.00,,---,0.54,VWS V14.01,2013-09-16 18:03:00,
2013-09-16 14:04:00,83.7,63.7,30.11,West,260,7.0,7.0,51,0.00,,---,0.54,VWS V14.01,2013-09-16 18:04:00,
2013-09-16 14:05:00,83.7,63.7,30.11,West,269,6.0,6.0,51,0.00,,---,0.54,VWS V14.01,2013-09-16 18:05:00,
2013-09-16 14:06:00,83.7,63.7,30.11,West,267,5.0,9.0,51,0.00,,---,0.54,VWS V14.01,2013-09-16 18:06:00,
2013-09-16 14:07:00,83.7,63.1,30.10,West,280,2.0,6.0,50,0.00,,---,0.54,VWS V14.01,2013-09-16 18:07:00,
2013-09-16 14:08:00,83.7,62.5,30.10,SW,224,5.0,5.0,49,0.00,,---,0.54,VWS V14.01,2013-09-16 18:08:00,
2013-09-16 14:09:00,83.8,63.2,30.10,NW,313,1.0,5.0,50,0.00,,---,0.54,VWS V14.01,2013-09-16 18:09:00,
2013-09-16 14:10:00,83.9,62.7,30.10,WNW,296,2.0,2.0,49,0.00,,---,0.54,VWS V14.01,2013-09-16 18:10:00,
2013-09-16 14:11:00,84.0,63.9,30.10,WNW,295,1.0,2.0,51,0.00,,---,0.54,VWS V14.01,2013-09-16 18:11:00,
2013-09-16 14:12:00,84.2,63.6,30.10,North,350,2.0,3.0,50,0.00,,---,0.54,VWS V14.01,2013-09-16 18:12:00,
2013-09-16 14:13:00,84.3,63.7,30.10,West,269,5.0,5.0,50,0.00,,---,0.54,VWS V14.01,2013-09-16 18:13:00,
2013-09-16 14:14:00,84.3,63.7,30.10,ENE,77,1.0,5.0,50,0.00,,---,0.54,VWS V14.01,2013-09-16 18:14:00,
2013-09-16 14:15:00,84.3,64.2,30.10,NNE,31,3.0,3.0,51,0.00,,---,0.54,VWS V14.01,2013-09-16 18:15:00,
2013-09-16 14:16:00,84.4,64.3,30.10,WSW,253,4.0,6.0,51,0.00,,---,0.54,VWS V14.01,2013-09-16 18:16:00,
2013-09-16 14:17:00,84.2,63.0,30.10,WSW,250,4.0,5.0,49,0.00,,---,0.54,VWS V14.01,2013-09-16 18:17:00,
2013-09-16 14:18:00,84.1,62.3,30.10,West,276,3.0,4.0,48,0.00,,---,0.54,VWS V14.01,2013-09-16 18:18:00,
2013-09-16 14:19:00,84.0,62.8,30.10,West,261,2.0,3.0,49,0.00,,---,0.54,VWS V14.01,2013-09-16 18:19:00,
2013-09-16 14:20:00,83.9,62.7,30.10,SW,232,3.0,3.0,49,0.00,,---,0.54,VWS V14.01,2013-09-16 18:20:00,
2013-09-16 14:21:00,83.8,62.6,30.10,WNW,299,5.0,8.0,49,0.00,,---,0.54,VWS V14.01,2013-09-16 18:21:00,
2013-09-16 14:22:00,83.7,63.1,30.10,West,269,4.0,6.0,50,0.00,,---,0.54,VWS V14.01,2013-09-16 18:22:00,
2013-09-16 14:23:00,83.6,62.4,30.10,WNW,286,4.0,6.0,49,0.00,,---,0.54,VWS V14.01,2013-09-16 18:23:00,
2013-09-16 14:24:00,83.5,62.9,30.10,NNE,30,3.0,5.0,50,0.00,,---,0.54,VWS V14.01,2013-09-16 18:24:00,
2013-09-16 14:25:00,83.5,62.9,30.10,WNW,286,2.0,3.0,50,0.00,,---,0.54,VWS V14.01,2013-09-16 18:25:00,
2013-09-16 14:26:00,83.5,63.5,30.10,ENE,59,3.0,3.0,51,0.00,,---,0.54,VWS V14.01,2013-09-16 18:26:00,
2013-09-16 14:27:00,83.6,64.1,30.10,NE,54,2.0,3.0,52,0.00,,---,0.54,VWS V14.01,2013-09-16 18:27:00,
2013-09-16 14:28:00,83.6,64.1,30.10,North,351,2.0,2.0,52,0.00,,---,0.54,VWS V14.01,2013-09-16 18:28:00,
2013-09-16 14:29:00,83.7,64.8,30.10,NNE,26,3.0,4.0,53,0.00,,---,0.54,VWS V14.01,2013-09-16 18:29:00,
2013-09-16 14:30:00,83.9,64.4,30.10,NNE,28,3.0,3.0,52,0.00,,---,0.54,VWS V14.01,2013-09-16 18:30:00,
2013-09-16 14:31:00,83.9,64.4,30.10,NNE,20,3.0,5.0,52,0.00,,---,0.54,VWS V14.01,2013-09-16 18:31:00,
2013-09-16 14:32:00,83.9,63.8,30.10,NNE,27,2.0,5.0,51,0.00,,---,0.54,VWS V14.01,2013-09-16 18:32:00,
2013-09-16 14:33:00,83.9,63.8,30.10,NNE,31,3.0,6.0,51,0.00,,---,0.54,VWS V14.01,2013-09-16 18:33:00,
2013-09-16 14:34:00,83.8,63.8,30.10,NE,44,4.0,5.0,51,0.00,,---,0.54,VWS V14.01,2013-09-16 18:34:00,
2013-09-16 14:35:00,83.7,63.1,30.09,NNE,30,3.0,4.0,50,0.00,,---,0.54,VWS V14.01,2013-09-16 18:35:00,
2013-09-16 14:36:00,83.6,63.0,30.09,North,11,3.0,4.0,50,0.00,,---,0.54,VWS V14.01,2013-09-16 18:36:00,
2013-09-16 14:37:00,83.6,63.6,30.09,NE,36,1.0,3.0,51,0.00,,---,0.54,VWS V14.01,2013-09-16 18:37:00,
2013-09-16 14:38:00,83.6,64.1,30.09,SE,125,0.0,1.0,52,0.00,,---,0.54,VWS V14.01,2013-09-16 18:38:00,
2013-09-16 14:39:00,83.8,64.3,30.09,East,80,2.0,2.0,52,0.00,,---,0.54,VWS V14.01,2013-09-16 18:39:00,
2013-09-16 14:40:00,84.1,65.1,30.09,West,267,1.0,1.0,53,0.00,,---,0.54,VWS V14.01,2013-09-16 18:40:00,
2013-09-16 14:41:00,84.3,64.8,30.09,West,281,2.0,2.0,52,0.00,,---,0.54,VWS V14.01,2013-09-16 18:41:00,
2013-09-16 14:42:00,84.5,65.0,30.09,ENE,69,1.0,3.0,52,0.00,,---,0.54,VWS V14.01,2013-09-16 18:42:00,
2013-09-16 14:43:00,84.7,65.1,30.09,NE,51,2.0,2.0,52,0.00,,---,0.54,VWS V14.01,2013-09-16 18:43:00,
2013-09-16 14:44:00,84.8,65.2,30.09,WNW,282,2.0,3.0,52,0.00,,---,0.54,VWS V14.01,2013-09-16 18:44:00,
2013-09-16 14:45:00,84.9,64.8,30.09,North,351,2.0,3.0,51,0.00,,---,0.54,VWS V14.01,2013-09-16 18:45:00,
2013-09-16 14:46:00,85.1,65.5,30.09,WSW,254,0.0,3.0,52,0.00,,---,0.54,VWS V14.01,2013-09-16 18:46:00,
2013-09-16 14:47:00,85.2,63.9,30.09,West,261,1.0,2.0,49,0.00,,---,0.54,VWS V14.01,2013-09-16 18:47:00,
2013-09-16 14:48:00,85.4,65.2,30.09,NNE,29,3.0,3.0,51,0.00,,---,0.54,VWS V14.01,2013-09-16 18:48:00,
2013-09-16 14:49:00,85.5,65.9,30.09,NNW,333,5.0,5.0,52,0.00,,---,0.54,VWS V14.01,2013-09-16 18:49:00,
2013-09-16 14:50:00,85.5,63.6,30.09,NNE,27,6.0,6.0,48,0.00,,---,0.54,VWS V14.01,2013-09-16 18:50:00,
2013-09-16 14:51:00,85.3,62.2,30.09,NE,46,3.0,6.0,46,0.00,,---,0.54,VWS V14.01,2013-09-16 18:51:00,
2013-09-16 14:52:00,85.1,62.6,30.09,NNE,15,4.0,4.0,47,0.00,,---,0.54,VWS V14.01,2013-09-16 18:52:00,
2013-09-16 14:53:00,85.0,62.5,30.09,NE,35,3.0,6.0,47,0.00,,---,0.54,VWS V14.01,2013-09-16 18:53:00,
2013-09-16 14:54:00,84.9,62.4,30.09,NE,52,2.0,3.0,47,0.00,,---,0.54,VWS V14.01,2013-09-16 18:54:00,
2013-09-16 14:55:00,84.8,62.3,30.09,ENE,59,2.0,4.0,47,0.00,,---,0.54,VWS V14.01,2013-09-16 18:55:00,
2013-09-16 14:56:00,84.7,62.9,30.08,North,349,2.0,3.0,48,0.00,,---,0.54,VWS V14.01,2013-09-16 18:56:00,
2013-09-16 14:57:00,84.5,62.7,30.08,NE,47,4.0,5.0,48,0.00,,---,0.54,VWS V14.01,2013-09-16 18:57:00,
2013-09-16 14:58:00,84.5,63.3,30.08,NE,36,2.0,4.0,49,0.00,,---,0.54,VWS V14.01,2013-09-16 18:58:00,
2013-09-16 14:59:00,84.4,63.2,30.08,NNE,24,2.0,2.0,49,0.00,,---,0.54,VWS V14.01,2013-09-16 18:59:00,
2013-09-16 15:00:00,84.4,63.8,30.08,NNE,30,3.0,4.0,50,0.00,,---,0.54,VWS V14.01,2013-09-16 19:00:00,
2013-09-16 15:01:00,84.4,63.2,30.08,WNW,296,3.0,4.0,49,0.00,,---,0.54,VWS V14.01,2013-09-16 19:01:00,
2013-09-16 15:02:00,84.4,64.3,30.08,West,261,2.0,5.0,51,0.00,,---,0.54,VWS V14.01,2013-09-16 19:02:00,
2013-09-16 15:03:00,84.5,63.3,30.08,WSW,245,3.0,4.0,49,0.00,,---,0.54,VWS V14.01,2013-09-16 19:03:00,
2013-09-16 15:04:00,84.5,63.3,30.08,WSW,242,2.0,6.0,49,0.00,,---,0.54,VWS V14.01,2013-09-16 19:04:00,
2013-09-16 15:05:00,84.6,62.2,30.08,ENE,63,2.0,4.0,47,0.00,,---,0.54,VWS V14.01,2013-09-16 19:05:00,
2013-09-16 15:06:00,84.7,63.4,30.08,NNW,340,1.0,3.0,49,0.00,,---,0.54,VWS V14.01,2013-09-16 19:06:00,
2013-09-16 15:07:00,84.7,63.4,30.08,NE,46,1.0,3.0,49,0.00,,---,0.54,VWS V14.01,2013-09-16 19:07:00,
2013-09-16 15:08:00,84.8,63.5,30.08,NNW,344,1.0,2.0,49,0.00,,---,0.54,VWS V14.01,2013-09-16 19:08:00,
2013-09-16 15:09:00,85.0,63.7,30.08,NE,39,2.0,2.0,49,0.00,,---,0.54,VWS V14.01,2013-09-16 19:09:00,
2013-09-16 15:10:00,85.1,63.2,30.08,NE,55,2.0,3.0,48,0.00,,---,0.54,VWS V14.01,2013-09-16 19:10:00,
2013-09-16 15:11:00,85.2,63.3,30.08,NNE,27,4.0,4.0,48,0.00,,---,0.54,VWS V14.01,2013-09-16 19:11:00,
2013-09-16 15:12:00,85.2,63.3,30.08,NE,42,4.0,4.0,48,0.00,,---,0.54,VWS V14.01,2013-09-16 19:12:00,
2013-09-16 15:13:00,85.1,63.2,30.08,NNE,27,5.0,6.0,48,0.00,,---,0.54,VWS V14.01,2013-09-16 19:13:00,
2013-09-16 15:14:00,85.0,62.5,30.08,NNE,19,6.0,6.0,47,0.00,,---,0.54,VWS V14.01,2013-09-16 19:14:00,
2013-09-16 15:15:00,84.9,62.4,30.08,ENE,61,4.0,6.0,47,0.00,,---,0.54,VWS V14.01,2013-09-16 19:15:00,
2013-09-16 15:16:00,84.8,63.0,30.08,NE,43,5.0,5.0,48,0.00,,---,0.54,VWS V14.01,2013-09-16 19:16:00,
2013-09-16 15:17:00,84.7,62.3,30.08,NE,34,3.0,5.0,47,0.00,,---,0.54,VWS V14.01,2013-09-16 19:17:00,
2013-09-16 15:18:00,84.6,62.2,30.08,NNE,26,2.0,4.0,47,0.00,,---,0.54,VWS V14.01,2013-09-16 19:18:00,
2013-09-16 15:19:00,84.5,62.7,30.08,NE,34,2.0,2.0,48,0.00,,---,0.54,VWS V14.01,2013-09-16 19:19:00,
2013-09-16 15:20:00,84.4,62.6,30.08,NE,42,1.0,2.0,48,0.00,,---,0.54,VWS V14.01,2013-09-16 19:20:00,
2013-09-16 15:21:00,84.4,62.6,30.08,NNE,31,2.0,5.0,48,0.00,,---,0.54,VWS V14.01,2013-09-16 19:21:00,
2013-09-16 15:22:00,84.4,62.6,30.08,NNW,340,3.0,3.0,48,0.00,,---,0.54,VWS V14.01,2013-09-16 19:22:00,
2013-09-16 15:23:00,84.4,63.2,30.08,NNE,27,2.0,3.0,49,0.00,,---,0.54,VWS V14.01,2013-09-16 19:23:00,
2013-09-16 15:24:00,84.3,63.7,30.08,NNE,32,4.0,4.0,50,0.00,,---,0.54,VWS V14.01,2013-09-16 19:24:00,
2013-09-16 15:25:00,84.3,63.7,30.08,NNE,28,6.0,6.0,50,0.00,,---,0.54,VWS V14.01,2013-09-16 19:25:00,
2013-09-16 15:26:00,84.3,63.7,30.08,NNE,31,2.0,6.0,50,0.00,,---,0.54,VWS V14.01,2013-09-16 19:26:00,
2013-09-16 15:27:00,84.3,64.8,30.08,West,259,2.0,4.0,52,0.00,,---,0.54,VWS V14.01,2013-09-16 19:27:00,
2013-09-16 15:28:00,84.4,64.9,30.08,NNW,336,2.0,2.0,52,0.00,,---,0.54,VWS V14.01,2013-09-16 19:28:00,
2013-09-16 15:29:00,84.6,65.1,30.08,NNW,331,1.0,3.0,52,0.00,,---,0.54,VWS V14.01,2013-09-16 19:29:00,
2013-09-16 15:30:00,84.8,64.7,30.08,NNE,20,2.0,3.0,51,0.00,,---,0.54,VWS V14.01,2013-09-16 19:30:00,
2013-09-16 15:31:00,85.0,64.9,30.08,North,351,2.0,2.0,51,0.00,,---,0.54,VWS V14.01,2013-09-16 19:31:00,
2013-09-16 15:32:00,85.0,63.7,30.08,NE,36,4.0,6.0,49,0.00,,---,0.54,VWS V14.01,2013-09-16 19:32:00,
2013-09-16 15:33:00,84.9,63.6,30.08,NNE,32,4.0,6.0,49,0.00,,---,0.54,VWS V14.01,2013-09-16 19:33:00,
2013-09-16 15:34:00,84.7,63.4,30.08,NE,43,4.0,5.0,49,0.00,,---,0.54,VWS V14.01,2013-09-16 19:34:00,
2013-09-16 15:35:00,84.6,64.5,30.08,NE,40,2.0,5.0,51,0.00,,---,0.54,VWS V14.01,2013-09-16 19:35:00,
2013-09-16 15:36:00,84.5,63.8,30.08,NE,36,3.0,6.0,50,0.00,,---,0.54,VWS V14.01,2013-09-16 19:36:00,
2013-09-16 15:37:00,84.4,63.2,30.07,NE,51,4.0,6.0,49,0.00,,---,0.54,VWS V14.01,2013-09-16 19:37:00,
2013-09-16 15:38:00,84.3,63.1,30.08,NNE,24,2.0,4.0,49,0.00,,---,0.54,VWS V14.01,2013-09-16 19:38:00,
2013-09-16 15:39:00,84.3,63.7,30.08,NE,52,2.0,2.0,50,0.00,,---,0.54,VWS V14.01,2013-09-16 19:39:00,
2013-09-16 15:40:00,84.4,63.2,30.08,NNE,32,4.0,5.0,49,0.00,,---,0.54,VWS V14.01,2013-09-16 19:40:00,
2013-09-16 15:41:00,84.4,62.0,30.08,ENE,63,2.0,4.0,47,0.00,,---,0.54,VWS V14.01,2013-09-16 19:41:00,
2013-09-16 15:42:00,84.3,62.5,30.07,ENE,57,3.0,3.0,48,0.00,,---,0.54,VWS V14.01,2013-09-16 19:42:00,
2013-09-16 15:43:00,84.3,61.9,30.07,NNE,27,2.0,3.0,47,0.00,,---,0.54,VWS V14.01,2013-09-16 19:43:00,
2013-09-16 15:44:00,84.2,62.4,30.07,NE,52,3.0,3.0,48,0.00,,---,0.54,VWS V14.01,2013-09-16 19:44:00,
2013-09-16 15:45:00,84.2,63.0,30.07,NE,53,4.0,4.0,49,0.00,,---,0.54,VWS V14.01,2013-09-16 19:45:00,
2013-09-16 15:46:00,84.2,62.4,30.07,ENE,57,4.0,4.0,48,0.00,,---,0.54,VWS V14.01,2013-09-16 19:46:00,
2013-09-16 15:47:00,84.2,61.8,30.07,ENE,61,4.0,5.0,47,0.00,,---,0.54,VWS V14.01,2013-09-16 19:47:00,
2013-09-16 15:48:00,84.1,61.1,30.07,ENE,59,1.0,4.0,46,0.00,,---,0.54,VWS V14.01,2013-09-16 19:48:00,
2013-09-16 15:49:00,84.1,61.7,30.07,NNE,24,2.0,2.0,47,0.00,,---,0.54,VWS V14.01,2013-09-16 19:49:00,
2013-09-16 15:50:00,84.2,62.4,30.07,North,349,3.0,3.0,48,0.00,,---,0.54,VWS V14.01,2013-09-16 19:50:00,
2013-09-16 15:51:00,84.3,62.5,30.07,NNE,24,1.0,3.0,48,0.00,,---,0.54,VWS V14.01,2013-09-16 19:51:00,
2013-09-16 15:52:00,84.3,61.9,30.07,NE,46,4.0,4.0,47,0.00,,---,0.54,VWS V14.01,2013-09-16 19:52:00,
2013-09-16 15:53:00,84.4,62.0,30.07,NNW,327,1.0,5.0,47,0.00,,---,0.54,VWS V14.01,2013-09-16 19:53:00,
2013-09-16 15:54:00,84.4,62.6,30.07,West,277,1.0,2.0,48,0.00,,---,0.54,VWS V14.01,2013-09-16 19:54:00,
2013-09-16 15:55:00,84.5,61.5,30.07,WNW,283,2.0,4.0,46,0.00,,---,0.54,VWS V14.01,2013-09-16 19:55:00,
2013-09-16 15:56:00,84.6,63.3,30.07,West,259,2.0,2.0,49,0.00,,---,0.54,VWS V14.01,2013-09-16 19:56:00,
2013-09-16 15:57:00,84.7,62.9,30.07,West,264,3.0,6.0,48,0.00,,---,0.54,VWS V14.01,2013-09-16 19:57:00,
2013-09-16 15:58:00,84.8,63.0,30.07,WSW,241,4.0,5.0,48,0.00,,---,0.54,VWS V14.01,2013-09-16 19:58:00,
2013-09-16 15:59:00,84.8,62.3,30.07,NNW,342,3.0,4.0,47,0.00,,---,0.54,VWS V14.01,2013-09-16 19:59:00,
2013-09-16 16:00:00,84.8,63.0,30.07,NNW,343,3.0,5.0,48,0.00,,---,0.54,VWS V14.01,2013-09-16 20:00:00,
2013-09-16 16:01:00,84.7,61.0,30.07,NNE,28,2.0,3.0,45,0.00,,---,0.54,VWS V14.01,2013-09-16 20:01:00,
2013-09-16 16:02:00,84.7,61.7,30.07,NNE,22,2.0,2.0,46,0.00,,---,0.54,VWS V14.01,2013-09-16 20:02:00,
2013-09-16 16:03:00,84.6,61.6,30.07,NNW,329,1.0,2.0,46,0.00,,---,0.54,VWS V14.01,2013-09-16 20:03:00,
2013-09-16 16:04:00,84.7,62.9,30.07,North,350,3.0,3.0,48,0.00,,---,0.54,VWS V14.01,2013-09-16 20:04:00,
2013-09-16 16:05:00,84.7,62.9,30.07,West,270,0.0,3.0,48,0.00,,---,0.54,VWS V14.01,2013-09-16 20:05:00,
2013-09-16 16:06:00,84.8,63.0,30.07,NE,44,0.0,2.0,48,0.00,,---,0.54,VWS V14.01,2013-09-16 20:06:00,
2013-09-16 16:07:00,84.9,61.8,30.07,North,360,2.0,2.0,46,0.00,,---,0.54,VWS V14.01,2013-09-16 20:07:00,
2013-09-16 16:08:00,84.9,61.8,30.07,NNW,333,0.0,2.0,46,0.00,,---,0.54,VWS V14.01,2013-09-16 20:08:00,
2013-09-16 16:09:00,84.9,62.4,30.06,NW,322,0.0,0.0,47,0.00,,---,0.54,VWS V14.01,2013-09-16 20:09:00,
2013-09-16 16:10:00,84.9,62.4,30.06,NW,321,0.0,0.0,47,0.00,,---,0.54,VWS V14.01,2013-09-16 20:10:00,
2013-09-16 16:11:00,84.9,63.0,30.07,NW,321,0.0,0.0,48,0.00,,---,0.54,VWS V14.01,2013-09-16 20:11:00,
2013-09-16 16:12:00,84.9,62.4,30.07,NNW,336,3.0,3.0,47,0.00,,---,0.54,VWS V14.01,2013-09-16 20:12:00,
2013-09-16 16:13:00,84.8,62.3,30.07,North,350,2.0,3.0,47,0.00,,---,0.54,VWS V14.01,2013-09-16 20:13:00,
2013-09-16 16:14:00,84.7,62.3,30.07,NNW,340,2.0,3.0,47,0.00,,---,0.54,VWS V14.01,2013-09-16 20:14:00,
2013-09-16 16:15:00,84.7,62.3,30.07,NNW,340,1.0,3.0,47,0.00,,---,0.54,VWS V14.01,2013-09-16 20:15:00,
2013-09-16 16:16:00,84.6,62.2,30.07,NE,52,3.0,3.0,47,0.00,,---,0.54,VWS V14.01,2013-09-16 20:16:00,
2013-09-16 16:17:00,84.6,62.2,30.07,NNE,17,3.0,3.0,47,0.00,,---,0.54,VWS V14.01,2013-09-16 20:17:00,
2013-09-16 16:18:00,84.6,62.2,30.07,NNE,27,4.0,4.0,47,0.00,,---,0.54,VWS V14.01,2013-09-16 20:18:00,
2013-09-16 16:19:00,84.5,62.1,30.07,NNE,19,4.0,4.0,47,0.00,,---,0.54,VWS V14.01,2013-09-16 20:19:00,
2013-09-16 16:20:00,84.5,62.1,30.07,NNE,32,4.0,4.0,47,0.00,,---,0.54,VWS V14.01,2013-09-16 20:20:00,
2013-09-16 16:21:00,84.4,61.4,30.07,NNE,27,5.0,5.0,46,0.00,,---,0.54,VWS V14.01,2013-09-16 20:21:00,
2013-09-16 16:22:00,84.3,61.3,30.07,NNW,337,2.0,5.0,46,0.00,,---,0.54,VWS V14.01,2013-09-16 20:22:00,
2013-09-16 16:23:00,84.3,61.9,30.07,NNW,348,2.0,2.0,47,0.00,,---,0.54,VWS V14.01,2013-09-16 20:23:00,
2013-09-16 16:24:00,84.4,62.6,30.07,ENE,69,2.0,2.0,48,0.00,,---,0.54,VWS V14.01,2013-09-16 20:24:00,
2013-09-16 16:25:00,84.4,62.6,30.07,NNE,24,2.0,2.0,48,0.00,,---,0.54,VWS V14.01,2013-09-16 20:25:00,
2013-09-16 16:26:00,84.5,62.7,30.07,North,5,1.0,2.0,48,0.00,,---,0.54,VWS V14.01,2013-09-16 20:26:00,
2013-09-16 16:27:00,84.6,62.2,30.07,NNE,31,4.0,5.0,47,0.00,,---,0.54,VWS V14.01,2013-09-16 20:27:00,
2013-09-16 16:28:00,84.6,61.6,30.07,NNW,341,1.0,4.0,46,0.00,,---,0.54,VWS V14.01,2013-09-16 20:28:00,
2013-09-16 16:29:00,84.8,62.3,30.07,WSW,254,1.0,3.0,47,0.00,,---,0.54,VWS V14.01,2013-09-16 20:29:00,
2013-09-16 16:30:00,84.8,62.3,30.07,WNW,295,2.0,3.0,47,0.00,,---,0.54,VWS V14.01,2013-09-16 20:30:00,
2013-09-16 16:31:00,85.0,61.9,30.07,NW,325,2.0,5.0,46,0.00,,---,0.54,VWS V14.01,2013-09-16 20:31:00,
2013-09-16 16:32:00,85.0,61.9,30.07,NE,37,2.0,2.0,46,0.00,,---,0.54,VWS V14.01,2013-09-16 20:32:00,
2013-09-16 16:33:00,85.0,62.5,30.07,WNW,290,1.0,2.0,47,0.00,,---,0.54,VWS V14.01,2013-09-16 20:33:00,
2013-09-16 16:34:00,85.1,62.6,30.07,NW,315,2.0,4.0,47,0.00,,---,0.54,VWS V14.01,2013-09-16 20:34:00,
2013-09-16 16:35:00,85.2,62.7,30.07,NW,309,1.0,4.0,47,0.00,,---,0.54,VWS V14.01,2013-09-16 20:35:00,
2013-09-16 16:36:00,85.2,62.1,30.07,West,275,4.0,5.0,46,0.00,,---,0.54,VWS V14.01,2013-09-16 20:36:00,
2013-09-16 16:37:00,85.1,62.0,30.07,West,264,1.0,4.0,46,0.00,,---,0.54,VWS V14.01,2013-09-16 20:37:00,
2013-09-16 16:38:00,85.1,62.0,30.07,SW,236,3.0,3.0,46,0.00,,---,0.54,VWS V14.01,2013-09-16 20:38:00,
2013-09-16 16:39:00,85.2,63.3,30.07,NNW,333,2.0,5.0,48,0.00,,---,0.54,VWS V14.01,2013-09-16 20:39:00,
2013-09-16 16:40:00,85.3,62.2,30.07,NE,39,2.0,5.0,46,0.00,,---,0.54,VWS V14.01,2013-09-16 20:40:00,
2013-09-16 16:41:00,85.4,62.9,30.07,West,268,3.0,5.0,47,0.00,,---,0.54,VWS V14.01,2013-09-16 20:41:00,
2013-09-16 16:42:00,85.4,61.7,30.07,NW,321,2.0,7.0,45,0.00,,---,0.54,VWS V14.01,2013-09-16 20:42:00,
2013-09-16 16:43:00,85.4,62.9,30.07,West,280,3.0,6.0,47,0.00,,---,0.54,VWS V14.01,2013-09-16 20:43:00,
2013-09-16 16:44:00,85.4,62.3,30.07,West,264,2.0,4.0,46,0.00,,---,0.54,VWS V14.01,2013-09-16 20:44:00,
2013-09-16 16:45:00,85.4,62.3,30.07,West,264,1.0,4.0,46,0.00,,---,0.54,VWS V14.01,2013-09-16 20:45:00,
2013-09-16 16:47:00,85.5,63.6,30.07,NNW,347,1.0,2.0,48,0.00,,---,0.54,VWS V14.01,2013-09-16 20:47:00,
2013-09-16 16:48:00,85.6,63.1,30.07,NNW,347,1.0,1.0,47,0.00,,---,0.54,VWS V14.01,2013-09-16 20:48:00,
2013-09-16 16:49:00,85.6,62.5,30.07,NW,306,1.0,2.0,46,0.00,,---,0.54,VWS V14.01,2013-09-16 20:49:00,
2013-09-16 16:50:00,85.6,62.5,30.07,NNE,16,1.0,2.0,46,0.00,,---,0.54,VWS V14.01,2013-09-16 20:50:00,
2013-09-16 16:51:00,85.5,61.8,30.08,NNW,327,5.0,6.0,45,0.00,,---,0.54,VWS V14.01,2013-09-16 20:51:00,
2013-09-16 16:52:00,85.4,62.3,30.07,WSW,256,1.0,5.0,46,0.00,,---,0.54,VWS V14.01,2013-09-16 20:52:00,
2013-09-16 16:53:00,85.4,62.9,30.07,NW,312,1.0,1.0,47,0.00,,---,0.54,VWS V14.01,2013-09-16 20:53:00,
2013-09-16 16:54:00,85.5,62.4,30.07,WSW,245,1.0,3.0,46,0.00,,---,0.54,VWS V14.01,2013-09-16 20:54:00,
2013-09-16 16:55:00,85.5,62.4,30.07,WNW,297,2.0,3.0,46,0.00,,---,0.54,VWS V14.01,2013-09-16 20:55:00,
2013-09-16 16:56:00,85.5,62.4,30.08,WNW,283,1.0,2.0,46,0.00,,---,0.54,VWS V14.01,2013-09-16 20:56:00,
2013-09-16 16:57:00,85.6,62.5,30.08,NE,36,2.0,2.0,46,0.00,,---,0.54,VWS V14.01,2013-09-16 20:57:00,
2013-09-16 16:58:00,85.6,62.5,30.07,West,276,0.0,6.0,46,0.00,,---,0.54,VWS V14.01,2013-09-16 20:58:00,
2013-09-16 16:59:00,85.6,62.5,30.07,WSW,257,0.0,0.0,46,0.00,,---,0.54,VWS V14.01,2013-09-16 20:59:00,
2013-09-16 17:00:00,85.6,62.5,30.07,WSW,257,2.0,2.0,46,0.00,,---,0.54,VWS V14.01,2013-09-16 21:00:00,
2013-09-16 17:01:00,85.6,62.5,30.07,NE,55,3.0,3.0,46,0.00,,---,0.54,VWS V14.01,2013-09-16 21:01:00,
2013-09-16 17:02:00,85.6,61.8,30.07,WSW,256,1.0,3.0,45,0.00,,---,0.54,VWS V14.01,2013-09-16 21:02:00,
2013-09-16 17:03:00,85.6,61.8,30.07,NNE,12,1.0,3.0,45,0.00,,---,0.54,VWS V14.01,2013-09-16 21:03:00,
2013-09-16 17:04:00,85.6,62.5,30.07,WNW,303,1.0,2.0,46,0.00,,---,0.54,VWS V14.01,2013-09-16 21:04:00,
2013-09-16 17:05:00,85.6,62.5,30.07,West,278,2.0,2.0,46,0.00,,---,0.54,VWS V14.01,2013-09-16 21:05:00,
2013-09-16 17:06:00,85.6,61.8,30.07,West,276,4.0,4.0,45,0.00,,---,0.54,VWS V14.01,2013-09-16 21:06:00,
2013-09-16 17:07:00,85.5,61.8,30.07,NNW,348,1.0,4.0,45,0.00,,---,0.54,VWS V14.01,2013-09-16 21:07:00,
2013-09-16 17:08:00,85.5,63.6,30.08,WSW,253,4.0,6.0,48,0.00,,---,0.54,VWS V14.01,2013-09-16 21:08:00,
2013-09-16 17:09:00,85.3,61.6,30.07,West,273,1.0,3.0,45,0.00,,---,0.54,VWS V14.01,2013-09-16 21:09:00,
2013-09-16 17:10:00,85.3,62.2,30.07,West,279,1.0,3.0,46,0.00,,---,0.54,VWS V14.01,2013-09-16 21:10:00,
2013-09-16 17:11:00,85.3,62.8,30.07,West,281,1.0,1.0,47,0.00,,---,0.54,VWS V14.01,2013-09-16 21:11:00,
2013-09-16 17:12:00,85.4,62.3,30.07,NNW,327,2.0,2.0,46,0.00,,---,0.54,VWS V14.01,2013-09-16 21:12:00,
2013-09-16 17:13:00,85.4,62.3,30.07,NNW,327,3.0,3.0,46,0.00,,---,0.54,VWS V14.01,2013-09-16 21:13:00,
2013-09-16 17:14:00,85.5,62.4,30.07,West,263,2.0,2.0,46,0.00,,---,0.54,VWS V14.01,2013-09-16 21:14:00,
2013-09-16 17:15:00,85.5,61.8,30.07,West,267,2.0,2.0,45,0.00,,---,0.54,VWS V14.01,2013-09-16 21:15:00,
2013-09-16 17:16:00,85.6,62.5,30.07,West,269,1.0,3.0,46,0.00,,---,0.54,VWS V14.01,2013-09-16 21:16:00,
2013-09-16 17:17:00,85.6,62.5,30.07,NW,306,2.0,2.0,46,0.00,,---,0.54,VWS V14.01,2013-09-16 21:17:00,
2013-09-16 17:18:00,85.6,62.5,30.07,WSW,248,0.0,2.0,46,0.00,,---,0.54,VWS V14.01,2013-09-16 21:18:00,
2013-09-16 17:19:00,85.7,63.2,30.07,NNW,338,0.0,1.0,47,0.00,,---,0.54,VWS V14.01,2013-09-16 21:19:00,
2013-09-16 17:20:00,85.7,63.2,30.07,NNW,338,0.0,1.0,47,0.00,,---,0.54,VWS V14.01,2013-09-16 21:20:00,
2013-09-16 17:21:00,85.7,62.6,30.08,NW,318,1.0,3.0,46,0.00,,---,0.54,VWS V14.01,2013-09-16 21:21:00,
2013-09-16 17:22:00,85.7,62.6,30.07,WNW,286,1.0,2.0,46,0.00,,---,0.54,VWS V14.01,2013-09-16 21:22:00,
2013-09-16 17:23:00,85.8,63.3,30.08,NW,315,3.0,3.0,47,0.00,,---,0.54,VWS V14.01,2013-09-16 21:23:00,
2013-09-16 17:24:00,85.7,63.8,30.08,WNW,296,1.0,2.0,48,0.00,,---,0.54,VWS V14.01,2013-09-16 21:24:00,
2013-09-16 17:25:00,85.7,63.8,30.08,WNW,296,2.0,2.0,48,0.00,,---,0.54,VWS V14.01,2013-09-16 21:25:00,
2013-09-16 17:26:00,85.7,62.6,30.08,West,276,2.0,2.0,46,0.00,,---,0.54,VWS V14.01,2013-09-16 21:26:00,
2013-09-16 17:27:00,85.7,62.6,30.08,West,279,1.0,2.0,46,0.00,,---,0.54,VWS V14.01,2013-09-16 21:27:00,
2013-09-16 17:28:00,85.6,62.5,30.08,WSW,257,1.0,5.0,46,0.00,,---,0.54,VWS V14.01,2013-09-16 21:28:00,
2013-09-16 17:29:00,85.5,63.0,30.08,NNW,334,1.0,1.0,47,0.00,,---,0.54,VWS V14.01,2013-09-16 21:29:00,
2013-09-16 17:30:00,85.5,63.0,30.08,WNW,299,4.0,4.0,47,0.00,,---,0.54,VWS V14.01,2013-09-16 21:30:00,
2013-09-16 17:31:00,85.4,62.3,30.08,West,264,1.0,6.0,46,0.00,,---,0.54,VWS V14.01,2013-09-16 21:31:00,
2013-09-16 17:32:00,85.3,62.8,30.08,SW,217,3.0,3.0,47,0.00,,---,0.54,VWS V14.01,2013-09-16 21:32:00,
2013-09-16 17:33:00,85.3,64.0,30.08,NNW,331,1.0,3.0,49,0.00,,---,0.54,VWS V14.01,2013-09-16 21:33:00,
2013-09-16 17:34:00,85.3,64.0,30.08,NNW,336,1.0,1.0,49,0.00,,---,0.54,VWS V14.01,2013-09-16 21:34:00,
2013-09-16 17:35:00,85.3,64.0,30.08,NE,36,4.0,4.0,49,0.00,,---,0.54,VWS V14.01,2013-09-16 21:35:00,
2013-09-16 17:36:00,85.2,62.1,30.08,NNE,17,2.0,4.0,46,0.00,,---,0.54,VWS V14.01,2013-09-16 21:36:00,
2013-09-16 17:37:00,85.0,61.3,30.08,NNE,16,0.0,3.0,45,0.00,,---,0.54,VWS V14.01,2013-09-16 21:37:00,
2013-09-16 17:38:00,84.9,62.4,30.08,NNE,15,1.0,1.0,47,0.00,,---,0.54,VWS V14.01,2013-09-16 21:38:00,
2013-09-16 17:39:00,84.8,62.3,30.08,NNE,14,2.0,2.0,47,0.00,,---,0.54,VWS V14.01,2013-09-16 21:39:00,
2013-09-16 17:40:00,84.8,63.0,30.08,NNE,14,0.0,2.0,48,0.00,,---,0.54,VWS V14.01,2013-09-16 21:40:00,
2013-09-16 17:41:00,84.8,62.3,30.08,North,360,1.0,1.0,47,0.00,,---,0.54,VWS V14.01,2013-09-16 21:41:00,
2013-09-16 17:42:00,84.8,63.5,30.08,North,360,1.0,1.0,49,0.00,,---,0.54,VWS V14.01,2013-09-16 21:42:00,
2013-09-16 17:43:00,84.8,63.0,30.08,North,360,0.0,1.0,48,0.00,,---,0.54,VWS V14.01,2013-09-16 21:43:00,
2013-09-16 17:44:00,84.9,63.0,30.08,NW,311,3.0,5.0,48,0.00,,---,0.54,VWS V14.01,2013-09-16 21:44:00,
2013-09-16 17:45:00,84.9,62.4,30.08,NW,312,1.0,5.0,47,0.00,,---,0.54,VWS V14.01,2013-09-16 21:45:00,
2013-09-16 17:46:00,84.9,62.4,30.08,NW,313,0.0,1.0,47,0.00,,---,0.54,VWS V14.01,2013-09-16 21:46:00,
2013-09-16 17:47:00,84.8,62.3,30.08,NW,312,1.0,1.0,47,0.00,,---,0.54,VWS V14.01,2013-09-16 21:47:00,
2013-09-16 17:48:00,84.7,62.9,30.08,NW,313,0.0,1.0,48,0.00,,---,0.54,VWS V14.01,2013-09-16 21:48:00,
2013-09-16 17:49:00,84.5,62.7,30.08,WSW,246,0.0,1.0,48,0.00,,---,0.54,VWS V14.01,2013-09-16 21:49:00,
2013-09-16 17:50:00,84.6,62.8,30.08,WSW,246,0.0,1.0,48,0.00,,---,0.54,VWS V14.01,2013-09-16 21:50:00,
2013-09-16 17:51:00,84.5,62.7,30.08,West,260,1.0,1.0,48,0.00,,---,0.54,VWS V14.01,2013-09-16 21:51:00,
2013-09-16 17:52:00,84.4,62.6,30.08,West,260,1.0,1.0,48,0.00,,---,0.54,VWS V14.01,2013-09-16 21:52:00,
2013-09-16 17:53:00,84.3,63.1,30.08,West,272,0.0,1.0,49,0.00,,---,0.54,VWS V14.01,2013-09-16 21:53:00,
2013-09-16 17:54:00,84.1,62.9,30.08,WNW,295,1.0,2.0,49,0.00,,---,0.54,VWS V14.01,2013-09-16 21:54:00,
2013-09-16 17:55:00,84.1,62.9,30.08,WNW,295,1.0,2.0,49,0.00,,---,0.54,VWS V14.01,2013-09-16 21:55:00,
2013-09-16 17:56:00,83.9,62.7,30.08,North,350,1.0,3.0,49,0.00,,---,0.54,VWS V14.01,2013-09-16 21:56:00,
2013-09-16 17:57:00,83.8,63.2,30.08,North,355,0.0,1.0,50,0.00,,---,0.54,VWS V14.01,2013-09-16 21:57:00,
2013-09-16 17:58:00,83.7,63.7,30.08,North,350,0.0,0.0,51,0.00,,---,0.54,VWS V14.01,2013-09-16 21:58:00,
2013-09-16 17:59:00,83.6,63.0,30.08,NNW,340,1.0,1.0,50,0.00,,---,0.54,VWS V14.01,2013-09-16 21:59:00,
2013-09-16 18:00:00,83.6,63.0,30.08,North,349,2.0,2.0,50,0.00,,---,0.54,VWS V14.01,2013-09-16 22:00:00,
2013-09-16 18:01:00,83.6,62.4,30.08,NNE,18,0.0,2.0,49,0.00,,---,0.54,VWS V14.01,2013-09-16 22:01:00,
2013-09-16 18:02:00,83.5,63.5,30.08,NNW,340,1.0,2.0,51,0.00,,---,0.54,VWS V14.01,2013-09-16 22:02:00,
2013-09-16 18:03:00,83.5,63.5,30.08,NNW,339,0.0,1.0,51,0.00,,---,0.54,VWS V14.01,2013-09-16 22:03:00,
2013-09-16 18:04:00,83.3,63.3,30.08,NNW,340,1.0,1.0,51,0.00,,---,0.54,VWS V14.01,2013-09-16 22:04:00,
2013-09-16 18:05:00,83.3,63.3,30.08,NNW,340,0.0,1.0,51,0.00,,---,0.54,VWS V14.01,2013-09-16 22:05:00,
2013-09-16 18:06:00,83.2,63.2,30.08,NNW,340,0.0,1.0,51,0.00,,---,0.54,VWS V14.01,2013-09-16 22:06:00,
2013-09-16 18:07:00,83.1,63.1,30.08,NNW,340,0.0,1.0,51,0.00,,---,0.54,VWS V14.01,2013-09-16 22:07:00,
2013-09-16 18:08:00,83.0,63.6,30.08,NNW,340,1.0,1.0,52,0.00,,---,0.54,VWS V14.01,2013-09-16 22:08:00,
2013-09-16 18:09:00,82.8,63.9,30.08,NNE,33,4.0,5.0,53,0.00,,---,0.54,VWS V14.01,2013-09-16 22:09:00,
2013-09-16 18:10:00,82.8,63.9,30.08,NE,43,3.0,5.0,53,0.00,,---,0.54,VWS V14.01,2013-09-16 22:10:00,
2013-09-16 18:11:00,82.7,63.8,30.09,ENE,66,5.0,5.0,53,0.00,,---,0.54,VWS V14.01,2013-09-16 22:11:00,
2013-09-16 18:12:00,82.5,64.2,30.09,NE,54,6.0,6.0,54,0.00,,---,0.54,VWS V14.01,2013-09-16 22:12:00,
2013-09-16 18:13:00,82.2,63.9,30.09,NNE,24,5.0,9.0,54,0.00,,---,0.54,VWS V14.01,2013-09-16 22:13:00,
2013-09-16 18:14:00,81.7,64.0,30.09,NE,54,9.0,9.0,55,0.00,,---,0.54,VWS V14.01,2013-09-16 22:14:00,
2013-09-16 18:15:00,81.6,64.4,30.09,NNE,31,9.0,10.0,56,0.00,,---,0.54,VWS V14.01,2013-09-16 22:15:00,
2013-09-16 18:16:00,81.4,64.2,30.09,NNE,30,6.0,10.0,56,0.00,,---,0.54,VWS V14.01,2013-09-16 22:16:00,
2013-09-16 18:17:00,81.2,64.0,30.09,NE,49,4.0,7.0,56,0.00,,---,0.54,VWS V14.01,2013-09-16 22:17:00,
2013-09-16 18:18:00,80.9,64.2,30.09,NE,47,3.0,5.0,57,0.00,,---,0.54,VWS V14.01,2013-09-16 22:18:00,
2013-09-16 18:19:00,80.6,64.5,30.09,NE,36,4.0,6.0,58,0.00,,---,0.54,VWS V14.01,2013-09-16 22:19:00,
2013-09-16 18:20:00,80.5,64.4,30.09,NE,40,4.0,6.0,58,0.00,,---,0.54,VWS V14.01,2013-09-16 22:20:00,
2013-09-16 18:21:00,80.4,64.8,30.09,ENE,57,5.0,5.0,59,0.00,,---,0.54,VWS V14.01,2013-09-16 22:21:00,
2013-09-16 18:22:00,80.3,64.7,30.09,NNE,20,4.0,5.0,59,0.00,,---,0.54,VWS V14.01,2013-09-16 22:22:00,
2013-09-16 18:23:00,80.1,64.5,30.09,NE,51,4.0,4.0,59,0.00,,---,0.54,VWS V14.01,2013-09-16 22:23:00,
2013-09-16 18:24:00,79.9,64.3,30.09,NE,46,4.0,5.0,59,0.00,,---,0.54,VWS V14.01,2013-09-16 22:24:00,
2013-09-16 18:25:00,79.9,64.3,30.09,NE,44,3.0,5.0,59,0.00,,---,0.54,VWS V14.01,2013-09-16 22:25:00,
2013-09-16 18:26:00,79.8,64.7,30.09,NE,36,3.0,5.0,60,0.00,,---,0.54,VWS V14.01,2013-09-16 22:26:00,
2013-09-16 18:27:00,79.7,64.6,30.09,NE,42,3.0,5.0,60,0.00,,---,0.54,VWS V14.01,2013-09-16 22:27:00,
2013-09-16 18:28:00,79.6,64.5,30.09,NNE,28,4.0,5.0,60,0.00,,---,0.54,VWS V14.01,2013-09-16 22:28:00,
2013-09-16 18:29:00,79.4,64.8,30.10,NNE,29,3.0,4.0,61,0.00,,---,0.54,VWS V14.01,2013-09-16 22:29:00,
2013-09-16 18:30:00,79.4,64.8,30.10,NE,44,2.0,4.0,61,0.00,,---,0.54,VWS V14.01,2013-09-16 22:30:00,
2013-09-16 18:31:00,79.3,64.7,30.10,NNE,28,3.0,4.0,61,0.00,,---,0.54,VWS V14.01,2013-09-16 22:31:00,
2013-09-16 18:32:00,79.2,64.6,30.10,NE,36,3.0,3.0,61,0.00,,---,0.54,VWS V14.01,2013-09-16 22:32:00,
2013-09-16 18:34:00,79.0,64.9,30.10,ENE,61,4.0,4.0,62,0.00,,---,0.54,VWS V14.01,2013-09-16 22:34:00,
2013-09-16 18:35:00,79.0,64.9,30.10,ENE,70,3.0,4.0,62,0.00,,---,0.54,VWS V14.01,2013-09-16 22:35:00,
2013-09-16 18:36:00,79.0,64.9,30.10,NE,55,3.0,5.0,62,0.00,,---,0.54,VWS V14.01,2013-09-16 22:36:00,
2013-09-16 18:37:00,78.9,64.8,30.10,NE,49,3.0,4.0,62,0.00,,---,0.54,VWS V14.01,2013-09-16 22:37:00,
2013-09-16 18:38:00,78.8,64.7,30.10,NE,51,4.0,5.0,62,0.00,,---,0.54,VWS V14.01,2013-09-16 22:38:00,
2013-09-16 18:39:00,78.7,64.6,30.10,NE,43,3.0,5.0,62,0.00,,---,0.54,VWS V14.01,2013-09-16 22:39:00,
2013-09-16 18:40:00,78.7,64.6,30.10,NE,36,4.0,5.0,62,0.00,,---,0.54,VWS V14.01,2013-09-16 22:40:00,
2013-09-16 18:41:00,78.6,64.5,30.10,NNE,28,3.0,4.0,62,0.00,,---,0.54,VWS V14.01,2013-09-16 22:41:00,
2013-09-16 18:42:00,78.6,64.5,30.10,NE,36,4.0,4.0,62,0.00,,---,0.54,VWS V14.01,2013-09-16 22:42:00,
2013-09-16 18:43:00,78.6,64.5,30.10,NE,34,3.0,4.0,62,0.00,,---,0.54,VWS V14.01,2013-09-16 22:43:00,
2013-09-16 18:44:00,78.5,64.9,30.10,NE,36,2.0,3.0,63,0.00,,---,0.54,VWS V14.01,2013-09-16 22:44:00,
2013-09-16 18:45:00,78.5,64.9,30.10,NE,36,2.0,3.0,63,0.00,,---,0.54,VWS V14.01,2013-09-16 22:45:00,
2013-09-16 18:46:00,78.5,64.4,30.10,NE,50,4.0,4.0,62,0.00,,---,0.54,VWS V14.01,2013-09-16 22:46:00,
2013-09-16 18:47:00,78.4,64.3,30.10,NE,53,2.0,4.0,62,0.00,,---,0.54,VWS V14.01,2013-09-16 22:47:00,
2013-09-16 18:48:00,78.4,64.8,30.10,NE,52,1.0,2.0,63,0.00,,---,0.54,VWS V14.01,2013-09-16 22:48:00,
2013-09-16 18:49:00,78.3,64.7,30.10,NE,36,4.0,4.0,63,0.00,,---,0.54,VWS V14.01,2013-09-16 22:49:00,
2013-09-16 18:50:00,78.3,64.7,30.10,NE,50,3.0,4.0,63,0.00,,---,0.54,VWS V14.01,2013-09-16 22:50:00,
2013-09-16 18:51:00,78.3,64.7,30.10,NE,46,3.0,3.0,63,0.00,,---,0.54,VWS V14.01,2013-09-16 22:51:00,
2013-09-16 18:52:00,78.2,64.1,30.10,NE,49,3.0,5.0,62,0.00,,---,0.54,VWS V14.01,2013-09-16 22:52:00,
2013-09-16 18:53:00,78.2,64.1,30.10,ENE,57,3.0,5.0,62,0.00,,---,0.54,VWS V14.01,2013-09-16 22:53:00,
2013-09-16 18:54:00,78.1,63.6,30.10,NE,50,4.0,7.0,61,0.00,,---,0.54,VWS V14.01,2013-09-16 22:54:00,
2013-09-16 18:55:00,78.1,63.6,30.10,NE,50,4.0,7.0,61,0.00,,---,0.54,VWS V14.01,2013-09-16 22:55:00,
2013-09-16 18:56:00,78.0,63.5,30.10,NE,44,5.0,6.0,61,0.00,,---,0.54,VWS V14.01,2013-09-16 22:56:00,
2013-09-16 18:57:00,78.0,63.5,30.10,NE,49,6.0,11.0,61,0.00,,---,0.54,VWS V14.01,2013-09-16 22:57:00,
2013-09-16 18:58:00,77.9,62.9,30.10,NE,52,6.0,9.0,60,0.00,,---,0.54,VWS V14.01,2013-09-16 22:58:00,
2013-09-16 18:59:00,77.8,62.8,30.10,ENE,57,8.0,8.0,60,0.00,,---,0.54,VWS V14.01,2013-09-16 22:59:00,
2013-09-16 19:00:00,77.9,62.9,30.10,NE,44,5.0,8.0,60,0.00,,---,0.54,VWS V14.01,2013-09-16 23:00:00,
2013-09-16 19:01:00,77.8,62.8,30.10,NE,49,3.0,8.0,60,0.00,,---,0.54,VWS V14.01,2013-09-16 23:01:00,
2013-09-16 19:02:00,77.7,63.2,30.10,NE,54,4.0,4.0,61,0.00,,---,0.54,VWS V14.01,2013-09-16 23:02:00,
2013-09-16 19:03:00,77.7,62.7,30.10,NE,50,6.0,7.0,60,0.00,,---,0.54,VWS V14.01,2013-09-16 23:03:00,
2013-09-16 19:04:00,77.6,62.6,30.11,NE,40,3.0,4.0,60,0.00,,---,0.54,VWS V14.01,2013-09-16 23:04:00,
2013-09-16 19:05:00,77.6,62.6,30.11,NE,37,6.0,6.0,60,0.00,,---,0.54,VWS V14.01,2013-09-16 23:05:00,
2013-09-16 19:06:00,77.5,62.5,30.11,NE,53,3.0,6.0,60,0.00,,---,0.54,VWS V14.01,2013-09-16 23:06:00,
2013-09-16 19:07:00,77.5,62.5,30.11,NE,47,5.0,5.0,60,0.00,,---,0.54,VWS V14.01,2013-09-16 23:07:00,
2013-09-16 19:08:00,77.4,62.4,30.11,NE,46,3.0,5.0,60,0.00,,---,0.54,VWS V14.01,2013-09-16 23:08:00,
2013-09-16 19:09:00,77.3,62.3,30.11,NE,42,7.0,7.0,60,0.00,,---,0.54,VWS V14.01,2013-09-16 23:09:00,
2013-09-16 19:10:00,77.3,62.3,30.11,NNE,31,4.0,7.0,60,0.00,,---,0.54,VWS V14.01,2013-09-16 23:10:00,
2013-09-16 19:11:00,77.2,61.8,30.11,NNE,30,8.0,8.0,59,0.00,,---,0.54,VWS V14.01,2013-09-16 23:11:00,
2013-09-16 19:12:00,77.2,61.8,30.11,NNE,30,6.0,8.0,59,0.00,,---,0.54,VWS V14.01,2013-09-16 23:12:00,
2013-09-16 19:13:00,77.1,61.7,30.11,NE,36,5.0,6.0,59,0.00,,---,0.54,VWS V14.01,2013-09-16 23:13:00,
2013-09-16 19:14:00,77.1,61.7,30.11,NNE,27,4.0,5.0,59,0.00,,---,0.54,VWS V14.01,2013-09-16 23:14:00,
2013-09-16 19:15:00,77.1,61.7,30.11,NE,44,6.0,6.0,59,0.00,,---,0.54,VWS V14.01,2013-09-16 23:15:00,
2013-09-16 19:16:00,77.0,61.6,30.11,NE,44,5.0,6.0,59,0.00,,---,0.54,VWS V14.01,2013-09-16 23:16:00,
2013-09-16 19:17:00,77.0,61.6,30.11,ENE,57,2.0,5.0,59,0.00,,---,0.54,VWS V14.01,2013-09-16 23:17:00,
2013-09-16 19:18:00,77.0,61.6,30.11,NE,44,4.0,4.0,59,0.00,,---,0.54,VWS V14.01,2013-09-16 23:18:00,
2013-09-16 19:19:00,76.9,61.5,30.11,NE,51,3.0,3.0,59,0.00,,---,0.54,VWS V14.01,2013-09-16 23:19:00,
2013-09-16 19:20:00,76.9,61.5,30.11,NE,39,3.0,3.0,59,0.00,,---,0.54,VWS V14.01,2013-09-16 23:20:00,
2013-09-16 19:21:00,76.8,61.4,30.11,NNE,29,4.0,5.0,59,0.00,,---,0.54,VWS V14.01,2013-09-16 23:21:00,
2013-09-16 19:22:00,76.8,61.9,30.11,NE,34,3.0,4.0,60,0.00,,---,0.54,VWS V14.01,2013-09-16 23:22:00,
2013-09-16 19:23:00,76.8,61.9,30.11,NE,40,4.0,6.0,60,0.00,,---,0.54,VWS V14.01,2013-09-16 23:23:00,
2013-09-16 19:24:00,76.7,61.8,30.11,NE,46,2.0,4.0,60,0.00,,---,0.54,VWS V14.01,2013-09-16 23:24:00,
2013-09-16 19:25:00,76.7,61.8,30.11,NNE,31,2.0,4.0,60,0.00,,---,0.54,VWS V14.01,2013-09-16 23:25:00,
2013-09-16 19:26:00,76.6,61.7,30.11,NNE,24,4.0,4.0,60,0.00,,---,0.54,VWS V14.01,2013-09-16 23:26:00,
2013-09-16 19:27:00,76.6,61.7,30.11,NE,46,3.0,4.0,60,0.00,,---,0.54,VWS V14.01,2013-09-16 23:27:00,
2013-09-16 19:28:00,76.6,61.7,30.12,NE,54,4.0,5.0,60,0.00,,---,0.54,VWS V14.01,2013-09-16 23:28:00,
2013-09-16 19:29:00,76.5,61.6,30.12,NNE,31,3.0,4.0,60,0.00,,---,0.54,VWS V14.01,2013-09-16 23:29:00,
2013-09-16 19:30:00,76.5,61.6,30.12,NE,35,4.0,4.0,60,0.00,,---,0.54,VWS V14.01,2013-09-16 23:30:00,
2013-09-16 19:31:00,76.5,62.1,30.12,NE,50,2.0,4.0,61,0.00,,---,0.54,VWS V14.01,2013-09-16 23:31:00,
2013-09-16 19:32:00,76.4,61.5,30.12,NE,42,4.0,5.0,60,0.00,,---,0.54,VWS V14.01,2013-09-16 23:32:00,
2013-09-16 19:33:00,76.4,61.5,30.12,NNE,33,5.0,5.0,60,0.00,,---,0.54,VWS V14.01,2013-09-16 23:33:00,
2013-09-16 19:34:00,76.4,62.0,30.12,NE,39,2.0,4.0,61,0.00,,---,0.54,VWS V14.01,2013-09-16 23:34:00,
2013-09-16 19:35:00,76.4,62.0,30.12,NE,38,3.0,4.0,61,0.00,,---,0.54,VWS V14.01,2013-09-16 23:35:00,
2013-09-16 19:36:00,76.3,61.9,30.12,NNE,31,3.0,4.0,61,0.00,,---,0.54,VWS V14.01,2013-09-16 23:36:00,
2013-09-16 19:37:00,76.3,61.9,30.12,NE,50,3.0,4.0,61,0.00,,---,0.54,VWS V14.01,2013-09-16 23:37:00,
2013-09-16 19:38:00,76.3,61.9,30.12,NNE,32,3.0,3.0,61,0.00,,---,0.54,VWS V14.01,2013-09-16 23:38:00,
2013-09-16 19:39:00,76.2,61.8,30.12,NE,46,3.0,3.0,61,0.00,,---,0.54,VWS V14.01,2013-09-16 23:39:00,
2013-09-16 19:40:00,76.2,61.8,30.12,NNE,27,3.0,3.0,61,0.00,,---,0.54,VWS V14.01,2013-09-16 23:40:00,
2013-09-16 19:41:00,76.1,61.7,30.12,NE,36,3.0,4.0,61,0.00,,---,0.54,VWS V14.01,2013-09-16 23:41:00,
2013-09-16 19:42:00,76.1,61.7,30.12,ENE,63,3.0,4.0,61,0.00,,---,0.54,VWS V14.01,2013-09-16 23:42:00,
2013-09-16 19:43:00,76.1,62.2,30.12,NE,54,4.0,4.0,62,0.00,,---,0.54,VWS V14.01,2013-09-16 23:43:00,
2013-09-16 19:44:00,76.0,62.0,30.12,NE,50,3.0,4.0,62,0.00,,---,0.54,VWS V14.01,2013-09-16 23:44:00,
2013-09-16 19:45:00,76.0,62.0,30.12,NE,51,2.0,4.0,62,0.00,,---,0.54,VWS V14.01,2013-09-16 23:45:00,
2013-09-16 19:46:00,76.0,62.0,30.12,NE,49,2.0,3.0,62,0.00,,---,0.54,VWS V14.01,2013-09-16 23:46:00,
2013-09-16 19:47:00,75.9,62.0,30.13,NE,48,4.0,5.0,62,0.00,,---,0.54,VWS V14.01,2013-09-16 23:47:00,
2013-09-16 19:48:00,75.9,62.0,30.13,NE,50,3.0,4.0,62,0.00,,---,0.54,VWS V14.01,2013-09-16 23:48:00,
2013-09-16 19:49:00,75.9,62.0,30.13,NE,50,3.0,4.0,62,0.00,,---,0.54,VWS V14.01,2013-09-16 23:49:00,
2013-09-16 19:50:00,75.9,62.0,30.13,NNE,27,4.0,4.0,62,0.00,,---,0.54,VWS V14.01,2013-09-16 23:50:00,
2013-09-16 19:51:00,75.8,61.9,30.13,NE,50,2.0,5.0,62,0.00,,---,0.54,VWS V14.01,2013-09-16 23:51:00,
2013-09-16 19:52:00,75.8,61.9,30.13,NE,44,6.0,6.0,62,0.00,,---,0.54,VWS V14.01,2013-09-16 23:52:00,
2013-09-16 19:53:00,75.8,61.9,30.13,NE,50,5.0,8.0,62,0.00,,---,0.54,VWS V14.01,2013-09-16 23:53:00,
2013-09-16 19:54:00,75.8,61.9,30.13,ENE,59,4.0,4.0,62,0.00,,---,0.54,VWS V14.01,2013-09-16 23:54:00,
2013-09-16 19:55:00,75.8,61.9,30.13,NE,51,4.0,4.0,62,0.00,,---,0.54,VWS V14.01,2013-09-16 23:55:00,
2013-09-16 19:56:00,75.8,61.9,30.13,NE,50,3.0,5.0,62,0.00,,---,0.54,VWS V14.01,2013-09-16 23:56:00,
2013-09-16 19:57:00,75.8,61.9,30.13,NE,43,6.0,8.0,62,0.00,,---,0.54,VWS V14.01,2013-09-16 23:57:00,
2013-09-16 19:58:00,75.7,61.8,30.13,NE,50,6.0,7.0,62,0.00,,---,0.54,VWS V14.01,2013-09-16 23:58:00,
2013-09-16 19:59:00,75.7,61.8,30.13,NE,49,3.0,5.0,62,0.00,,---,0.54,VWS V14.01,2013-09-16 23:59:00,
2013-09-16 20:00:00,75.7,61.8,30.13,NE,47,3.0,5.0,62,0.00,,---,0.54,VWS V14.01,2013-09-17 00:00:00,
2013-09-16 20:01:00,75.7,61.8,30.13,NE,53,5.0,5.0,62,0.00,,---,0.54,VWS V14.01,2013-09-17 00:01:00,
2013-09-16 20:02:00,75.7,61.8,30.13,NE,50,3.0,5.0,62,0.00,,---,0.54,VWS V14.01,2013-09-17 00:02:00,
2013-09-16 20:03:00,75.7,61.8,30.13,NE,36,3.0,3.0,62,0.00,,---,0.54,VWS V14.01,2013-09-17 00:03:00,
2013-09-16 20:04:00,75.6,61.7,30.13,NE,47,4.0,4.0,62,0.00,,---,0.54,VWS V14.01,2013-09-17 00:04:00,
2013-09-16 20:05:00,75.6,61.7,30.13,NE,44,4.0,4.0,62,0.00,,---,0.54,VWS V14.01,2013-09-17 00:05:00,
2013-09-16 20:06:00,75.6,61.7,30.13,NE,52,3.0,5.0,62,0.00,,---,0.54,VWS V14.01,2013-09-17 00:06:00,
2013-09-16 20:07:00,75.6,62.1,30.13,NNE,30,3.0,4.0,63,0.00,,---,0.54,VWS V14.01,2013-09-17 00:07:00,
2013-09-16 20:08:00,75.6,62.1,30.13,NE,39,4.0,4.0,63,0.00,,---,0.54,VWS V14.01,2013-09-17 00:08:00,
2013-09-16 20:09:00,75.5,62.0,30.14,NNE,28,5.0,5.0,63,0.00,,---,0.54,VWS V14.01,2013-09-17 00:09:00,
2013-09-16 20:10:00,75.5,62.0,30.14,NE,44,4.0,5.0,63,0.00,,---,0.54,VWS V14.01,2013-09-17 00:10:00,
2013-09-16 20:11:00,75.5,62.0,30.14,NNE,33,4.0,4.0,63,0.00,,---,0.54,VWS V14.01,2013-09-17 00:11:00,
2013-09-16 20:12:00,75.5,62.0,30.14,NE,39,2.0,4.0,63,0.00,,---,0.54,VWS V14.01,2013-09-17 00:12:00,
2013-09-16 20:13:00,75.5,62.0,30.14,NE,36,2.0,4.0,63,0.00,,---,0.54,VWS V14.01,2013-09-17 00:13:00,
2013-09-16 20:14:00,75.4,61.9,30.14,NE,51,3.0,5.0,63,0.00,,---,0.54,VWS V14.01,2013-09-17 00:14:00,
2013-09-16 20:15:00,75.4,61.9,30.14,ENE,60,3.0,5.0,63,0.00,,---,0.54,VWS V14.01,2013-09-17 00:15:00,
2013-09-16 20:16:00,75.4,61.9,30.14,NNE,23,2.0,3.0,63,0.00,,---,0.54,VWS V14.01,2013-09-17 00:16:00,
2013-09-16 20:17:00,75.3,61.8,30.14,NNE,32,4.0,4.0,63,0.00,,---,0.54,VWS V14.01,2013-09-17 00:17:00,
2013-09-16 20:18:00,75.3,61.8,30.14,NNE,20,4.0,4.0,63,0.00,,---,0.54,VWS V14.01,2013-09-17 00:18:00,
2013-09-16 20:19:00,75.3,61.8,30.14,NE,36,4.0,4.0,63,0.00,,---,0.54,VWS V14.01,2013-09-17 00:19:00,
2013-09-16 20:20:00,75.3,61.8,30.14,NNE,27,3.0,4.0,63,0.00,,---,0.54,VWS V14.01,2013-09-17 00:20:00,
2013-09-16 20:21:00,75.3,61.8,30.14,NE,43,3.0,3.0,63,0.00,,---,0.54,VWS V14.01,2013-09-17 00:21:00,
2013-09-16 20:22:00,75.3,62.3,30.14,NE,47,2.0,3.0,64,0.00,,---,0.54,VWS V14.01,2013-09-17 00:22:00,
2013-09-16 20:23:00,75.2,61.8,30.14,NE,46,4.0,5.0,63,0.00,,---,0.54,VWS V14.01,2013-09-17 00:23:00,
2013-09-16 20:24:00,75.2,62.2,30.14,NE,53,3.0,4.0,64,0.00,,---,0.54,VWS V14.01,2013-09-17 00:24:00,
2013-09-16 20:25:00,75.2,62.2,30.14,NE,51,2.0,4.0,64,0.00,,---,0.54,VWS V14.01,2013-09-17 00:25:00,
2013-09-16 20:26:00,75.2,62.2,30.14,NE,50,3.0,3.0,64,0.00,,---,0.54,VWS V14.01,2013-09-17 00:26:00,
2013-09-16 20:27:00,75.1,62.1,30.14,NE,36,3.0,3.0,64,0.00,,---,0.54,VWS V14.01,2013-09-17 00:27:00,
2013-09-16 20:28:00,75.1,62.1,30.15,NE,46,3.0,3.0,64,0.00,,---,0.54,VWS V14.01,2013-09-17 00:28:00,
2013-09-16 20:29:00,75.1,62.1,30.15,NE,48,2.0,2.0,64,0.00,,---,0.54,VWS V14.01,2013-09-17 00:29:00,
2013-09-16 20:30:00,75.1,62.1,30.15,NE,49,2.0,2.0,64,0.00,,---,0.54,VWS V14.01,2013-09-17 00:30:00,
2013-09-16 20:31:00,75.0,62.0,30.15,NE,49,3.0,3.0,64,0.00,,---,0.54,VWS V14.01,2013-09-17 00:31:00,
2013-09-16 20:32:00,75.0,62.0,30.15,NE,51,3.0,3.0,64,0.00,,---,0.54,VWS V14.01,2013-09-17 00:32:00,
2013-09-16 20:33:00,75.0,62.0,30.15,ENE,57,2.0,4.0,64,0.00,,---,0.54,VWS V14.01,2013-09-17 00:33:00,
2013-09-16 20:34:00,75.0,62.5,30.15,NE,47,2.0,3.0,65,0.00,,---,0.54,VWS V14.01,2013-09-17 00:34:00,
2013-09-16 20:35:00,75.0,62.5,30.15,NE,46,2.0,3.0,65,0.00,,---,0.54,VWS V14.01,2013-09-17 00:35:00,
2013-09-16 20:36:00,75.0,62.5,30.15,NE,47,3.0,3.0,65,0.00,,---,0.54,VWS V14.01,2013-09-17 00:36:00,
2013-09-16 20:37:00,74.9,62.3,30.15,ENE,57,4.0,5.0,65,0.00,,---,0.54,VWS V14.01,2013-09-17 00:37:00,
2013-09-16 20:38:00,74.9,62.3,30.15,ENE,57,5.0,5.0,65,0.00,,---,0.54,VWS V14.01,2013-09-17 00:38:00,
2013-09-16 20:39:00,74.9,62.3,30.15,ENE,63,2.0,3.0,65,0.00,,---,0.54,VWS V14.01,2013-09-17 00:39:00,
2013-09-16 20:40:00,74.9,62.3,30.15,ENE,63,4.0,5.0,65,0.00,,---,0.54,VWS V14.01,2013-09-17 00:40:00,
2013-09-16 20:41:00,74.9,62.3,30.15,ENE,57,4.0,4.0,65,0.00,,---,0.54,VWS V14.01,2013-09-17 00:41:00,
2013-09-16 20:42:00,74.9,62.3,30.15,NE,42,3.0,4.0,65,0.00,,---,0.54,VWS V14.01,2013-09-17 00:42:00,
2013-09-16 20:43:00,74.8,62.3,30.15,NE,50,4.0,4.0,65,0.00,,---,0.54,VWS V14.01,2013-09-17 00:43:00,
2013-09-16 20:44:00,74.8,62.3,30.15,NE,51,4.0,4.0,65,0.00,,---,0.54,VWS V14.01,2013-09-17 00:44:00,
2013-09-16 20:45:00,74.8,62.3,30.15,NE,49,3.0,4.0,65,0.00,,---,0.54,VWS V14.01,2013-09-17 00:45:00,
2013-09-16 20:46:00,74.8,62.3,30.15,ENE,57,7.0,7.0,65,0.00,,---,0.54,VWS V14.01,2013-09-17 00:46:00,
2013-09-16 20:47:00,74.8,62.3,30.15,NE,50,4.0,7.0,65,0.00,,---,0.54,VWS V14.01,2013-09-17 00:47:00,
2013-09-16 20:48:00,74.8,62.3,30.15,NE,55,3.0,5.0,65,0.00,,---,0.54,VWS V14.01,2013-09-17 00:48:00,
2013-09-16 20:49:00,74.8,62.3,30.15,NE,51,3.0,3.0,65,0.00,,---,0.54,VWS V14.01,2013-09-17 00:49:00,
2013-09-16 20:50:00,74.8,62.3,30.15,ENE,70,2.0,4.0,65,0.00,,---,0.54,VWS V14.01,2013-09-17 00:50:00,
2013-09-16 20:51:00,74.8,62.3,30.15,NE,53,3.0,4.0,65,0.00,,---,0.54,VWS V14.01,2013-09-17 00:51:00,
2013-09-16 20:52:00,74.7,62.2,30.16,ENE,62,4.0,5.0,65,0.00,,---,0.54,VWS V14.01,2013-09-17 00:52:00,
2013-09-16 20:53:00,74.7,62.2,30.16,ENE,76,4.0,5.0,65,0.00,,---,0.54,VWS V14.01,2013-09-17 00:53:00,
2013-09-16 20:54:00,74.7,62.2,30.16,NE,38,3.0,4.0,65,0.00,,---,0.54,VWS V14.01,2013-09-17 00:54:00,
2013-09-16 20:55:00,74.7,62.2,30.16,ENE,57,3.0,4.0,65,0.00,,---,0.54,VWS V14.01,2013-09-17 00:55:00,
2013-09-16 20:56:00,74.6,62.1,30.16,NE,53,1.0,3.0,65,0.00,,---,0.54,VWS V14.01,2013-09-17 00:56:00,
2013-09-16 20:57:00,74.6,62.1,30.16,NE,48,6.0,6.0,65,0.00,,---,0.54,VWS V14.01,2013-09-17 00:57:00,
2013-09-16 20:58:00,74.6,62.1,30.16,NE,48,5.0,7.0,65,0.00,,---,0.54,VWS V14.01,2013-09-17 00:58:00,
2013-09-16 20:59:00,74.6,62.5,30.16,NE,53,3.0,5.0,66,0.00,,---,0.54,VWS V14.01,2013-09-17 00:59:00,
2013-09-16 21:00:00,74.6,62.1,30.16,NE,47,4.0,5.0,65,0.00,,---,0.54,VWS V14.01,2013-09-17 01:00:00,
2013-09-16 21:01:00,74.6,62.1,30.16,NE,51,4.0,5.0,65,0.00,,---,0.54,VWS V14.01,2013-09-17 01:01:00,
2013-09-16 21:02:00,74.6,62.5,30.16,NE,46,3.0,5.0,66,0.00,,---,0.54,VWS V14.01,2013-09-17 01:02:00,
2013-09-16 21:03:00,74.6,62.5,30.16,NE,49,4.0,4.0,66,0.00,,---,0.54,VWS V14.01,2013-09-17 01:03:00,
2013-09-16 21:04:00,74.5,62.4,30.16,NE,52,3.0,4.0,66,0.00,,---,0.54,VWS V14.01,2013-09-17 01:04:00,
2013-09-16 21:05:00,74.5,62.4,30.16,ENE,57,2.0,4.0,66,0.00,,---,0.54,VWS V14.01,2013-09-17 01:05:00,
2013-09-16 21:06:00,74.5,62.4,30.16,ENE,61,3.0,4.0,66,0.00,,---,0.54,VWS V14.01,2013-09-17 01:06:00,
2013-09-16 21:07:00,74.5,62.4,30.16,ENE,66,4.0,5.0,66,0.00,,---,0.54,VWS V14.01,2013-09-17 01:07:00,
2013-09-16 21:08:00,74.4,62.3,30.16,NE,54,3.0,4.0,66,0.00,,---,0.54,VWS V14.01,2013-09-17 01:08:00,
2013-09-16 21:09:00,74.4,62.3,30.16,ENE,63,4.0,4.0,66,0.00,,---,0.54,VWS V14.01,2013-09-17 01:09:00,
2013-09-16 21:10:00,74.4,62.3,30.16,ENE,61,2.0,4.0,66,0.00,,---,0.54,VWS V14.01,2013-09-17 01:10:00,
2013-09-16 21:11:00,74.4,62.3,30.16,NE,53,3.0,4.0,66,0.00,,---,0.54,VWS V14.01,2013-09-17 01:11:00,
2013-09-16 21:12:00,74.4,62.7,30.16,ENE,66,2.0,3.0,67,0.00,,---,0.54,VWS V14.01,2013-09-17 01:12:00,
2013-09-16 21:13:00,74.3,62.6,30.16,NE,51,2.0,4.0,67,0.00,,---,0.54,VWS V14.01,2013-09-17 01:13:00,
2013-09-16 21:14:00,74.3,62.6,30.16,ENE,61,3.0,5.0,67,0.00,,---,0.54,VWS V14.01,2013-09-17 01:14:00,
2013-09-16 21:15:00,74.3,62.6,30.16,ENE,63,4.0,5.0,67,0.00,,---,0.54,VWS V14.01,2013-09-17 01:15:00,
2013-09-16 21:16:00,74.3,62.2,30.16,ENE,64,8.0,11.0,66,0.00,,---,0.54,VWS V14.01,2013-09-17 01:16:00,
2013-09-16 21:17:00,74.2,62.1,30.16,NE,50,3.0,8.0,66,0.00,,---,0.54,VWS V14.01,2013-09-17 01:17:00,
2013-09-16 21:18:00,74.2,62.5,30.16,ENE,67,4.0,5.0,67,0.00,,---,0.54,VWS V14.01,2013-09-17 01:18:00,
2013-09-16 21:19:00,74.2,62.5,30.16,ENE,67,4.0,4.0,67,0.00,,---,0.54,VWS V14.01,2013-09-17 01:19:00,
2013-09-16 21:20:00,74.2,62.5,30.16,ENE,62,2.0,4.0,67,0.00,,---,0.54,VWS V14.01,2013-09-17 01:20:00,
2013-09-16 21:21:00,74.2,62.5,30.16,NE,50,3.0,5.0,67,0.00,,---,0.54,VWS V14.01,2013-09-17 01:21:00,
2013-09-16 21:22:00,74.1,62.5,30.16,NE,44,4.0,4.0,67,0.00,,---,0.54,VWS V14.01,2013-09-17 01:22:00,
2013-09-16 21:23:00,74.1,62.5,30.17,NE,47,4.0,5.0,67,0.00,,---,0.54,VWS V14.01,2013-09-17 01:23:00,
2013-09-16 21:24:00,74.1,62.5,30.17,NE,52,3.0,3.0,67,0.00,,---,0.54,VWS V14.01,2013-09-17 01:24:00,
2013-09-16 21:25:00,74.1,62.5,30.17,ENE,66,4.0,4.0,67,0.00,,---,0.54,VWS V14.01,2013-09-17 01:25:00,
2013-09-16 21:26:00,74.1,62.5,30.17,ENE,69,4.0,4.0,67,0.00,,---,0.54,VWS V14.01,2013-09-17 01:26:00,
2013-09-16 21:27:00,74.0,62.4,30.17,NE,50,4.0,5.0,67,0.00,,---,0.54,VWS V14.01,2013-09-17 01:27:00,
2013-09-16 21:28:00,74.0,62.4,30.17,NE,53,3.0,5.0,67,0.00,,---,0.54,VWS V14.01,2013-09-17 01:28:00,
2013-09-16 21:29:00,74.0,62.4,30.17,NE,51,4.0,4.0,67,0.00,,---,0.54,VWS V14.01,2013-09-17 01:29:00,
2013-09-16 21:30:00,74.0,62.4,30.17,NE,50,3.0,4.0,67,0.00,,---,0.54,VWS V14.01,2013-09-17 01:30:00,
2013-09-16 21:31:00,74.0,62.4,30.17,ENE,64,3.0,5.0,67,0.00,,---,0.54,VWS V14.01,2013-09-17 01:31:00,
2013-09-16 21:32:00,74.0,62.4,30.17,NE,53,4.0,4.0,67,0.00,,---,0.54,VWS V14.01,2013-09-17 01:32:00,
2013-09-16 21:33:00,74.0,62.4,30.17,NE,38,4.0,4.0,67,0.00,,---,0.54,VWS V14.01,2013-09-17 01:33:00,
2013-09-16 21:34:00,73.9,62.3,30.17,NE,52,4.0,4.0,67,0.00,,---,0.54,VWS V14.01,2013-09-17 01:34:00,
2013-09-16 21:36:00,73.9,62.3,30.17,ENE,67,3.0,4.0,67,0.00,,---,0.54,VWS V14.01,2013-09-17 01:36:00,
2013-09-16 21:37:00,73.9,62.3,30.17,ENE,57,3.0,4.0,67,0.00,,---,0.54,VWS V14.01,2013-09-17 01:37:00,
2013-09-16 21:38:00,73.9,62.7,30.17,ENE,65,3.0,4.0,68,0.00,,---,0.54,VWS V14.01,2013-09-17 01:38:00,
2013-09-16 21:39:00,73.8,62.6,30.17,NE,47,2.0,2.0,68,0.00,,---,0.54,VWS V14.01,2013-09-17 01:39:00,
2013-09-16 21:40:00,73.8,62.6,30.17,ENE,61,4.0,4.0,68,0.00,,---,0.54,VWS V14.01,2013-09-17 01:40:00,
2013-09-16 21:41:00,73.8,62.6,30.17,NE,48,3.0,5.0,68,0.00,,---,0.54,VWS V14.01,2013-09-17 01:41:00,
2013-09-16 21:42:00,73.7,62.5,30.17,ENE,71,5.0,6.0,68,0.00,,---,0.54,VWS V14.01,2013-09-17 01:42:00,
2013-09-16 21:43:00,73.7,62.5,30.17,ENE,57,3.0,7.0,68,0.00,,---,0.54,VWS V14.01,2013-09-17 01:43:00,
2013-09-16 21:44:00,73.7,62.5,30.17,East,84,6.0,6.0,68,0.00,,---,0.54,VWS V14.01,2013-09-17 01:44:00,
2013-09-16 21:45:00,73.7,62.5,30.17,ENE,74,5.0,6.0,68,0.00,,---,0.54,VWS V14.01,2013-09-17 01:45:00,
2013-09-16 21:46:00,73.6,62.4,30.17,ENE,61,4.0,5.0,68,0.00,,---,0.54,VWS V14.01,2013-09-17 01:46:00,
2013-09-16 21:47:00,73.6,62.4,30.17,ENE,71,4.0,7.0,68,0.00,,---,0.54,VWS V14.01,2013-09-17 01:47:00,
2013-09-16 21:48:00,73.5,62.7,30.17,ENE,67,7.0,7.0,69,0.00,,---,0.54,VWS V14.01,2013-09-17 01:48:00,
2013-09-16 21:49:00,73.5,62.7,30.17,ENE,61,9.0,10.0,69,0.00,,---,0.54,VWS V14.01,2013-09-17 01:49:00,
2013-09-16 21:50:00,73.5,62.7,30.17,NE,44,6.0,10.0,69,0.00,,---,0.54,VWS V14.01,2013-09-17 01:50:00,
2013-09-16 21:51:00,73.5,62.7,30.17,ENE,65,8.0,8.0,69,0.00,,---,0.54,VWS V14.01,2013-09-17 01:51:00,
2013-09-16 21:52:00,73.4,62.6,30.17,ENE,63,9.0,9.0,69,0.00,,---,0.54,VWS V14.01,2013-09-17 01:52:00,
2013-09-16 21:53:00,73.4,62.6,30.17,ENE,65,9.0,9.0,69,0.00,,---,0.54,VWS V14.01,2013-09-17 01:53:00,
2013-09-16 21:54:00,73.4,62.6,30.18,ENE,61,5.0,7.0,69,0.00,,---,0.54,VWS V14.01,2013-09-17 01:54:00,
2013-09-16 21:55:00,73.3,62.5,30.18,ENE,71,5.0,7.0,69,0.00,,---,0.54,VWS V14.01,2013-09-17 01:55:00,
2013-09-16 21:56:00,73.3,62.5,30.18,ENE,67,5.0,9.0,69,0.00,,---,0.54,VWS V14.01,2013-09-17 01:56:00,
2013-09-16 21:57:00,73.3,62.5,30.18,ENE,67,7.0,8.0,69,0.00,,---,0.54,VWS V14.01,2013-09-17 01:57:00,
2013-09-16 21:58:00,73.3,62.9,30.18,East,101,10.0,11.0,70,0.00,,---,0.54,VWS V14.01,2013-09-17 01:58:00,
2013-09-16 21:59:00,73.2,62.8,30.18,ENE,57,11.0,11.0,70,0.00,,---,0.54,VWS V14.01,2013-09-17 01:59:00,
2013-09-16 22:00:00,73.2,62.8,30.18,ENE,76,7.0,11.0,70,0.00,,---,0.54,VWS V14.01,2013-09-17 02:00:00,
2013-09-16 22:01:00,73.1,62.7,30.18,ENE,64,5.0,10.0,70,0.00,,---,0.54,VWS V14.01,2013-09-17 02:01:00,
2013-09-16 22:02:00,73.1,63.2,30.18,ENE,74,7.0,9.0,71,0.00,,---,0.54,VWS V14.01,2013-09-17 02:02:00,
2013-09-16 22:03:00,73.1,63.2,30.18,ENE,70,8.0,8.0,71,0.00,,---,0.54,VWS V14.01,2013-09-17 02:03:00,
2013-09-16 22:04:00,73.0,63.0,30.18,ENE,72,5.0,7.0,71,0.00,,---,0.54,VWS V14.01,2013-09-17 02:04:00,
2013-09-16 22:05:00,73.0,63.0,30.18,ENE,63,5.0,7.0,71,0.00,,---,0.54,VWS V14.01,2013-09-17 02:05:00,
2013-09-16 22:06:00,72.9,63.0,30.18,ENE,66,7.0,10.0,71,0.00,,---,0.54,VWS V14.01,2013-09-17 02:06:00,
2013-09-16 22:07:00,72.8,62.9,30.18,ENE,63,3.0,7.0,71,0.00,,---,0.54,VWS V14.01,2013-09-17 02:07:00,
2013-09-16 22:08:00,72.8,63.3,30.18,ENE,65,11.0,11.0,72,0.00,,---,0.54,VWS V14.01,2013-09-17 02:08:00,
2013-09-16 22:09:00,72.7,63.2,30.18,ENE,68,5.0,8.0,72,0.00,,---,0.54,VWS V14.01,2013-09-17 02:09:00,
2013-09-16 22:10:00,72.7,63.2,30.18,ENE,67,5.0,8.0,72,0.00,,---,0.54,VWS V14.01,2013-09-17 02:10:00,
2013-09-16 22:11:00,72.7,63.2,30.18,ENE,74,10.0,10.0,72,0.00,,---,0.54,VWS V14.01,2013-09-17 02:11:00,
2013-09-16 22:12:00,72.6,63.1,30.19,ENE,63,10.0,10.0,72,0.00,,---,0.54,VWS V14.01,2013-09-17 02:12:00,
2013-09-16 22:13:00,72.6,63.1,30.19,NE,51,5.0,12.0,72,0.00,,---,0.54,VWS V14.01,2013-09-17 02:13:00,
2013-09-16 22:14:00,72.6,63.1,30.18,NE,53,7.0,10.0,72,0.00,,---,0.54,VWS V14.01,2013-09-17 02:14:00,
2013-09-16 22:15:00,72.6,63.1,30.18,East,81,8.0,10.0,72,0.00,,---,0.54,VWS V14.01,2013-09-17 02:15:00,
2013-09-16 22:16:00,72.5,63.0,30.19,ENE,61,10.0,10.0,72,0.00,,---,0.54,VWS V14.01,2013-09-17 02:16:00,
2013-09-16 22:17:00,72.5,63.0,30.19,ENE,69,11.0,11.0,72,0.00,,---,0.54,VWS V14.01,2013-09-17 02:17:00,
2013-09-16 22:18:00,72.5,63.0,30.19,ENE,57,4.0,11.0,72,0.00,,---,0.54,VWS V14.01,2013-09-17 02:18:00,
2013-09-16 22:19:00,72.4,63.3,30.19,ENE,57,8.0,8.0,73,0.00,,---,0.54,VWS V14.01,2013-09-17 02:19:00,
2013-09-16 22:20:00,72.4,63.3,30.19,ENE,66,8.0,8.0,73,0.00,,---,0.54,VWS V14.01,2013-09-17 02:20:00,
2013-09-16 22:21:00,72.4,63.3,30.19,NE,54,5.0,8.0,73,0.00,,---,0.54,VWS V14.01,2013-09-17 02:21:00,
2013-09-16 22:22:00,72.3,63.2,30.19,NE,54,5.0,7.0,73,0.00,,---,0.54,VWS V14.01,2013-09-17 02:22:00,
2013-09-16 22:23:00,72.3,63.2,30.19,NE,48,4.0,5.0,73,0.00,,---,0.54,VWS V14.01,2013-09-17 02:23:00,
2013-09-16 22:24:00,72.3,63.2,30.19,ENE,66,5.0,5.0,73,0.00,,---,0.54,VWS V14.01,2013-09-17 02:24:00,
2013-09-16 22:25:00,72.2,63.1,30.19,ENE,65,7.0,8.0,73,0.00,,---,0.54,VWS V14.01,2013-09-17 02:25:00,
2013-09-16 22:26:00,72.2,63.1,30.19,NE,54,8.0,13.0,73,0.00,,---,0.54,VWS V14.01,2013-09-17 02:26:00,
2013-09-16 22:27:00,72.2,63.5,30.19,ENE,70,8.0,10.0,74,0.00,,---,0.54,VWS V14.01,2013-09-17 02:27:00,
2013-09-16 22:28:00,72.1,63.4,30.19,NE,55,7.0,12.0,74,0.00,,---,0.54,VWS V14.01,2013-09-17 02:28:00,
2013-09-16 22:29:00,72.1,63.4,30.19,ENE,71,9.0,11.0,74,0.00,,---,0.54,VWS V14.01,2013-09-17 02:29:00,
2013-09-16 22:30:00,72.1,63.4,30.19,ENE,76,4.0,11.0,74,0.00,,---,0.54,VWS V14.01,2013-09-17 02:30:00,
2013-09-16 22:31:00,72.0,63.3,30.19,ENE,66,7.0,7.0,74,0.00,,---,0.54,VWS V14.01,2013-09-17 02:31:00,
2013-09-16 22:32:00,72.0,63.3,30.19,ENE,58,10.0,10.0,74,0.00,,---,0.54,VWS V14.01,2013-09-17 02:32:00,
2013-09-16 22:33:00,71.9,63.2,30.19,ENE,58,7.0,10.0,74,0.00,,---,0.54,VWS V14.01,2013-09-17 02:33:00,
2013-09-16 22:34:00,71.9,63.2,30.19,NE,55,8.0,9.0,74,0.00,,---,0.54,VWS V14.01,2013-09-17 02:34:00,
2013-09-16 22:35:00,71.9,63.2,30.19,ENE,61,12.0,14.0,74,0.00,,---,0.54,VWS V14.01,2013-09-17 02:35:00,
2013-09-16 22:36:00,71.8,63.5,30.19,ENE,70,9.0,14.0,75,0.00,,---,0.54,VWS V14.01,2013-09-17 02:36:00,
2013-09-16 22:37:00,71.8,63.5,30.19,NE,53,7.0,11.0,75,0.00,,---,0.54,VWS V14.01,2013-09-17 02:37:00,
2013-09-16 22:38:00,71.7,63.4,30.19,NE,52,7.0,8.0,75,0.00,,---,0.54,VWS V14.01,2013-09-17 02:38:00,
2013-09-16 22:39:00,71.7,63.4,30.19,ENE,73,8.0,8.0,75,0.00,,---,0.54,VWS V14.01,2013-09-17 02:39:00,
2013-09-16 22:40:00,71.7,63.4,30.19,ENE,69,8.0,11.0,75,0.00,,---,0.54,VWS V14.01,2013-09-17 02:40:00,
2013-09-16 22:41:00,71.6,63.3,30.19,ENE,71,10.0,11.0,75,0.00,,---,0.54,VWS V14.01,2013-09-17 02:41:00,
2013-09-16 22:42:00,71.6,63.3,30.19,NE,51,6.0,12.0,75,0.00,,---,0.54,VWS V14.01,2013-09-17 02:42:00,
2013-09-16 22:43:00,71.5,63.2,30.19,ENE,66,14.0,14.0,75,0.00,,---,0.54,VWS V14.01,2013-09-17 02:43:00,
2013-09-16 22:44:00,71.5,63.5,30.19,ENE,70,5.0,8.0,76,0.00,,---,0.54,VWS V14.01,2013-09-17 02:44:00,
2013-09-16 22:45:00,71.5,63.5,30.19,NE,49,4.0,8.0,76,0.00,,---,0.54,VWS V14.01,2013-09-17 02:45:00,
2013-09-16 22:46:00,71.4,63.5,30.19,ENE,70,9.0,10.0,76,0.00,,---,0.54,VWS V14.01,2013-09-17 02:46:00,
2013-09-16 22:47:00,71.4,63.5,30.19,East,81,8.0,12.0,76,0.00,,---,0.54,VWS V14.01,2013-09-17 02:47:00,
2013-09-16 22:48:00,71.4,63.5,30.19,ENE,69,15.0,15.0,76,0.00,,---,0.54,VWS V14.01,2013-09-17 02:48:00,
2013-09-16 22:49:00,71.3,63.3,30.19,ENE,66,7.0,9.0,76,0.00,,---,0.54,VWS V14.01,2013-09-17 02:49:00,
2013-09-16 22:50:00,71.3,63.3,30.19,ENE,71,11.0,11.0,76,0.00,,---,0.54,VWS V14.01,2013-09-17 02:50:00,
2013-09-16 22:51:00,71.3,63.3,30.19,ENE,57,5.0,11.0,76,0.00,,---,0.54,VWS V14.01,2013-09-17 02:51:00,
2013-09-16 22:52:00,71.2,63.3,30.19,ENE,67,16.0,16.0,76,0.00,,---,0.54,VWS V14.01,2013-09-17 02:52:00,
2013-09-16 22:53:00,71.2,63.3,30.19,ENE,67,8.0,16.0,76,0.00,,---,0.54,VWS V14.01,2013-09-17 02:53:00,
2013-09-16 22:54:00,71.2,63.3,30.19,ENE,76,7.0,8.0,76,0.00,,---,0.54,VWS V14.01,2013-09-17 02:54:00,
2013-09-16 22:55:00,71.2,63.3,30.19,East,90,7.0,10.0,76,0.00,,---,0.54,VWS V14.01,2013-09-17 02:55:00,
2013-09-16 22:56:00,71.1,63.2,30.19,ENE,71,11.0,13.0,76,0.00,,---,0.54,VWS V14.01,2013-09-17 02:56:00,
2013-09-16 22:57:00,71.1,63.2,30.19,ENE,71,4.0,12.0,76,0.00,,---,0.54,VWS V14.01,2013-09-17 02:57:00,
2013-09-16 22:58:00,71.1,63.5,30.19,ENE,63,4.0,9.0,77,0.00,,---,0.54,VWS V14.01,2013-09-17 02:58:00,
2013-09-16 22:59:00,71.1,63.5,30.19,East,96,7.0,8.0,77,0.00,,---,0.54,VWS V14.01,2013-09-17 02:59:00,
2013-09-16 23:00:00,71.0,63.4,30.19,ENE,74,8.0,9.0,77,0.00,,---,0.54,VWS V14.01,2013-09-17 03:00:00,
2013-09-16 23:01:00,71.0,63.4,30.19,East,80,5.0,8.0,77,0.00,,---,0.54,VWS V14.01,2013-09-17 03:01:00,
2013-09-16 23:02:00,71.0,63.4,30.19,ENE,64,8.0,8.0,77,0.00,,---,0.54,VWS V14.01,2013-09-17 03:02:00,
2013-09-16 23:03:00,71.0,63.4,30.19,ENE,65,5.0,8.0,77,0.00,,---,0.54,VWS V14.01,2013-09-17 03:03:00,
2013-09-16 23:04:00,71.0,63.4,30.19,ENE,66,5.0,5.0,77,0.00,,---,0.54,VWS V14.01,2013-09-17 03:04:00,
2013-09-16 23:05:00,71.0,63.4,30.19,ENE,63,7.0,8.0,77,0.00,,---,0.54,VWS V14.01,2013-09-17 03:05:00,
2013-09-16 23:06:00,70.9,63.3,30.19,ENE,61,5.0,8.0,77,0.00,,---,0.54,VWS V14.01,2013-09-17 03:06:00,
2013-09-16 23:07:00,70.9,63.3,30.19,ENE,69,5.0,7.0,77,0.00,,---,0.54,VWS V14.01,2013-09-17 03:07:00,
2013-09-16 23:08:00,70.9,63.3,30.20,ENE,61,5.0,7.0,77,0.00,,---,0.54,VWS V14.01,2013-09-17 03:08:00,
2013-09-16 23:09:00,70.9,63.3,30.20,ENE,65,5.0,5.0,77,0.00,,---,0.54,VWS V14.01,2013-09-17 03:09:00,
2013-09-16 23:10:00,70.9,63.3,30.20,ENE,59,4.0,7.0,77,0.00,,---,0.54,VWS V14.01,2013-09-17 03:10:00,
2013-09-16 23:11:00,70.8,63.2,30.20,NE,44,3.0,5.0,77,0.00,,---,0.54,VWS V14.01,2013-09-17 03:11:00,
2013-09-16 23:12:00,70.8,63.2,30.20,ENE,76,3.0,5.0,77,0.00,,---,0.54,VWS V14.01,2013-09-17 03:12:00,
2013-09-16 23:13:00,70.8,63.2,30.20,ENE,67,8.0,8.0,77,0.00,,---,0.54,VWS V14.01,2013-09-17 03:13:00,
2013-09-16 23:14:00,70.8,63.2,30.20,ENE,70,7.0,7.0,77,0.00,,---,0.54,VWS V14.01,2013-09-17 03:14:00,
2013-09-16 23:15:00,70.7,63.1,30.20,ENE,62,10.0,10.0,77,0.00,,---,0.54,VWS V14.01,2013-09-17 03:15:00,
2013-09-16 23:16:00,70.7,63.1,30.20,East,81,6.0,10.0,77,0.00,,---,0.54,VWS V14.01,2013-09-17 03:16:00,
2013-09-16 23:17:00,70.7,63.1,30.19,NE,49,7.0,8.0,77,0.00,,---,0.54,VWS V14.01,2013-09-17 03:17:00,
2013-09-16 23:18:00,70.7,63.1,30.19,East,86,9.0,10.0,77,0.00,,---,0.54,VWS V14.01,2013-09-17 03:18:00,
2013-09-16 23:19:00,70.7,63.1,30.20,ENE,69,9.0,9.0,77,0.00,,---,0.54,VWS V14.01,2013-09-17 03:19:00,
2013-09-16 23:20:00,70.6,63.0,30.20,ENE,68,7.0,9.0,77,0.00,,---,0.54,VWS V14.01,2013-09-17 03:20:00,
2013-09-16 23:21:00,70.6,63.0,30.20,NE,39,4.0,7.0,77,0.00,,---,0.54,VWS V14.01,2013-09-17 03:21:00,
2013-09-16 23:22:00,70.6,63.0,30.20,ENE,60,5.0,7.0,77,0.00,,---,0.54,VWS V14.01,2013-09-17 03:22:00,
2013-09-16 23:23:00,70.6,63.0,30.20,NE,53,8.0,8.0,77,0.00,,---,0.54,VWS V14.01,2013-09-17 03:23:00,
2013-09-16 23:24:00,70.6,63.0,30.20,NE,53,5.0,5.0,77,0.00,,---,0.54,VWS V14.01,2013-09-17 03:24:00,
2013-09-16 23:25:00,70.5,63.0,30.20,NE,53,3.0,5.0,77,0.00,,---,0.54,VWS V14.01,2013-09-17 03:25:00,
2013-09-16 23:26:00,70.5,63.0,30.20,ENE,61,3.0,4.0,77,0.00,,---,0.54,VWS V14.01,2013-09-17 03:26:00,
2013-09-16 23:27:00,70.5,63.0,30.20,NE,44,8.0,10.0,77,0.00,,---,0.54,VWS V14.01,2013-09-17 03:27:00,
2013-09-16 23:28:00,70.5,63.0,30.20,ENE,57,8.0,8.0,77,0.00,,---,0.54,VWS V14.01,2013-09-17 03:28:00,
2013-09-16 23:29:00,70.5,63.0,30.20,NE,42,5.0,7.0,77,0.00,,---,0.54,VWS V14.01,2013-09-17 03:29:00,
2013-09-16 23:30:00,70.5,63.0,30.20,NE,39,5.0,8.0,77,0.00,,---,0.54,VWS V14.01,2013-09-17 03:30:00,
2013-09-16 23:31:00,70.4,62.5,30.20,ENE,74,9.0,11.0,76,0.00,,---,0.54,VWS V14.01,2013-09-17 03:31:00,
2013-09-16 23:32:00,70.4,62.5,30.20,ENE,61,9.0,9.0,76,0.00,,---,0.54,VWS V14.01,2013-09-17 03:32:00,
2013-09-16 23:33:00,70.4,62.5,30.20,ENE,61,7.0,10.0,76,0.00,,---,0.54,VWS V14.01,2013-09-17 03:33:00,
2013-09-16 23:34:00,70.4,62.5,30.20,NE,53,5.0,5.0,76,0.00,,---,0.54,VWS V14.01,2013-09-17 03:34:00,
2013-09-16 23:35:00,70.3,62.4,30.20,ENE,61,7.0,10.0,76,0.00,,---,0.54,VWS V14.01,2013-09-17 03:35:00,
2013-09-16 23:36:00,70.3,62.0,30.20,ENE,70,10.0,13.0,75,0.00,,---,0.54,VWS V14.01,2013-09-17 03:36:00,
2013-09-16 23:37:00,70.3,61.6,30.20,ENE,68,15.0,16.0,74,0.00,,---,0.54,VWS V14.01,2013-09-17 03:37:00,
2013-09-16 23:38:00,70.3,61.6,30.20,ENE,67,8.0,16.0,74,0.00,,---,0.54,VWS V14.01,2013-09-17 03:38:00,
2013-09-16 23:39:00,70.3,61.6,30.20,East,82,10.0,11.0,74,0.00,,---,0.54,VWS V14.01,2013-09-17 03:39:00,
2013-09-16 23:40:00,70.2,61.5,30.20,NE,51,6.0,10.0,74,0.00,,---,0.54,VWS V14.01,2013-09-17 03:40:00,
2013-09-16 23:41:00,70.2,61.5,30.20,NE,47,8.0,8.0,74,0.00,,---,0.54,VWS V14.01,2013-09-17 03:41:00,
2013-09-16 23:42:00,70.2,61.5,30.20,NE,51,3.0,8.0,74,0.00,,---,0.54,VWS V14.01,2013-09-17 03:42:00,
2013-09-16 23:43:00,70.2,61.5,30.20,East,82,7.0,8.0,74,0.00,,---,0.54,VWS V14.01,2013-09-17 03:43:00,
2013-09-16 23:44:00,70.2,61.9,30.20,ENE,76,4.0,7.0,75,0.00,,---,0.54,VWS V14.01,2013-09-17 03:44:00,
2013-09-16 23:45:00,70.1,61.8,30.20,ENE,62,5.0,5.0,75,0.00,,---,0.54,VWS V14.01,2013-09-17 03:45:00,
2013-09-16 23:46:00,70.1,61.8,30.21,NE,47,4.0,5.0,75,0.00,,---,0.54,VWS V14.01,2013-09-17 03:46:00,
2013-09-16 23:47:00,70.1,61.8,30.21,ENE,58,4.0,7.0,75,0.00,,---,0.54,VWS V14.01,2013-09-17 03:47:00,
2013-09-16 23:48:00,70.1,61.8,30.21,ENE,57,5.0,7.0,75,0.00,,---,0.54,VWS V14.01,2013-09-17 03:48:00,
2013-09-16 23:49:00,70.0,61.7,30.21,ENE,64,5.0,5.0,75,0.00,,---,0.54,VWS V14.01,2013-09-17 03:49:00,
2013-09-16 23:50:00,70.0,61.7,30.21,NE,51,4.0,5.0,75,0.00,,---,0.54,VWS V14.01,2013-09-17 03:50:00,
2013-09-16 23:51:00,70.0,61.7,30.21,ENE,58,7.0,7.0,75,0.00,,---,0.54,VWS V14.01,2013-09-17 03:51:00,
2013-09-16 23:52:00,69.9,61.6,30.21,ENE,69,4.0,7.0,75,0.00,,---,0.54,VWS V14.01,2013-09-17 03:52:00,
2013-09-16 23:53:00,69.9,61.6,30.20,NE,54,5.0,8.0,75,0.00,,---,0.54,VWS V14.01,2013-09-17 03:53:00,
2013-09-16 23:54:00,69.9,62.0,30.21,NE,51,3.0,3.0,76,0.00,,---,0.54,VWS V14.01,2013-09-17 03:54:00,
2013-09-16 23:55:00,69.8,61.9,30.21,NE,44,4.0,6.0,76,0.00,,---,0.54,VWS V14.01,2013-09-17 03:55:00,
2013-09-16 23:56:00,69.8,61.9,30.21,ENE,66,8.0,9.0,76,0.00,,---,0.54,VWS V14.01,2013-09-17 03:56:00,
2013-09-16 23:57:00,69.8,61.9,30.21,NE,53,5.0,8.0,76,0.00,,---,0.54,VWS V14.01,2013-09-17 03:57:00,
2013-09-16 23:58:00,69.7,61.8,30.21,NE,45,5.0,7.0,76,0.00,,---,0.54,VWS V14.01,2013-09-17 03:58:00,
2013-09-16 23:59:00,69.7,61.8,30.21,NE,54,5.0,8.0,76,0.00,,---,0.54,VWS V14.01,2013-09-17 03:59:00,